GFSGBSN_con_mucape_000.txt.gz
CAPE
15 16 15 20 12 0 0 12 2 2 2 0 0 1 0 1 0 1 3 2 2 2 2 0 0 0 0 0 0 7 388 286 0 0 0 0 0 0 0 0 0 0 0 0 2 3 0
0 0 11 18 10 0 1 9 8 0 0 0 0 0 0 0 0 0 0 2 2 2 0 0 0 0 0 0 1 0 1 0 0 0 1 3 0 0 0 0 0 0 0 0 0 0 0
0 0 0 10 0 0 1 3 3 0 0 0 0 0 0 0 0 0 2 1 2 1 0 0 0 2 0 0 1 0 0 0 0 0 0 1 0 0 0 0 0 0 0 0 0 0 0
0 0 0 0 0 0 0 0 0 0 0 0 0 0 0 0 0 0 2 0 0 0 0 0 0 12 0 0 0 0 0 0 0 0 0 2 0 0 0 0 0 0 0 0 0 0 0
0 0 0 0 0 0 0 0 0 0 0 0 0 0 0 0 1 0 0 0 0 0 0 0 17 0 0 0 0 0 0 0 0 0 0 0 0 0 0 0 0 0 0 0 0 0 0
0 0 0 0 0 0 0 0 0 0 0 0 0 0 0 0 3 2 0 0 0 0 0 0 2 0 0 0 0 0 0 0 1 1 0 0 0 0 0 0 0 0 0 0 0 0 0
0 0 0 0 0 0 0 0 0 0 0 0 0 0 0 0 2 1 0 0 0 0 0 0 0 4 0 0 0 0 0 0 0 1 2 0 0 0 0 0 0 0 0 0 0 0 0
0 0 0 0 0 0 0 0 0 0 0 0 0 0 0 2 2 0 0 326 490 285 8 0 5 0 0 0 0 0 0 15 13 5 25 25 21 8 7 0 0 0 0 0 0 0 0
1 0 0 0 0 0 0 0 0 0 0 0 0 0 0 0 0 230 271 200 420 253 27 0 0 0 1 0 0 0 13 20 25 29 18 6 2 9 6 0 2 0 0 1 5 0 0
11 0 0 0 0 0 0 0 0 0 0 0 0 0 0 0 116 99 74 290 590 327 0 0 0 0 0 0 0 0 6 14 16 18 15 2 1 0 0 0 0 1 0 0 0 1 0
17 0 0 0 0 0 0 0 0 0 0 0 0 0 0 0 98 151 566 625 499 226 0 0 0 0 0 0 0 0 3 2 0 0 0 0 1 0 0 0 0 0 0 0 0 0 0
26 0 0 0 0 0 0 0 0 0 0 0 0 0 0 57 210 595 743 254 94 0 0 0 0 0 0 0 0 0 5 0 0 0 0 0 0 0 0 0 0 0 0 0 0 0 0
17 0 0 0 0 0 0 0 0 0 0 0 0 0 0 207 758 1047 169 0 0 4 0 0 0 0 0 0 0 0 0 0 0 0 0 0 0 0 0 0 0 0 0 0 0 0 0
3 6 0 0 0 0 0 0 0 0 0 0 0 0 0 636 927 326 0 0 0 2 0 0 0 0 0 0 0 0 0 0 0 0 0 0 0 0 0 0 0 0 0 0 0 0 0
14 6 0 0 0 0 0 0 0 0 0 0 0 0 259 454 599 0 0 0 4 0 0 0 0 0 0 0 0 0 0 5 1 0 0 0 0 0 0 0 0 0 0 0 0 2 1
38 3 0 0 0 0 0 0 0 0 0 0 0 108 187 485 0 0 0 0 160 19 0 0 0 0 0 0 0 0 0 0 6 17 0 0 0 0 0 0 0 0 0 0 0 0 0
68 0 0 0 0 0 0 0 0 0 0 0 39 53 78 392 0 0 0 0 65 49 0 0 0 0 0 4 1 0 0 0 0 0 7 0 0 0 0 0 0 0 0 0 0 0 0
39 0 0 0 0 0 0 0 0 0 0 0 0 0 452 0 0 0 0 14 33 0 30 34 0 0 0 0 0 0 0 0 0 0 0 0 0 0 0 0 0 0 0 0 0 0 0
35 0 0 0 0 0 0 0 0 0 0 4 0 232 468 0 0 0 0 31 6 0 1 35 31 1 0 0 0 0 0 0 0 0 0 0 0 0 0 0 0 0 0 0 0 0 0
0 0 0 0 0 0 0 0 0 0 0 15 2 38 282 5 0 0 0 16 32 29 3 14 31 9 0 0 0 0 0 0 0 0 0 0 0 0 0 0 0 0 0 0 0 0 0
0 0 0 0 0 0 0 0 0 0 0 20 0 0 10 0 0 0 0 1 20 11 8 15 32 25 6 0 0 0 0 0 0 0 0 0 0 0 0 0 0 0 0 0 0 0 0
0 0 0 0 0 0 0 0 0 0 0 51 0 0 0 0 0 0 0 0 0 0 8 0 0 19 9 0 0 0 0 0 0 0 0 0 0 0 0 0 0 0 0 0 0 0 0
0 0 0 0 0 0 0 0 0 0 0 23 15 0 0 0 0 0 0 2 33 0 0 0 0 4 0 0 0 0 0 0 0 0 0 0 0 0 0 0 0 0 0 0 0 0 0
0 0 0 0 0 0 0 0 0 0 0 0 16 16 0 0 0 0 0 0 81 9 0 0 0 2 0 0 0 0 0 0 0 0 0 0 0 0 0 0 0 0 0 0 0 0 0
0 0 0 0 0 0 0 0 0 0 0 59 59 88 4 0 0 0 0 3 84 38 0 0 0 0 0 0 0 0 0 0 0 0 0 0 0 0 0 0 0 0 0 0 0 0 0
0 0 0 0 0 0 0 0 0 0 0 31 59 119 40 0 0 0 6 84 54 29 1 0 0 0 0 0 0 0 0 0 0 0 0 0 0 0 0 0 0 0 0 0 0 0 0
0 0 0 17 1 0 0 0 0 0 0 39 75 135 30 8 0 0 1 36 8 9 22 0 0 0 0 0 0 0 0 0 0 0 0 0 0 0 0 0 0 0 0 0 0 0 0
0 0 0 31 0 0 0 19 25 12 30 39 68 282 51 41 0 0 89 83 14 1 0 0 0 0 0 0 0 0 0 0 0 0 0 0 0 0 0 0 0 0 0 0 0 0 0
0 0 0 1 0 0 1 40 82 94 46 110 174 166 66 57 134 88 74 32 2 9 15 5 0 0 0 0 0 0 0 0 0 0 0 0 0 0 0 0 0 0 0 0 0 0 0

GFSGBSN_con_mucape_003.txt.gz
CAPE
0 4 0 0 2 18 8 0 0 4 1 2 0 0 0 0 0 0 0 0 0 2 2 1 0 0 0 0 0 4 355 252 7 0 0 0 0 0 0 0 0 0 0 0 2 15 14
0 0 0 0 0 8 14 0 0 3 2 1 0 0 0 0 0 0 0 0 2 1 2 0 0 0 0 0 0 12 25 0 0 0 0 0 0 0 0 0 0 0 0 0 4 15 0
3 0 0 0 0 0 2 0 0 1 2 0 0 0 0 0 0 0 0 0 2 0 0 0 0 0 0 0 2 0 0 0 1 2 0 0 0 0 0 0 0 0 0 0 0 0 0
16 1 0 0 0 0 0 0 0 0 4 0 0 0 0 0 0 0 0 0 0 0 0 0 0 5 0 0 0 0 0 21 8 0 0 0 0 0 0 0 0 0 0 0 0 0 0
33 4 0 0 0 0 0 0 0 0 0 0 0 0 0 0 0 0 0 0 0 0 0 0 27 0 0 0 0 0 0 8 2 0 0 0 0 0 0 0 0 0 0 0 0 0 0
21 20 0 0 0 0 0 0 0 0 0 0 0 0 0 0 0 0 0 0 0 0 0 0 4 1 0 0 0 0 0 0 7 0 0 0 0 1 0 0 0 0 0 0 0 0 0
18 29 8 0 0 0 0 0 0 0 0 0 0 0 0 0 0 1 0 0 0 0 0 0 0 0 0 0 0 0 0 3 6 3 4 0 0 0 0 0 0 0 0 0 0 0 0
7 27 8 0 0 0 0 0 0 0 0 0 0 0 0 2 1 0 0 88 132 77 5 0 0 0 0 0 0 0 0 0 14 19 0 0 0 0 0 0 0 0 0 1 1 0 0
1 17 12 9 0 0 0 0 0 0 0 0 0 0 0 2 0 13 350 305 358 336 1 0 0 0 0 0 0 0 0 7 23 12 4 4 23 11 8 1 9 0 2 3 9 0 0
2 16 19 13 0 0 0 0 0 0 0 0 0 0 0 0 23 135 148 454 737 423 0 0 0 2 8 0 0 0 0 5 23 20 18 8 13 7 5 16 21 4 4 0 8 12 4
16 3 17 16 0 0 0 0 0 0 0 0 0 0 0 0 82 76 503 851 555 55 0 0 0 0 1 0 0 1 0 1 10 18 3 0 1 6 4 1 6 0 0 0 0 1 0
53 5 30 17 0 0 0 0 0 0 0 0 0 0 0 7 22 392 696 406 119 0 0 0 0 0 0 0 0 53 23 0 2 4 11 4 10 0 0 0 0 0 0 0 0 0 0
78 1 38 25 0 0 0 0 0 0 0 0 0 0 0 1 211 883 562 0 0 0 0 0 0 0 0 0 0 24 0 0 0 0 0 0 0 0 0 0 0 0 0 2 3 6 0
78 0 14 30 0 0 0 0 0 0 0 0 0 0 0 8 614 347 0 0 0 0 0 0 0 0 0 0 0 5 0 0 0 0 0 0 0 0 0 0 0 0 0 17 0 0 0
120 21 9 7 0 0 0 0 0 0 0 0 0 0 0 352 398 132 0 0 0 0 0 0 0 0 0 0 0 0 0 0 0 0 0 0 0 0 0 0 0 0 0 0 0 0 0
109 52 10 17 0 0 0 0 0 0 0 0 0 0 0 210 612 0 0 0 1 1 0 0 0 0 0 0 0 0 0 0 0 0 0 0 0 0 0 0 0 0 0 0 0 0 0
155 57 2 3 3 0 0 0 0 0 0 0 0 5 75 448 0 0 0 0 1 10 0 0 0 0 0 0 0 0 0 0 0 0 0 0 0 0 0 0 0 0 0 0 0 0 0
116 33 0 1 8 0 0 0 0 0 0 0 23 61 126 15 0 0 0 0 0 0 0 0 0 0 0 0 0 0 0 0 0 0 0 0 0 0 0 0 0 0 0 0 0 0 0
125 0 0 31 17 0 0 0 0 0 0 0 34 77 185 0 0 0 0 0 0 0 3 23 6 0 0 0 0 0 0 0 0 0 0 0 0 0 0 0 0 0 0 0 0 0 0
74 0 5 35 13 0 0 0 0 0 0 0 71 62 148 0 0 0 0 0 0 5 0 20 42 15 0 0 0 0 0 0 0 0 0 0 0 0 0 0 0 0 0 0 0 0 0
4 1 33 61 0 0 0 0 0 0 0 24 21 2 11 0 0 0 0 0 0 6 3 41 58 34 9 0 0 0 0 4 1 0 0 0 0 0 0 0 0 0 0 0 0 0 0
0 37 28 19 0 0 0 0 0 0 0 46 0 0 0 0 0 0 0 0 0 0 16 17 32 54 24 11 2 10 2 0 0 0 0 0 0 0 0 0 0 0 0 0 0 0 0
3 38 42 0 0 0 0 0 0 0 0 49 6 0 0 0 0 0 0 0 0 0 14 6 0 11 16 10 0 0 0 0 0 0 0 0 0 0 0 0 0 0 0 0 0 0 0
43 21 2 0 0 0 0 0 0 0 11 43 38 0 0 0 0 0 0 0 0 5 7 10 1 22 5 0 0 0 0 0 0 0 0 0 0 0 0 0 0 0 0 0 0 0 0
14 3 1 0 0 0 0 0 0 0 13 78 93 6 0 0 0 0 0 0 0 82 15 4 0 9 0 0 0 0 0 0 0 0 0 0 0 0 0 0 0 0 0 0 0 0 0
6 0 0 0 0 0 0 0 0 0 0 79 193 173 50 0 0 0 0 0 0 88 4 0 1 2 0 0 0 0 0 0 0 0 0 0 0 0 0 0 0 0 0 0 0 0 0
0 0 0 0 0 0 0 0 0 0 0 59 177 128 96 24 0 0 0 0 1 60 30 1 1 0 0 0 0 0 0 0 0 0 0 0 0 0 0 0 0 0 0 0 0 0 0
0 0 0 0 1 0 0 0 0 0 0 81 157 175 156 59 0 0 0 0 32 65 58 7 1 0 0 0 0 0 0 0 0 0 0 0 0 0 0 0 0 0 0 0 0 0 0
0 0 7 21 11 8 1 0 0 0 24 147 178 288 268 98 0 0 0 0 42 0 2 12 8 1 3 0 0 0 0 0 0 0 0 0 0 0 0 0 0 0 0 0 0 0 0

GFSGBSN_con_mucape_006.txt.gz
CAPE
17 2 0 0 0 0 0 1 6 0 0 2 9 6 3 0 0 0 0 0 0 0 0 0 0 0 0 4 7 175 286 152 0 0 0 0 0 0 0 0 0 0 19 2 1 0 37
22 22 5 0 0 0 0 0 1 0 0 3 2 0 0 0 0 0 0 0 0 0 0 0 0 0 0 5 0 107 206 0 0 0 0 0 0 0 0 0 0 0 0 2 0 19 19
7 23 18 3 0 0 0 0 0 0 0 1 1 0 0 0 0 0 0 0 0 0 0 0 0 0 0 0 1 89 2 1 0 0 0 0 0 0 0 0 0 0 0 0 0 12 0
1 4 14 13 0 0 0 0 0 0 0 2 0 0 0 0 0 0 0 0 0 0 0 0 0 0 3 0 0 0 0 6 0 0 0 0 0 0 0 0 0 0 0 0 1 0 0
0 1 8 18 4 0 0 0 0 0 0 0 0 0 0 0 0 0 0 0 0 0 0 0 0 0 20 0 0 0 2 19 2 0 0 0 0 0 0 0 0 0 0 0 0 0 0
27 0 0 14 4 0 0 0 0 0 0 0 0 0 0 0 0 0 0 0 0 0 0 0 0 1 24 0 0 0 0 0 1 0 0 0 0 0 0 0 0 0 0 0 0 0 0
37 49 2 20 5 0 0 0 0 0 0 0 0 0 0 0 0 0 0 0 0 0 0 0 0 3 0 0 0 3 0 0 0 0 0 0 0 0 1 0 0 0 1 0 0 12 96
27 37 32 39 10 1 0 0 0 0 0 0 0 0 0 0 0 0 0 0 0 9 44 4 0 0 0 0 0 0 0 0 3 0 3 0 0 0 0 0 0 0 0 32 5 0 118
45 46 30 24 6 6 0 0 0 0 0 0 0 0 0 0 0 0 0 169 188 164 359 7 1 0 0 0 0 0 10 4 5 5 50 28 26 0 10 18 36 72 80 84 32 26 118
54 47 48 13 4 14 0 0 0 0 0 0 0 0 0 0 0 0 20 95 350 468 23 0 0 0 0 0 0 0 0 6 0 35 98 120 32 47 79 44 37 125 24 19 50 72 125
57 62 47 1 4 7 2 0 0 0 0 0 0 0 0 0 0 0 0 329 555 81 0 0 0 0 0 0 0 4 0 5 8 17 69 83 63 77 108 79 46 102 62 81 58 157 137
60 72 71 21 2 4 3 0 0 0 0 0 0 0 0 0 0 0 212 435 262 251 0 0 0 0 3 1 1 25 8 0 2 50 100 71 24 58 52 11 10 5 59 68 81 139 163
56 61 60 48 3 14 2 0 0 0 0 0 0 0 0 0 0 11 410 159 45 18 0 0 0 1 18 13 24 60 85 91 94 137 161 95 65 22 17 46 4 60 128 130 78 139 140
77 86 65 63 0 22 15 2 0 0 0 0 0 0 0 0 1 224 11 0 1 0 0 0 0 4 28 6 16 42 74 100 22 100 159 99 99 0 0 15 29 91 112 69 9 105 43
103 116 97 70 0 10 20 2 0 0 0 0 0 0 0 0 58 126 0 230 0 0 0 0 0 0 22 4 3 59 79 108 9 41 33 33 0 0 0 0 0 0 4 11 34 1 71
135 109 78 66 6 23 34 5 0 0 0 0 0 0 0 12 32 3 142 0 0 2 0 0 0 0 14 14 0 24 108 1 5 0 1 27 0 0 0 0 0 0 0 5 21 9 0
167 151 96 72 8 18 50 13 0 0 0 0 1 0 34 52 225 32 192 0 0 51 37 0 0 0 0 28 12 0 3 0 0 0 0 0 1 0 0 0 0 0 0 0 0 0 0
189 138 118 75 49 33 46 19 0 0 0 0 3 18 17 134 82 0 0 0 3 108 0 0 1 0 1 57 25 31 1 18 0 0 0 0 0 11 0 0 0 0 0 0 0 0 0
198 173 122 94 88 10 20 32 1 0 0 0 0 160 64 137 54 60 0 0 18 11 0 57 38 56 63 125 105 75 27 0 0 0 0 0 0 0 0 0 0 0 0 0 0 0 0
171 164 153 123 0 3 10 25 0 0 0 9 53 314 221 18 0 0 0 0 0 0 0 21 91 141 175 108 45 105 33 0 0 0 0 0 0 0 15 0 0 0 0 0 0 0 0
173 189 128 78 0 0 46 23 0 0 0 0 112 89 33 73 0 0 0 0 0 26 6 38 128 175 221 219 91 98 16 0 0 0 0 0 0 0 0 0 0 0 0 0 0 0 0
230 152 47 36 3 7 53 22 0 0 0 0 130 96 11 5 0 0 0 0 0 0 82 109 166 147 200 276 130 168 30 0 2 0 0 0 0 0 0 0 0 0 0 0 0 0 0
187 71 0 27 0 21 55 1 0 0 0 4 93 16 67 0 0 0 0 0 0 103 33 29 181 250 184 95 12 0 0 0 0 0 0 0 0 0 0 0 0 0 0 0 0 0 0
126 29 31 0 17 39 36 0 0 0 9 102 254 89 123 2 0 0 0 0 59 150 235 25 85 261 9 7 0 0 0 0 0 0 0 0 0 0 0 0 1 0 0 0 0 0 0
69 5 2 47 32 14 0 0 0 0 35 225 232 155 67 0 5 0 0 0 0 22 148 121 12 15 10 3 41 0 0 0 0 0 0 0 0 0 20 0 0 0 0 0 0 0 0
2 0 41 55 7 0 0 0 0 0 22 242 361 125 242 86 0 0 0 0 104 267 143 7 4 0 7 7 41 98 21 0 0 0 0 0 0 0 0 141 201 0 0 0 0 0 0
42 33 38 8 0 0 0 0 0 0 0 218 477 78 135 47 0 0 0 0 36 235 366 1 5 0 8 18 742 329 39 0 0 0 0 0 0 0 0 0 0 0 0 0 0 0 0
45 35 1 0 0 0 0 0 0 0 1 179 475 169 812 512 7 0 0 0 0 231 461 1 20 17 0 232 654 60 226 0 0 0 0 0 0 0 0 6 0 0 0 0 0 0 0
28 6 0 0 0 0 0 0 0 0 15 149 805 220 267 524 110 0 0 0 0 209 241 3 320 48 187 123 6 1 0 0 0 19 0 0 0 0 0 0 0 0 0 0 0 0 0

GFSGBSN_con_mucape_012.txt.gz
CAPE
0 0 1 7 3 4 0 0 0 0 0 0 0 0 0 5 8 4 0 0 0 0 13 0 0 0 0 12 133 232 430 92 0 0 0 0 0 0 0 0 0 0 0 0 0 0 12
8 7 0 0 1 10 18 3 0 0 0 0 0 0 0 3 9 2 0 0 0 0 0 0 0 0 0 6 39 228 9 0 0 0 0 0 0 0 0 0 0 0 0 0 0 0 96
13 13 13 0 1 0 2 14 0 0 0 0 0 0 0 0 0 0 0 0 0 0 0 0 0 0 0 0 8 183 0 0 0 0 0 0 0 0 0 32 1 0 0 0 0 0 35
20 17 19 13 1 1 6 12 7 0 0 0 0 0 0 0 0 0 0 0 0 0 0 0 0 0 0 1 0 0 142 34 2 0 0 0 2 0 0 0 0 0 0 0 0 0 12
22 15 17 17 9 0 0 2 8 1 0 0 0 0 0 0 0 0 0 0 0 0 0 0 0 0 17 0 0 0 0 29 17 31 1 0 0 0 0 0 0 0 0 0 0 0 0
23 25 21 17 11 9 0 0 2 11 0 0 0 0 0 0 0 0 0 0 0 0 0 0 0 0 57 0 0 0 0 0 7 28 0 0 0 6 0 0 0 0 0 0 0 0 0
14 29 23 17 3 9 17 0 0 5 8 0 0 0 0 0 0 0 0 0 0 0 0 0 0 0 0 0 0 0 0 0 9 24 8 14 6 5 7 1 0 0 2 2 6 0 0
30 41 37 31 22 10 3 14 2 6 24 0 0 0 0 0 0 0 0 0 6 0 23 0 0 0 0 0 0 0 0 0 24 48 0 0 0 0 0 0 0 3 15 3 0 0 0
30 33 39 35 38 23 4 4 12 4 12 1 0 0 0 0 0 0 0 0 0 0 41 4 0 0 0 0 0 0 0 0 2 13 0 1 0 0 0 0 1 0 16 16 7 0 0
41 41 38 41 37 32 7 0 1 7 8 11 0 0 0 0 0 0 0 0 0 0 12 0 0 0 0 0 0 0 4 0 8 0 1 0 0 0 0 0 0 41 51 8 16 37 0
0 50 50 46 38 27 12 0 3 12 1 21 0 0 0 0 0 0 117 12 7 322 49 0 0 0 0 0 3 0 0 0 5 4 91 4 20 1 1 18 81 23 21 36 44 73 148
0 67 57 44 48 34 24 9 7 17 5 19 0 0 0 0 0 0 0 100 668 412 3 0 0 0 0 0 0 4 0 0 1 1 41 4 9 26 65 38 71 71 7 85 23 56 301
0 0 27 0 18 55 33 13 8 14 8 22 2 0 0 1 0 0 0 594 188 4 0 2 0 0 0 0 0 0 0 0 0 2 24 1 1 15 20 2 25 9 28 72 78 182 249
0 0 39 78 52 61 44 23 8 15 10 23 8 0 2 0 0 1 193 490 15 0 0 0 0 5 8 17 1 0 0 0 0 0 9 63 74 23 1 1 22 52 1 168 8 0 52
62 84 113 108 87 66 51 29 15 15 5 33 8 0 9 0 0 17 154 90 5 0 0 13 4 21 17 25 3 0 0 0 0 0 1 46 0 1 9 0 2 0 59 40 10 129 245
75 105 103 98 92 84 53 45 27 23 22 34 14 0 0 1 0 0 133 6 0 2 3 18 10 12 41 52 0 0 22 17 4 3 152 29 0 18 6 3 4 5 0 98 88 10 0
118 124 111 91 71 81 69 55 49 35 7 35 21 0 35 1 13 34 72 2 13 11 0 17 0 17 43 74 1 33 74 80 76 40 34 70 169 85 10 5 0 0 2 0 0 285 514
110 140 102 74 51 21 71 73 50 48 11 38 17 9 74 44 0 0 19 6 4 28 0 13 16 36 12 99 23 1 60 185 134 39 36 17 38 586 74 0 0 0 78 0 510 32 552
19 92 95 101 82 11 81 74 49 53 40 20 10 127 316 184 0 17 0 2 14 28 29 61 2 40 7 46 69 0 9 300 265 85 49 35 55 304 80 127 19 0 0 18 31 181 180
141 148 158 118 93 4 95 79 53 32 38 31 38 107 262 190 15 14 32 0 21 57 17 30 20 35 0 0 16 25 34 164 123 126 23 160 27 6 286 72 64 101 0 0 0 236 47
126 162 176 149 77 0 96 86 64 17 23 12 230 86 49 24 65 58 266 73 30 30 18 80 23 0 73 51 78 71 119 227 78 43 3 25 9 1 0 25 21 20 6 0 0 0 0
115 147 175 119 40 1 103 107 67 8 12 18 147 130 241 118 37 151 197 129 29 24 42 97 146 41 76 128 71 115 109 417 160 88 19 38 234 185 173 28 3 0 0 0 0 0 0
136 124 158 87 40 32 106 65 78 18 2 11 32 167 276 130 146 362 327 171 53 82 145 155 133 193 172 415 439 551 639 571 282 360 318 425 703 182 47 0 0 0 0 0 0 0 0
85 0 0 100 38 87 112 36 20 1 0 0 46 403 142 238 156 228 254 105 39 81 390 295 324 435 478 321 345 258 133 113 196 181 397 330 317 213 192 0 0 0 0 0 0 0 0
70 50 0 62 87 99 95 30 0 0 2 0 269 403 238 183 407 322 446 385 93 124 447 376 594 614 590 431 396 164 482 10 0 0 11 63 183 133 47 0 0 0 0 0 0 0 0
51 80 121 103 87 71 47 5 2 0 14 0 39 219 505 600 629 177 198 129 227 877 765 278 380 618 611 1337 1202 184 320 61 62 7 0 0 9 334 0 52 0 0 0 0 0 0 0
58 106 127 95 84 59 44 3 0 0 0 7 38 51 584 678 575 163 110 51 132 954 880 445 249 233 485 1300 921 1034 662 55 202 76 0 0 50 0 0 54 7 0 0 0 0 1 0
82 148 127 104 88 43 30 0 0 0 0 3 46 103 396 427 343 345 172 55 168 887 1060 696 454 474 1263 825 779 1141 859 629 330 18 0 9 132 2 144 0 0 0 0 0 35 0 0
110 142 88 89 51 28 1 0 2 0 7 26 37 280 734 1008 738 1087 584 390 334 123 936 877 735 770 1095 1071 801 1386 255 129 138 256 2 120 160 499 7 52 0 0 0 0 0 0 0

GFSGBSN_con_mucape_015.txt.gz
CAPE
9 2 0 0 0 0 2 6 1 0 0 0 0 0 0 0 0 1 0 0 0 0 0 3 0 0 0 0 3 150 122 179 0 0 0 0 0 0 0 3 0 0 6 0 12 10 50
8 1 1 5 0 0 0 5 2 6 0 0 0 0 0 0 0 0 0 0 0 0 0 0 0 0 0 0 12 22 0 0 0 0 0 0 0 0 0 0 0 0 9 0 0 0 18
7 13 8 5 4 0 0 0 0 4 6 0 0 0 0 0 0 0 0 0 0 0 0 0 0 0 0 0 0 38 0 0 0 0 0 0 0 0 0 7 11 5 0 0 0 20 4
12 13 11 9 9 0 0 1 1 3 9 1 0 0 0 0 0 0 0 0 0 0 0 0 0 0 0 0 0 0 0 4 27 3 0 0 0 0 0 0 0 0 0 0 0 0 1
19 23 12 3 7 10 0 0 2 1 3 12 0 0 0 0 0 0 0 0 0 0 0 0 0 0 0 0 0 0 0 14 26 2 0 0 0 0 8 11 0 0 0 4 0 0 5
22 25 20 9 1 7 9 0 0 0 0 7 6 0 0 0 0 0 0 0 0 0 0 0 0 0 0 0 0 0 0 0 0 0 0 0 0 0 2 0 0 0 0 3 0 0 3
24 23 27 25 16 3 0 9 2 0 0 1 9 0 0 0 0 0 0 0 0 0 0 0 0 0 0 0 0 0 0 0 0 0 35 0 10 1 0 0 0 0 0 3 2 0 0
37 40 24 24 26 12 0 0 0 4 0 2 9 1 0 0 0 0 0 0 0 0 0 0 0 0 0 0 0 0 0 0 0 2 1 2 0 0 0 0 0 2 2 1 0 0 0
52 44 41 27 38 28 15 0 1 0 1 0 7 4 0 0 0 0 0 0 0 0 0 0 0 0 0 0 0 0 0 0 0 0 0 0 0 1 0 0 0 0 13 10 1 0 0
62 49 46 39 32 37 27 9 7 1 4 2 7 7 0 0 0 0 0 0 0 0 0 0 0 0 0 0 0 0 0 0 0 0 1 0 0 0 0 0 0 1 1 9 4 0 2
0 56 57 54 38 30 27 21 6 1 12 0 4 11 0 0 0 0 0 1 0 0 0 0 0 0 0 0 0 0 0 1 0 18 0 5 8 2 0 0 0 0 0 0 9 1 2
89 0 0 57 62 40 37 35 10 7 17 2 3 17 4 0 0 0 29 89 178 11 0 0 0 0 0 0 0 0 0 0 0 0 0 0 0 3 9 0 0 34 0 1 5 0 14
97 93 0 0 70 56 41 46 24 9 14 11 3 15 3 0 0 2 0 14 45 48 0 0 0 0 0 0 0 0 0 0 0 0 0 3 0 1 1 8 49 34 45 26 3 1 7
91 112 86 0 0 27 60 40 38 15 24 13 10 21 6 0 4 3 29 71 25 0 0 0 0 0 0 0 0 0 0 0 0 0 0 0 17 1 20 16 21 3 2 2 0 0 17
124 8 96 94 0 0 0 0 46 31 42 20 20 30 6 0 3 6 29 38 0 0 0 0 0 0 0 0 0 0 0 0 0 0 0 10 46 10 12 48 29 6 17 11 21 1 2
126 117 106 92 130 112 106 67 68 42 54 5 21 27 0 0 0 16 20 0 0 0 0 5 1 0 0 0 0 0 0 0 0 0 2 22 35 2 0 5 3 22 5 41 10 3 1
131 139 131 101 83 95 99 104 96 64 66 29 13 17 0 0 0 41 0 0 0 0 0 4 3 0 0 0 0 0 0 0 0 3 35 17 6 21 0 10 0 0 0 0 0 0 0
91 113 119 119 114 105 76 74 76 80 71 6 51 19 1 8 13 11 0 1 0 6 13 4 0 1 0 3 6 2 3 67 74 66 13 8 1 22 39 2 11 0 11 46 3 0 5
92 101 111 113 142 134 78 89 69 72 70 4 38 41 33 13 0 0 0 0 0 10 1 0 12 2 0 7 9 0 116 88 99 46 9 37 0 0 0 31 70 21 0 22 3 0 0
76 102 113 93 106 138 126 74 75 66 82 8 62 76 104 36 0 0 0 0 0 8 24 0 7 27 2 11 0 5 103 126 86 5 0 62 33 0 0 0 43 15 16 0 1 0 0
87 97 88 100 1 123 91 74 62 79 86 13 75 23 33 21 11 6 0 0 0 18 14 0 0 13 0 0 0 19 119 32 77 33 3 8 0 0 0 30 15 6 13 0 0 0 0
91 98 94 30 129 141 117 27 24 85 81 43 56 31 83 17 21 6 0 0 0 4 9 0 8 5 0 0 12 53 225 187 47 28 0 1 6 0 0 0 0 0 0 0 0 0 0
92 98 97 84 117 151 137 26 23 96 49 36 13 51 66 53 1 1 0 0 0 29 9 0 35 37 18 142 201 266 326 289 177 32 2 3 10 0 0 0 0 0 0 0 0 0 0
95 93 124 144 143 173 120 15 11 110 61 4 8 63 78 32 18 0 0 0 0 21 53 18 54 47 197 244 240 253 212 224 138 133 149 89 41 7 0 0 0 0 0 0 0 0 0
79 103 93 124 155 162 98 0 37 72 60 0 30 101 101 57 18 0 0 0 211 114 92 349 466 287 289 242 100 39 45 38 8 1 185 132 26 0 0 0 0 0 0 0 0 0 0
100 117 105 111 158 112 41 6 59 18 69 0 25 39 43 108 1 0 0 64 166 113 268 201 296 262 497 489 75 0 0 0 0 0 0 7 0 0 0 0 0 0 0 0 0 0 0
82 75 21 38 59 93 8 102 40 15 0 1 28 75 39 205 64 39 11 33 248 434 187 135 152 346 585 248 101 0 24 6 4 1 0 0 0 0 0 0 0 0 0 0 0 0 0
56 0 0 38 60 89 103 91 62 33 0 3 44 74 33 77 72 231 114 228 255 391 82 41 32 179 479 101 13 235 101 12 19 3 0 0 0 0 0 0 0 0 0 0 0 0 0
28 56 60 0 0 54 98 36 27 0 0 0 54 46 39 61 124 437 289 183 311 395 288 29 22 174 433 287 346 291 115 96 4 4 0 4 0 0 0 0 0 0 0 0 0 0 0

GFSGBSN_con_mucape_021.txt.gz
CAPE
14 9 13 11 8 1 0 0 0 0 1 2 0 0 0 0 0 0 0 0 0 0 0 0 0 0 0 0 0 0 0 0 0 0 0 0 0 0 0 0 0 1 0 0 0 43 70
19 28 20 16 11 0 0 1 0 0 0 0 7 2 0 0 0 0 0 0 0 0 0 0 0 0 0 0 0 0 0 0 0 0 0 0 0 0 0 0 7 0 0 0 0 16 51
28 32 34 26 23 13 6 5 0 0 0 0 4 0 1 0 0 0 0 0 0 0 0 0 0 0 0 0 0 0 0 0 0 0 0 0 0 0 0 7 3 0 0 1 2 7 81
38 32 29 27 24 28 16 8 0 0 0 0 1 0 2 0 0 0 0 0 0 0 0 0 0 0 0 0 0 0 0 0 0 0 0 0 0 2 7 23 0 1 11 42 32 79 125
38 35 33 25 21 17 26 17 13 0 0 0 0 0 0 2 0 0 0 0 0 0 0 0 0 0 0 0 0 0 0 0 0 0 0 0 0 0 6 21 8 0 0 3 43 12 42
52 46 38 38 24 26 21 19 18 8 7 0 0 1 4 1 0 0 0 0 0 0 0 0 0 0 0 0 0 0 0 0 0 0 0 0 0 0 18 26 7 0 0 0 5 0 11
69 71 57 51 46 29 20 28 16 9 4 10 0 0 0 2 0 0 0 0 0 0 0 0 0 0 0 0 0 0 0 0 0 0 0 0 0 0 29 10 0 0 0 0 0 0 0
58 88 85 63 56 50 34 32 22 24 9 0 0 1 0 1 0 0 0 0 0 0 0 0 0 0 0 0 0 0 0 0 0 0 0 0 0 0 2 0 0 1 0 0 2 6 0
43 27 78 87 73 62 49 27 32 21 13 0 0 0 2 17 0 0 0 0 0 0 0 0 0 0 0 0 0 0 0 0 0 0 0 0 0 4 2 1 0 0 0 0 0 0 0
87 68 42 67 78 81 52 38 28 18 19 6 0 0 2 14 0 0 0 0 0 0 0 0 0 0 0 0 0 0 0 0 0 0 0 0 0 0 0 1 0 0 0 0 0 0 0
98 94 76 59 61 58 55 48 39 35 25 16 0 1 5 17 0 0 1 0 0 0 0 0 0 0 0 0 0 0 0 0 0 0 0 0 0 0 0 0 0 0 0 0 0 0 3
48 78 94 82 76 50 40 57 41 26 34 24 5 5 8 8 7 0 95 10 8 0 0 0 0 0 0 0 0 0 0 0 0 0 0 0 0 0 0 0 0 0 0 0 0 0 0
0 36 65 94 81 60 51 53 40 28 37 31 23 8 8 6 0 1 137 64 31 0 0 0 0 0 0 0 0 0 0 0 0 0 0 0 0 0 0 0 0 0 0 0 0 0 0
5 0 39 68 92 92 63 48 42 43 35 33 28 22 4 16 7 1 72 86 0 0 0 0 0 0 0 0 0 0 0 0 0 0 0 0 0 0 0 0 0 0 1 0 0 0 0
77 1 0 44 67 83 90 62 40 53 45 40 35 47 12 12 26 6 90 0 0 0 0 0 0 0 0 0 0 0 0 0 0 0 0 0 0 0 0 3 0 0 0 0 0 0 0
96 58 0 0 29 69 107 76 42 58 56 45 29 31 28 11 23 17 52 0 0 0 0 0 0 0 0 0 0 0 0 0 0 0 0 0 0 0 3 0 15 4 0 0 0 0 0
101 62 51 0 26 37 97 86 47 71 54 47 30 48 20 23 25 18 0 0 0 0 0 0 0 0 0 0 0 0 0 0 0 0 0 0 0 0 3 0 22 11 0 0 0 0 0
79 41 28 0 36 72 102 82 80 94 83 49 20 1 32 12 49 3 0 0 0 0 0 0 0 0 0 0 0 0 0 0 0 0 0 0 0 0 0 0 3 0 2 0 0 0 0
96 47 0 0 59 97 94 79 84 92 71 37 0 71 69 9 27 0 0 0 1 0 0 0 0 0 0 0 0 0 0 0 1 0 0 0 0 0 0 7 0 0 2 4 4 0 0
120 45 0 0 79 85 94 79 81 77 84 43 60 0 72 64 3 1 0 0 0 0 0 0 0 2 1 0 0 0 0 20 2 11 8 0 0 0 0 3 25 12 39 41 12 0 0
126 36 0 3 0 78 82 72 83 58 90 18 71 42 20 0 0 0 0 0 0 0 0 0 0 0 0 0 0 0 12 11 24 3 5 1 0 0 0 0 0 21 33 36 19 2 0
103 0 0 0 0 22 89 94 102 55 142 33 1 77 53 0 0 0 0 0 0 0 0 0 0 0 0 0 0 0 0 0 17 7 4 0 0 0 3 0 0 0 0 13 0 0 0
133 0 0 0 0 0 93 92 79 60 129 12 21 35 46 0 0 0 0 0 0 0 0 0 0 6 0 0 0 1 13 0 28 21 7 10 1 8 0 0 0 0 0 0 0 0 0
85 0 0 0 0 27 93 89 58 120 32 2 44 24 62 0 0 0 0 0 0 0 0 0 0 2 0 2 6 13 8 16 17 21 1 5 1 7 0 0 0 0 0 0 0 0 0
0 0 0 0 0 24 81 62 47 93 71 12 30 24 72 0 0 0 0 0 2 0 0 0 0 0 35 41 65 74 65 60 25 15 1 6 16 0 0 0 0 0 0 0 0 0 0
0 4 0 0 0 17 45 49 73 104 68 7 12 18 14 35 0 14 3 0 0 0 0 0 0 33 4 11 51 86 72 45 29 26 61 68 61 22 1 0 0 0 0 0 0 0 0
0 1 0 0 0 0 46 71 48 94 15 12 8 13 15 7 51 43 21 0 0 0 0 0 65 28 21 31 46 57 32 24 14 18 18 55 90 23 3 0 0 0 0 0 0 0 0
0 0 0 0 0 10 45 36 70 87 3 4 0 7 2 1 41 43 60 21 0 0 0 1 112 52 34 49 44 62 21 6 0 0 3 0 0 1 2 0 0 0 0 0 0 0 0
0 0 0 39 60 65 86 89 86 104 81 3 0 23 3 10 25 8 18 0 0 0 0 21 2 34 63 51 28 45 21 0 0 0 0 0 0 0 0 0 0 0 0 0 0 0 0

GFSGBSN_con_mucape_024.txt.gz
CAPE
17 14 28 30 26 21 11 8 0 0 0 0 2 6 1 0 0 0 0 0 0 0 0 0 0 0 0 0 0 0 0 0 0 0 0 0 0 0 0 0 0 5 1 1 5 39 97
28 18 19 36 28 23 10 12 16 6 0 0 0 5 7 2 0 0 0 0 0 0 0 0 0 0 0 0 0 0 0 0 0 0 0 0 0 0 0 2 5 0 6 0 0 68 122
19 29 26 26 11 26 24 20 18 6 0 0 0 3 14 6 0 0 0 0 0 0 0 0 0 0 0 0 0 0 0 0 0 0 0 0 0 0 0 3 12 0 0 0 18 120 104
39 30 42 25 18 26 7 19 19 20 4 0 0 1 1 12 7 0 0 0 0 0 0 0 0 0 0 0 0 0 0 0 0 0 0 0 0 0 3 6 10 0 1 40 17 64 114
57 44 38 38 36 30 27 23 21 17 14 7 0 0 0 13 18 0 0 0 0 0 0 0 0 0 0 0 0 0 0 0 0 0 0 0 0 0 2 23 13 1 0 31 51 101 88
17 49 51 48 38 35 33 22 28 19 15 1 0 0 0 10 15 1 0 0 0 0 0 0 0 0 0 0 0 0 0 0 0 0 0 0 0 0 0 29 11 2 0 1 46 13 16
42 30 32 59 52 48 47 34 34 30 17 12 6 0 0 7 12 3 0 0 0 0 0 0 0 0 0 0 0 0 0 0 0 0 0 0 0 0 0 12 15 10 0 0 0 0 15
94 62 47 26 64 56 47 55 28 29 25 21 16 0 0 2 6 6 0 0 0 0 0 0 0 0 0 0 0 0 0 0 0 0 0 0 0 0 0 12 15 8 1 0 0 0 0
82 77 92 73 29 66 56 53 54 25 28 19 7 0 0 2 3 7 0 0 0 0 0 0 0 0 0 0 0 0 0 0 0 0 0 0 0 0 0 6 12 3 0 0 0 0 0
64 71 72 99 93 67 57 42 41 35 22 22 9 0 0 3 9 0 0 0 0 0 0 0 0 0 0 0 0 0 0 0 0 0 0 0 0 0 0 0 0 0 0 0 0 0 0
65 65 57 60 82 91 66 50 39 24 27 10 19 9 0 14 3 0 0 4 0 0 0 0 0 0 0 0 0 0 0 0 0 0 0 0 0 0 0 0 0 0 0 0 0 0 0
53 59 66 6 45 57 78 62 43 40 27 29 24 13 3 7 16 0 28 20 11 19 5 0 0 0 0 0 0 0 0 0 0 0 0 0 0 0 0 0 0 0 0 0 0 0 0
79 61 34 0 0 60 59 74 53 37 44 27 23 19 25 20 7 0 42 98 47 2 0 0 0 0 0 0 0 0 0 0 0 0 0 0 0 0 0 0 0 0 0 0 0 0 0
95 97 74 0 0 0 56 58 74 44 61 34 29 17 18 3 9 2 8 28 0 0 0 0 0 0 0 0 0 0 0 0 0 0 0 0 0 0 0 0 0 0 0 0 0 0 0
102 105 98 74 59 57 42 40 62 24 60 35 36 14 16 2 5 15 32 0 0 0 0 0 0 0 0 0 0 0 0 0 0 0 0 0 0 0 0 0 0 0 0 0 0 0 0
107 91 101 88 59 51 0 30 82 70 55 59 31 36 0 17 9 41 45 0 0 0 0 1 0 0 0 0 0 0 0 0 0 0 0 0 0 0 0 5 0 0 0 0 0 0 0
89 96 82 94 51 36 25 39 63 92 50 82 60 10 0 60 32 52 0 0 0 0 0 8 0 0 0 0 0 0 0 0 0 0 0 0 0 0 0 0 1 0 0 0 0 0 0
71 103 91 94 59 34 19 35 62 74 24 72 60 0 29 46 41 13 0 0 1 0 10 0 0 0 0 0 0 0 0 0 0 0 0 0 0 0 0 0 2 0 0 0 0 0 0
91 125 121 119 70 0 5 0 54 98 26 22 1 28 74 23 0 0 0 0 3 0 0 0 0 0 0 0 0 0 0 0 0 0 0 0 0 0 0 0 0 0 0 0 0 0 0
155 147 148 155 79 0 2 0 70 116 34 8 9 0 75 59 0 0 0 0 0 0 0 0 0 0 0 0 0 0 0 0 0 0 0 2 0 0 0 0 2 11 0 0 0 0 0
126 145 123 80 62 0 0 0 76 118 55 44 13 0 13 0 0 0 0 0 0 0 0 0 0 0 4 0 0 0 0 0 0 0 12 12 5 0 0 0 0 1 1 0 0 0 0
108 107 112 96 72 0 0 69 88 0 43 20 4 14 79 0 0 0 0 0 0 0 0 0 0 0 0 4 2 0 0 0 0 1 14 7 3 0 6 0 0 0 0 0 0 0 0
133 113 87 57 20 0 0 94 61 25 83 0 19 16 67 0 0 0 0 0 0 0 0 0 0 0 0 11 21 5 2 0 2 13 4 7 4 14 7 6 1 0 0 0 0 0 0
112 99 100 51 1 0 17 27 2 3 10 0 0 30 63 0 0 0 0 0 0 0 0 0 0 0 0 9 24 15 23 12 0 2 14 3 16 27 32 18 0 0 0 0 0 0 0
111 110 125 137 0 0 0 0 38 53 22 0 0 9 70 0 0 0 0 0 2 0 0 0 0 0 0 16 20 27 30 25 16 5 4 12 13 25 22 2 0 0 0 0 0 0 0
178 108 75 90 0 0 0 0 0 0 38 0 2 1 32 48 0 24 1 1 0 0 0 0 0 0 0 0 5 0 4 40 27 8 17 11 11 22 2 2 0 0 0 0 0 0 0
10 32 81 7 0 0 0 0 0 47 55 3 0 11 20 4 21 31 0 0 0 0 0 0 0 16 3 0 1 0 4 25 52 14 31 20 0 0 7 0 0 0 0 0 0 0 0
21 52 0 0 0 0 0 0 0 52 88 11 0 7 5 1 58 37 44 0 0 0 0 0 0 1 0 0 0 9 13 28 28 19 12 46 75 30 12 23 2 0 0 0 0 0 0
5 0 0 0 0 0 0 0 59 74 83 7 0 5 22 1 3 14 50 39 0 0 0 0 0 0 0 0 0 5 9 9 1 0 0 0 1 5 21 2 0 0 0 0 0 0 0

GFSGBSN_con_mucape_027.txt.gz
CAPE
16 17 5 12 29 18 2 10 20 12 2 0 0 0 2 11 8 4 0 0 0 0 0 0 0 0 0 0 0 0 0 0 0 0 0 0 0 0 0 0 0 3 1 0 8 14 81
29 26 36 8 2 4 9 7 20 14 8 0 0 0 0 10 8 8 0 0 0 0 0 0 0 0 0 0 0 0 0 0 0 0 0 0 0 0 0 0 1 0 1 0 0 86 198
48 36 33 36 29 21 3 4 15 19 15 8 0 5 0 1 7 8 6 0 0 0 0 0 0 0 0 0 0 0 0 0 0 0 0 0 0 0 0 0 0 4 0 0 0 119 237
35 25 52 38 31 33 24 11 5 15 20 19 10 0 0 4 1 15 12 0 0 0 0 0 0 0 0 0 0 0 0 0 0 0 0 0 0 0 0 0 2 1 1 29 8 123 168
31 49 40 40 34 35 30 30 19 9 7 23 18 0 0 0 2 14 14 0 0 0 0 0 0 0 0 0 0 0 0 0 0 0 0 0 0 0 0 0 5 7 0 26 15 56 144
41 42 48 67 35 41 36 32 34 12 22 21 20 12 0 0 0 4 5 0 0 0 0 0 0 0 0 0 0 0 0 0 0 0 0 0 0 0 0 1 0 0 1 1 77 70 80
31 25 44 47 65 46 55 40 34 29 10 22 17 21 15 0 0 0 5 0 0 0 0 0 0 0 0 0 0 0 0 0 0 0 0 0 0 0 0 0 6 0 0 0 3 34 36
69 63 27 53 73 71 39 56 37 36 29 24 17 15 7 0 0 4 4 0 0 0 0 0 0 0 0 0 0 0 0 0 0 0 0 0 0 0 0 0 6 8 3 0 0 0 0
70 74 73 52 38 66 67 50 46 35 31 24 22 11 1 0 0 1 0 0 0 0 0 0 0 0 0 0 0 0 0 0 0 0 0 0 0 0 0 0 10 2 8 4 0 0 1
59 67 66 71 63 51 66 76 59 47 40 29 19 15 2 0 2 0 0 0 0 0 0 0 0 0 0 0 0 0 0 0 0 0 0 0 0 0 0 0 2 3 0 0 0 0 0
68 55 56 67 61 40 40 65 71 58 44 43 23 18 8 14 0 0 0 0 0 0 0 0 0 0 0 0 0 0 0 0 0 0 0 0 0 0 0 0 0 1 0 0 0 0 0
0 84 71 66 72 50 36 33 60 53 55 46 28 18 15 9 0 0 5 4 0 0 0 0 0 0 0 0 0 0 0 0 0 0 0 0 0 0 0 0 0 0 0 0 0 0 0
77 48 14 76 67 65 45 37 34 78 40 53 44 32 27 41 12 0 20 13 9 0 0 0 0 0 0 0 0 0 0 0 0 0 0 0 0 0 0 0 0 0 1 0 0 0 0
80 71 77 73 74 64 62 42 4 51 69 48 55 51 41 7 28 0 15 35 0 0 0 0 0 0 0 0 0 0 0 0 0 0 0 0 0 0 0 0 0 0 1 1 0 0 0
78 80 73 67 70 73 66 47 32 42 54 61 41 38 9 24 7 4 70 0 0 0 0 0 0 0 0 0 0 0 0 0 0 0 0 0 0 0 0 0 0 0 0 0 0 0 0
107 93 72 78 60 62 61 51 31 48 62 94 6 12 18 25 5 5 57 0 0 0 0 0 0 0 0 0 0 0 0 0 0 0 0 0 0 0 0 0 0 0 0 3 2 0 0
101 109 104 72 61 62 61 31 41 25 77 112 15 12 5 31 85 38 1 0 0 0 0 0 0 0 0 0 0 0 0 0 0 0 0 0 0 0 0 0 0 2 1 1 0 0 0
74 120 145 97 83 69 82 51 40 37 92 102 9 0 0 35 28 19 0 0 0 0 0 0 0 8 2 3 0 0 0 0 0 0 0 0 0 0 0 0 0 0 0 0 23 0 0
62 67 83 161 67 76 75 38 1 41 86 34 3 3 15 6 31 0 0 0 0 0 0 0 0 27 30 21 2 0 0 0 0 0 0 0 0 0 0 0 0 0 0 0 0 0 0
108 110 127 66 0 80 86 35 0 45 99 2 9 0 98 33 2 1 0 0 0 0 0 0 0 23 23 33 21 2 0 0 0 0 0 0 0 0 0 0 0 0 7 6 8 0 0
102 127 144 132 67 19 87 7 0 54 99 8 14 10 30 0 8 11 0 0 0 0 0 0 0 0 15 23 42 28 0 0 0 0 0 1 0 0 0 0 0 0 0 0 0 0 0
144 149 144 153 104 45 37 8 0 20 97 2 4 9 38 0 0 0 0 0 0 0 0 0 0 0 0 19 45 51 6 0 0 0 3 2 0 0 0 0 0 0 0 0 0 0 0
147 163 117 112 127 92 82 1 0 0 65 2 0 0 21 2 1 0 0 0 0 0 0 0 0 0 7 0 47 37 15 0 4 2 7 12 1 0 0 0 0 0 0 0 2 0 0
84 160 191 125 132 136 42 3 0 0 0 0 0 5 7 0 12 0 0 0 0 0 0 0 0 0 0 1 5 21 12 0 2 6 5 14 14 8 10 7 0 0 0 0 0 0 0
137 160 159 136 144 100 56 0 0 0 0 0 0 12 62 0 0 8 0 0 53 20 0 0 0 0 28 35 15 19 6 3 3 6 12 8 13 8 5 0 0 0 0 0 0 0 0
146 76 125 126 108 86 69 12 0 0 87 0 0 12 42 61 8 1 10 10 0 22 6 0 0 2 2 31 8 0 0 0 6 19 10 2 25 36 12 0 0 0 0 0 0 0 0
53 69 115 79 74 33 48 0 0 0 59 0 0 0 63 69 51 43 43 4 19 19 0 0 0 0 0 0 0 0 0 5 0 3 16 9 10 12 6 0 0 0 0 0 0 0 0
64 70 67 65 28 59 4 0 0 0 21 0 0 0 6 46 53 19 30 28 18 0 0 0 2 0 0 0 0 3 0 0 0 0 5 7 6 10 4 0 0 0 0 0 0 0 0
59 53 23 25 42 1 0 0 0 0 18 0 0 0 2 4 4 14 8 34 11 1 0 0 0 0 0 0 0 0 4 0 0 0 1 3 0 0 0 0 0 0 0 0 0 0 0

GFSGBSN_con_mucape_030.txt.gz
CAPE
34 20 22 27 21 18 17 19 16 19 12 9 0 0 0 0 0 7 10 0 0 0 0 0 0 0 0 0 0 0 0 0 0 0 0 0 0 0 0 0 0 0 0 0 0 0 284
32 27 40 27 29 22 17 22 18 21 18 16 11 5 15 0 0 2 5 3 0 0 0 0 0 0 0 0 0 0 0 0 0 0 0 0 0 0 0 0 0 1 0 0 0 58 476
23 25 41 43 26 26 25 28 20 11 20 24 16 13 6 0 0 3 1 1 1 0 0 0 0 0 0 0 0 0 0 0 0 0 0 0 0 0 0 1 0 0 12 25 3 398 395
37 35 28 36 49 46 24 25 25 19 5 23 24 13 2 0 0 1 1 0 0 0 0 0 0 0 0 0 0 0 0 0 0 0 0 0 0 0 0 0 1 0 0 66 78 253 344
25 31 36 43 39 40 46 29 30 26 19 5 8 15 6 0 0 0 0 0 0 0 0 0 0 0 0 0 0 0 0 0 0 0 0 0 0 0 0 0 8 9 28 51 23 124 396
33 24 25 49 53 46 55 48 35 27 23 19 6 18 15 4 0 0 0 0 0 0 0 0 0 0 0 0 0 0 0 0 0 0 0 0 0 0 0 0 31 31 28 30 51 174 227
31 60 46 49 45 53 31 46 55 29 26 25 14 18 18 10 0 0 0 0 0 0 0 0 0 0 0 0 0 0 0 0 0 0 0 0 0 0 0 0 0 6 8 23 23 39 136
78 82 58 78 66 53 18 50 37 26 31 29 22 11 13 6 0 0 4 0 0 0 0 0 0 0 0 0 0 0 0 0 0 0 0 0 0 0 0 0 0 18 14 28 7 0 11
60 72 62 72 89 83 52 34 38 38 5 36 31 19 17 5 0 4 8 0 0 0 0 0 0 0 0 0 0 0 0 0 0 0 0 0 0 0 0 0 5 34 29 11 5 0 0
10 52 55 69 69 77 83 59 39 35 20 34 37 28 21 7 1 9 1 0 0 0 0 0 0 0 0 0 0 0 0 0 0 0 0 0 0 0 0 0 1 27 7 11 2 2 32
0 0 0 60 68 65 69 64 43 31 28 5 41 35 34 25 8 16 0 0 0 1 0 0 0 0 0 0 0 0 0 0 0 0 0 0 0 0 0 0 0 21 0 12 31 15 25
0 0 0 0 0 47 54 55 45 31 26 48 7 45 49 30 3 3 0 1 7 37 0 0 0 0 0 0 0 0 0 0 0 0 0 0 0 0 1 0 0 0 8 15 32 48 43
0 5 57 0 0 0 17 65 42 29 27 32 41 45 24 19 6 1 21 107 68 0 0 0 0 0 0 0 0 0 0 0 0 0 0 0 0 0 0 0 0 0 15 80 83 86 66
4 0 0 77 76 60 29 7 59 34 22 32 46 12 40 3 21 16 89 205 0 0 0 0 0 0 0 0 0 0 0 0 0 0 0 0 0 0 0 0 3 0 16 49 33 58 42
86 83 4 80 80 75 74 77 12 48 24 43 65 42 115 59 0 21 122 96 0 0 0 0 0 0 0 0 0 0 0 0 0 0 0 0 0 0 0 6 1 2 9 18 64 14 21
97 87 77 65 65 75 61 71 74 65 44 54 53 2 65 80 40 2 57 22 0 0 0 0 0 0 1 0 0 0 0 0 0 0 0 0 0 0 0 16 3 24 11 32 81 47 1
31 84 72 62 52 54 63 63 76 69 56 93 42 0 21 83 119 8 33 10 0 0 0 45 0 0 0 0 0 0 0 0 0 0 0 0 0 2 13 37 55 24 27 7 81 70 43
4 10 41 58 74 56 54 64 80 66 49 95 0 0 73 175 57 33 22 0 0 0 29 39 55 31 14 0 0 0 0 0 0 0 0 0 0 0 0 9 17 43 53 101 150 79 26
6 0 34 58 85 67 32 73 69 49 27 119 0 0 112 168 0 25 0 0 23 39 28 78 62 91 113 39 0 0 0 0 0 0 0 0 0 0 0 0 3 20 24 57 69 26 15
31 27 46 62 80 99 72 82 70 17 1 76 0 0 40 76 27 73 0 0 21 41 43 135 65 106 98 100 11 0 0 0 0 0 0 0 0 0 0 0 6 10 4 39 71 122 43
83 81 86 80 68 73 45 76 96 0 0 63 0 0 0 0 43 14 48 0 1 8 47 117 40 49 112 96 33 0 8 6 0 0 0 10 0 0 0 0 6 0 0 9 13 3 51
76 98 83 100 76 78 90 70 78 0 0 0 0 1 131 0 0 0 46 5 5 20 6 17 19 52 134 100 41 41 3 0 46 1 0 7 2 9 9 1 0 0 0 0 0 0 0
86 91 89 112 104 112 100 63 83 0 0 0 0 38 144 0 0 26 56 25 0 24 24 1 0 0 27 21 1 58 13 1 8 48 11 13 12 17 1 3 2 0 0 0 0 0 0
193 260 254 140 141 114 122 74 76 0 0 0 19 68 124 0 100 5 0 40 37 15 7 10 24 58 9 19 38 13 2 7 31 34 36 22 15 50 1 5 41 0 0 0 0 0 16
156 107 325 199 130 111 119 46 76 0 0 0 86 67 116 144 30 12 14 59 80 75 15 12 72 43 42 71 19 0 0 21 25 51 41 31 48 41 122 23 5 0 0 1 17 24 43
27 195 205 87 109 111 107 23 78 0 0 0 67 89 116 82 81 65 21 59 110 107 107 28 54 83 61 140 128 2 0 10 32 29 5 21 16 179 9 0 40 1 6 0 0 15 91
42 41 60 70 114 94 75 18 0 0 0 0 27 132 82 71 107 126 125 130 82 117 88 61 110 74 65 95 220 21 0 5 2 85 44 20 12 71 57 73 7 0 0 0 19 131 49
137 68 50 104 59 55 23 27 0 0 0 0 0 90 114 94 123 94 117 124 109 182 172 61 166 76 57 56 102 71 67 66 13 5 37 62 94 56 64 91 19 0 0 25 152 17 2
48 50 46 34 3 28 26 35 0 0 0 0 0 83 132 142 68 0 0 8 63 71 136 137 0 2 8 20 73 61 89 13 23 58 13 17 83 136 89 51 119 0 38 4 5 0 0

GFSGBSN_con_mucape_033.txt.gz
CAPE
11 10 16 31 30 22 18 20 24 19 18 20 13 5 0 0 0 0 0 3 0 0 0 0 0 0 0 0 0 0 0 0 0 0 0 0 0 0 5 2 3 0 1 0 0 0 328
22 21 15 9 10 32 15 26 28 19 16 20 18 15 14 0 0 0 0 1 0 0 0 0 0 0 0 0 0 0 0 0 0 0 0 0 0 0 0 1 11 5 0 0 0 5 243
18 28 29 36 27 18 29 31 21 25 20 12 6 19 13 10 0 0 0 0 0 0 0 0 0 0 0 0 0 0 0 0 0 0 0 0 0 0 0 10 8 0 0 0 0 35 86
19 23 19 41 46 39 28 35 36 23 25 23 14 18 17 13 0 0 0 0 0 0 0 0 0 0 0 0 0 0 0 0 0 0 0 0 0 0 0 0 0 0 0 15 73 109 157
21 26 19 36 41 46 38 31 39 39 28 27 22 16 17 12 1 0 0 0 0 0 0 0 0 0 0 0 0 0 0 0 0 0 0 0 0 0 0 0 24 21 26 23 80 8 257
24 32 46 50 35 39 46 45 35 34 42 23 24 21 19 17 5 0 0 0 0 0 0 0 0 0 0 0 0 0 0 0 0 0 0 0 0 0 0 27 15 20 37 41 38 36 60
31 30 36 48 44 50 25 34 37 34 34 36 25 28 20 19 14 0 0 0 0 0 0 0 0 0 0 0 0 0 0 0 0 0 0 0 0 0 3 16 1 20 25 51 32 35 31
75 56 50 67 70 60 43 50 40 36 39 32 34 26 22 20 18 0 10 0 0 0 0 0 0 0 0 0 0 0 0 0 0 0 0 0 0 0 1 1 0 8 35 51 39 0 1
60 61 58 56 73 69 65 69 56 38 32 39 13 35 27 17 19 3 5 0 0 0 0 0 0 0 0 0 0 0 0 0 0 0 0 0 2 0 0 0 1 17 53 45 44 17 0
2 43 55 49 73 64 75 62 57 51 41 39 15 14 24 13 1 0 0 0 0 0 0 0 0 0 0 0 0 0 0 0 0 0 0 0 1 0 0 3 3 31 10 7 0 8 30
0 0 0 47 48 0 0 66 65 52 33 38 50 14 16 8 19 13 53 13 3 64 0 0 0 0 0 0 0 0 0 0 0 0 0 0 0 0 0 2 2 32 8 41 62 79 72
0 0 0 40 50 0 0 0 0 58 51 21 23 38 7 65 42 0 36 77 239 57 0 0 0 0 0 0 0 0 0 0 0 0 0 0 0 0 0 4 2 16 1 38 68 71 136
0 0 0 0 0 44 0 0 0 0 72 40 26 47 15 78 45 0 38 109 84 0 0 0 0 0 0 0 0 0 0 0 0 0 0 0 2 0 0 15 0 4 28 92 103 214 150
0 0 0 0 56 0 7 54 0 0 5 55 39 49 16 52 81 23 73 152 0 0 0 0 0 0 0 0 0 0 0 0 0 0 0 0 0 0 0 1 22 2 21 67 33 138 231
0 0 0 0 46 0 0 0 52 0 53 60 45 61 45 3 96 53 43 85 0 0 0 0 0 2 0 0 0 0 0 0 0 0 0 0 5 4 1 2 8 27 57 4 65 77 155
0 0 0 0 0 0 0 0 63 71 57 51 48 65 0 33 123 130 32 44 16 0 0 0 0 0 0 0 0 0 0 0 0 0 0 9 40 12 1 6 15 3 44 66 94 118 130
0 0 0 0 0 0 18 52 60 64 63 45 20 0 17 85 193 140 0 0 0 0 0 0 2 25 0 0 0 0 0 0 0 0 0 15 20 42 27 5 18 11 30 26 58 156 173
0 0 0 0 65 72 71 61 56 65 58 0 0 0 95 103 6 0 0 2 0 0 0 13 18 75 2 11 27 0 0 0 0 0 0 1 31 40 31 7 2 28 34 62 207 150 225
0 0 0 51 64 55 47 61 54 48 55 0 0 0 191 190 0 0 0 0 0 0 3 0 8 42 118 39 0 29 5 0 0 0 0 25 43 44 82 31 20 12 47 59 52 153 54
0 0 0 0 61 60 1 49 61 41 50 0 0 0 43 119 42 0 0 0 0 0 14 9 5 79 45 72 77 28 31 10 0 0 1 29 12 0 12 0 16 11 3 48 81 285 169
0 56 67 55 0 65 57 12 74 69 34 0 0 0 0 0 8 24 4 0 0 0 1 35 31 88 92 69 56 72 45 11 4 4 10 35 83 23 0 8 27 17 11 21 70 71 134
41 30 39 64 67 75 83 72 72 99 5 0 0 0 136 1 0 1 19 0 0 0 8 67 83 72 17 141 141 87 72 45 16 15 22 63 43 32 15 8 9 14 8 21 40 53 55
39 57 62 60 76 91 94 75 82 25 31 0 0 11 131 40 0 131 79 0 0 6 54 57 55 135 81 9 154 67 0 0 11 32 48 53 97 105 38 12 16 29 9 18 12 11 13
0 63 75 93 81 98 102 79 90 96 76 0 0 23 329 85 109 39 0 0 0 9 19 28 103 164 121 77 30 32 45 0 7 0 74 111 97 175 144 63 0 0 1 5 1 1 6
96 107 98 152 125 96 110 101 86 74 97 0 1 176 206 271 45 20 35 54 37 34 118 158 107 75 139 157 91 10 2 1 0 0 0 112 190 200 176 32 2 0 2 11 9 4 11
227 281 276 265 184 98 93 81 96 39 62 0 68 191 335 355 139 38 58 62 86 124 164 215 251 377 426 268 109 0 0 0 0 0 1 27 253 266 135 0 0 0 7 28 15 14 6
119 186 240 260 236 200 103 92 63 0 0 0 92 170 271 84 150 105 59 70 38 111 248 167 303 331 274 355 404 23 0 2 0 0 0 31 76 197 200 95 12 0 38 85 74 91 92
46 20 107 87 171 124 97 69 11 28 15 0 95 473 283 105 108 73 124 110 75 183 354 197 311 234 383 229 103 12 176 95 0 0 22 61 117 159 184 147 72 1 15 68 83 100 110
35 5 48 72 63 66 64 34 18 56 1 0 62 120 86 220 62 117 139 164 147 144 246 356 83 161 112 94 172 18 316 403 0 48 41 1 137 181 163 94 147 117 93 92 63 117 169

GFSGBSN_con_mucape_036.txt.gz
CAPE
19 7 13 5 7 3 29 28 33 23 9 9 3 13 12 3 0 0 0 0 0 0 0 0 0 0 0 0 0 0 0 0 0 0 0 0 0 0 0 2 0 0 0 2 0 0 4
18 19 19 15 10 5 0 5 39 26 24 24 6 3 8 17 7 3 0 0 0 0 0 1 0 0 0 0 0 0 0 0 0 0 0 0 0 0 0 0 0 0 0 0 0 0 24
23 25 28 30 38 32 11 15 12 35 25 23 26 7 18 16 15 7 0 0 0 0 0 0 0 0 0 0 0 0 0 0 0 0 0 0 0 0 0 0 0 0 0 0 0 0 27
17 26 31 35 33 28 34 30 28 21 31 37 26 25 17 6 13 10 0 0 0 0 0 1 0 0 0 0 0 0 0 0 0 0 0 0 0 0 0 0 0 0 0 0 6 14 7
20 26 25 39 41 35 34 34 29 29 33 32 39 23 22 16 7 12 3 0 0 0 1 0 0 0 0 0 0 0 0 0 0 0 0 0 0 0 0 0 0 0 0 1 13 26 113
24 30 43 42 39 41 42 40 41 39 34 41 44 42 23 18 19 12 1 0 0 0 0 0 0 0 0 0 0 0 0 0 0 0 0 0 0 0 0 0 0 1 3 15 51 29 55
40 43 46 67 61 62 30 46 41 36 43 36 50 36 36 22 20 13 0 0 0 1 0 0 0 0 0 0 0 0 0 0 0 0 0 0 0 0 0 0 0 0 1 15 13 20 19
72 48 49 70 79 72 50 65 53 45 33 35 48 30 28 32 20 16 2 0 0 0 0 0 0 0 0 0 0 0 0 0 0 0 0 0 0 0 0 0 0 0 0 3 15 0 0
60 63 43 46 53 62 56 72 60 60 52 34 34 37 22 34 21 0 0 0 0 12 1 0 0 0 0 0 0 0 0 0 0 0 0 0 0 2 0 0 0 0 0 0 29 3 0
58 60 66 51 59 66 65 74 68 72 58 47 24 32 5 19 0 0 0 0 0 3 0 0 0 0 0 0 0 0 0 0 0 0 0 0 0 0 0 0 0 0 0 1 38 12 1
56 54 55 61 71 64 65 76 82 84 33 66 39 40 3 8 17 7 53 1 90 68 0 0 0 0 0 0 0 0 0 0 0 0 0 0 0 0 0 0 0 0 0 6 31 4 35
60 70 70 63 63 0 50 63 0 46 85 81 55 60 24 8 36 0 21 58 152 13 0 0 0 0 0 0 0 0 0 0 0 0 0 0 0 0 0 0 0 1 2 13 27 26 56
0 0 14 7 0 0 0 53 2 55 0 89 76 57 53 6 31 13 42 137 69 0 0 0 0 0 0 0 0 0 0 0 0 0 0 0 0 0 0 0 3 4 15 29 13 46 95
0 0 0 0 0 0 0 0 0 24 62 74 78 51 33 17 14 65 44 98 0 0 0 0 0 1 0 0 0 0 0 0 0 0 0 0 0 0 0 0 5 1 2 51 0 115 90
0 0 0 0 0 0 0 65 0 0 43 58 55 0 0 68 14 74 51 0 0 0 0 0 0 12 30 0 0 0 0 0 0 0 0 0 0 0 0 0 0 21 2 7 49 124 57
0 0 0 0 0 0 0 0 66 67 36 52 0 0 0 76 21 141 32 0 0 0 0 0 0 0 2 19 0 0 0 0 0 0 0 0 0 0 5 1 0 0 1 76 75 93 26
0 0 0 0 0 0 0 0 70 77 69 48 0 0 50 55 147 77 0 0 0 0 0 0 0 0 0 9 20 10 0 0 0 0 0 0 18 1 10 2 1 1 0 7 84 123 158
0 0 0 0 0 0 0 0 69 77 59 55 0 0 32 103 0 0 0 0 0 0 0 0 0 0 0 1 17 64 6 0 0 1 0 0 7 0 0 4 0 1 25 10 66 76 160
0 0 0 0 0 0 0 0 57 68 63 4 0 0 54 74 0 0 0 0 0 0 0 0 0 7 8 13 46 11 19 41 16 15 0 0 0 0 0 0 16 1 0 8 89 142 184
0 0 0 0 56 38 47 60 70 61 76 0 0 0 0 26 0 0 0 0 0 0 0 0 0 1 23 24 12 18 0 13 108 0 0 59 17 0 0 2 13 28 3 32 104 134 100
0 0 0 0 77 70 65 49 62 38 60 0 0 0 0 0 0 0 0 0 0 0 0 0 3 1 35 5 14 14 22 3 11 20 0 75 0 0 8 21 23 25 2 2 23 79 122
0 1 1 1 1 95 75 65 73 8 71 0 0 0 0 0 0 0 0 0 0 0 0 0 0 0 0 9 118 23 4 1 42 30 9 73 0 1 0 46 9 18 1 17 8 2 12
67 59 53 52 59 78 86 70 75 61 0 0 0 0 58 0 0 0 0 0 0 2 17 1 0 0 29 8 183 79 87 36 13 5 79 70 68 46 1 77 12 0 1 17 35 8 32
0 0 0 0 0 75 72 75 74 80 44 4 0 0 0 56 91 0 0 0 0 6 20 12 32 17 1 386 288 126 53 7 1 7 25 18 84 100 0 97 0 0 0 0 4 0 8
0 0 55 71 76 65 60 68 69 87 90 3 0 1 0 90 56 41 6 34 14 44 68 51 16 9 201 358 77 85 12 0 0 25 24 3 20 129 0 0 10 0 0 1 22 0 8
51 58 66 78 84 89 44 56 72 91 121 86 0 0 82 42 174 0 54 79 72 66 81 57 3 45 304 166 188 2 0 0 0 0 20 6 8 110 127 0 0 6 0 1 26 22 4
46 50 47 61 64 147 102 50 66 88 123 120 0 0 157 107 154 159 117 57 74 62 168 134 123 212 259 27 1 128 23 0 0 0 0 2 28 79 44 53 36 1 8 42 45 62 87
33 5 25 68 182 138 63 79 66 81 120 89 2 31 145 71 302 99 77 116 121 170 193 95 275 185 377 157 148 138 141 1 0 0 0 0 0 124 117 0 0 14 50 82 139 432 233
1 7 25 22 8 79 80 78 72 76 71 50 54 69 388 169 113 128 221 149 202 112 287 340 143 77 69 101 275 245 582 415 141 0 33 0 0 107 30 110 189 6 46 202 356 382 309

GFSGBSN_con_mucape_039.txt.gz
CAPE
0 0 0 0 15 0 0 17 16 31 23 14 6 4 5 5 15 18 14 0 0 0 0 3 5 4 0 0 0 0 0 0 0 0 0 0 0 0 0 0 0 0 0 0 0 0 0
0 1 19 13 6 11 0 0 22 12 23 20 22 11 0 5 6 9 14 5 0 0 0 0 6 0 0 0 0 0 0 0 0 0 0 0 0 0 0 0 0 0 0 0 0 0 1
0 0 0 37 35 25 14 28 38 28 21 0 23 23 21 1 0 6 10 5 0 0 0 1 5 2 0 0 0 0 0 0 0 0 0 0 0 0 0 0 0 0 0 0 0 0 13
20 23 19 33 7 38 30 27 28 32 26 29 23 22 20 19 15 10 3 1 0 0 0 0 6 0 0 0 0 0 0 0 0 0 0 0 0 0 0 0 0 0 0 0 0 20 7
23 24 23 43 45 40 41 37 33 34 36 30 38 25 21 16 14 12 4 0 0 0 0 0 1 0 0 0 0 0 0 0 0 0 0 0 0 0 0 0 0 0 0 0 0 9 0
25 27 42 52 52 53 52 50 53 40 38 36 31 37 24 22 16 10 2 0 0 0 0 0 2 0 0 0 0 0 0 0 0 0 0 0 0 0 0 0 0 0 0 0 6 12 27
46 41 46 62 72 72 47 57 54 43 45 47 45 38 34 9 23 18 0 0 0 0 0 0 0 0 0 0 0 0 0 0 0 0 0 0 0 0 0 0 0 0 0 0 3 4 23
37 39 49 51 58 56 46 66 64 57 52 52 39 42 42 21 21 14 0 0 0 1 0 0 0 0 0 0 0 0 0 0 0 0 0 0 0 0 0 0 0 0 0 0 0 11 14
60 36 46 51 50 56 51 66 60 59 60 63 59 54 55 21 6 2 0 0 0 0 0 0 0 0 0 0 0 0 0 0 0 0 0 0 0 0 0 0 0 0 0 0 0 4 11
68 61 56 56 51 63 69 69 69 68 63 59 66 58 55 13 0 0 0 1 0 1 0 0 0 0 0 0 0 0 0 0 0 0 0 0 0 0 0 0 0 0 0 0 0 4 0
68 59 69 74 66 64 58 59 67 73 68 61 60 67 63 38 0 0 30 0 32 15 0 0 0 0 0 0 0 0 0 0 0 0 0 0 0 0 0 0 0 0 0 2 0 0 0
54 53 58 72 57 54 61 54 65 75 74 73 77 76 59 23 0 0 45 68 51 15 0 0 0 0 0 0 0 0 0 0 0 0 0 0 0 0 0 0 0 0 0 0 0 0 0
53 54 62 67 61 74 67 61 71 69 65 70 65 78 42 0 0 6 17 69 10 0 0 0 0 0 0 0 0 0 0 0 0 0 0 0 0 0 0 0 0 0 0 0 0 0 0
58 55 64 67 81 0 5 74 71 67 67 60 53 52 45 0 0 11 9 38 0 0 0 0 0 0 0 0 0 0 0 0 0 0 0 0 0 0 0 0 0 0 0 0 0 0 0
61 60 59 59 0 0 0 0 78 74 61 44 41 29 0 0 0 12 28 0 0 0 0 0 0 0 0 4 0 0 0 0 0 0 0 0 0 0 0 0 0 0 0 0 0 56 24
64 65 58 0 0 0 0 0 0 81 64 51 38 0 0 9 7 16 16 0 0 0 0 0 0 0 0 8 4 3 0 0 0 0 0 0 0 0 0 0 0 0 0 0 0 0 0
67 75 0 0 0 0 0 0 0 85 62 49 0 0 0 0 44 0 0 0 0 0 0 0 0 0 2 0 0 5 1 0 0 0 0 0 0 0 0 0 0 0 0 0 2 0 0
56 0 0 0 0 0 0 0 0 28 54 53 0 0 0 0 0 0 0 0 0 0 0 0 0 0 0 7 3 15 3 1 11 0 0 0 0 0 0 0 1 0 0 0 0 0 4
0 0 0 0 0 0 0 0 0 0 81 44 0 0 15 0 0 0 0 0 0 0 0 0 0 0 0 0 33 68 51 2 13 20 0 0 0 0 0 0 0 0 0 0 0 0 0
0 0 0 0 0 0 0 0 0 28 74 0 0 0 0 0 0 0 0 0 0 0 0 0 0 0 0 0 2 50 45 40 33 28 8 16 0 0 0 0 0 0 0 0 0 0 0
0 0 0 0 0 0 0 52 60 71 64 7 0 0 0 0 0 0 0 0 0 0 0 0 0 0 0 0 1 12 26 7 20 7 0 29 0 0 0 0 0 0 0 0 0 0 0
0 0 0 1 2 99 83 55 57 53 57 0 0 0 0 0 0 0 0 0 0 0 0 0 0 0 0 0 0 0 77 43 19 1 0 6 6 0 0 0 0 5 0 0 0 0 14
0 0 69 93 71 82 86 82 64 56 9 0 0 1 0 0 0 0 0 0 0 0 0 0 0 0 0 0 2 200 144 90 55 0 0 1 0 0 0 0 0 0 0 0 0 0 0
0 82 74 75 77 77 78 74 69 69 56 0 0 0 0 0 0 0 0 0 0 0 0 0 0 0 0 47 232 190 75 66 59 19 0 0 4 0 0 0 0 0 0 0 0 0 0
68 70 75 73 14 15 13 51 55 51 71 0 0 3 0 0 0 0 0 0 0 0 0 0 0 0 0 14 81 49 18 32 5 1 44 0 1 0 19 0 0 0 0 0 0 0 0
0 0 7 56 64 61 5 74 71 62 55 14 0 0 0 5 10 0 0 0 0 0 0 0 0 0 0 0 41 5 0 19 0 1 0 0 0 0 0 2 0 0 0 0 0 0 0
65 70 60 58 57 56 51 48 69 54 83 58 0 0 0 0 0 0 0 1 0 0 0 0 0 0 2 0 10 0 29 30 0 1 0 0 0 0 2 26 1 0 0 8 6 0 6
49 48 44 41 45 60 72 75 73 62 59 73 30 0 0 0 11 35 71 41 0 2 0 0 12 21 17 3 2 32 42 18 6 14 0 0 0 0 9 45 0 18 13 25 0 0 7
45 39 22 28 38 38 44 57 107 98 41 73 0 0 0 79 63 41 16 107 25 0 1 14 0 23 5 0 0 1 34 11 0 1 147 0 0 0 0 4 20 17 10 10 26 59 69

GFSGBSN_con_mucape_042.txt.gz
CAPE
15 0 0 0 0 4 0 0 0 21 23 18 15 22 23 17 7 4 6 9 8 7 0 0 0 2 0 0 0 0 0 0 0 0 0 0 0 0 0 0 0 0 0 0 0 0 212
18 11 6 0 0 0 1 0 0 0 28 44 29 22 17 16 17 11 11 4 0 1 0 0 0 14 0 0 0 0 0 0 0 0 0 0 0 0 0 0 0 0 0 0 0 0 119
17 21 18 18 0 0 0 0 3 38 0 50 48 46 2 15 19 10 5 3 0 0 0 0 0 16 0 0 0 0 0 0 0 0 0 0 0 0 0 0 0 0 0 0 0 0 0
20 23 26 31 39 32 19 0 9 5 21 49 49 38 31 15 9 6 0 0 0 0 0 0 0 5 0 0 0 0 0 0 0 0 0 0 0 0 0 0 0 0 0 0 0 0 0
21 27 25 39 46 47 40 45 53 57 62 64 55 38 29 29 9 1 0 0 0 0 0 0 0 0 0 0 0 0 0 0 0 0 0 0 0 0 0 0 0 0 0 0 0 0 0
31 29 33 41 52 57 66 60 52 52 60 63 58 49 42 37 13 0 0 0 0 0 0 0 2 0 0 0 0 0 0 0 0 0 0 0 0 0 0 0 0 0 0 0 0 2 6
36 36 31 30 45 37 37 51 67 63 60 57 65 51 42 41 10 0 0 0 0 0 0 0 0 0 0 0 0 0 0 0 0 0 0 0 0 0 0 0 0 0 0 0 0 0 27
23 31 34 35 33 47 47 54 58 57 57 63 61 63 52 38 0 0 0 0 0 0 0 0 0 0 0 0 0 0 0 0 0 0 0 0 0 0 0 0 0 0 0 0 0 12 24
28 34 31 35 39 42 49 64 58 57 64 64 66 62 55 25 0 0 0 0 1 11 0 0 0 0 0 0 0 0 0 0 0 0 0 0 0 0 0 0 0 0 0 0 0 0 11
41 64 38 28 37 46 50 47 65 59 58 65 65 48 35 1 0 0 0 0 6 21 0 0 0 0 0 0 0 0 0 0 0 0 0 0 0 0 0 0 0 0 0 0 0 0 0
44 59 35 30 37 58 65 68 67 68 60 60 58 60 40 0 0 0 1 0 18 17 0 0 0 0 0 0 0 0 0 0 0 0 0 0 0 0 0 0 0 0 0 0 0 0 0
39 36 26 29 46 57 60 63 65 68 61 54 53 59 65 0 0 0 0 0 36 0 0 0 0 0 0 0 0 0 0 0 0 0 0 0 0 0 0 0 0 0 0 0 0 0 0
44 31 26 42 44 56 72 74 54 64 67 59 50 54 36 0 0 0 1 13 0 0 0 0 0 0 0 0 0 0 0 0 0 0 0 0 0 0 0 0 0 0 0 0 0 0 0
38 28 30 48 57 72 68 64 58 74 64 52 47 42 34 0 0 0 2 45 0 0 0 0 0 0 0 0 0 0 0 0 0 0 0 0 0 0 0 0 0 0 0 0 0 0 0
24 28 45 60 55 75 75 75 86 78 60 46 42 3 0 0 0 12 0 0 0 0 0 0 0 0 0 0 0 0 0 0 0 0 0 0 0 0 0 0 0 0 0 0 0 0 0
24 31 47 55 62 79 81 71 0 81 70 49 38 0 0 2 8 0 0 0 0 0 0 0 0 0 0 0 0 0 0 0 0 0 0 0 0 0 0 0 0 0 0 0 0 0 0
38 42 55 57 62 68 69 0 0 90 78 58 0 0 0 0 0 0 0 0 0 0 0 0 0 0 0 4 7 0 0 0 0 0 0 0 0 0 0 0 0 0 0 0 0 0 0
58 56 57 70 74 69 2 0 0 0 84 11 0 0 0 0 0 0 0 0 0 0 0 0 0 0 0 8 6 2 0 0 11 2 2 7 0 0 0 0 0 0 0 0 0 0 0
65 64 62 71 70 0 0 0 0 0 62 0 0 0 0 0 0 0 0 0 0 0 0 0 0 0 0 1 3 9 20 58 7 9 8 14 0 0 0 0 0 0 0 0 0 0 0
66 61 73 49 0 0 0 0 0 0 0 0 0 0 0 0 0 0 0 0 0 0 0 0 0 0 0 0 0 2 28 29 21 20 12 39 6 1 0 0 0 0 0 0 0 0 0
63 69 9 0 0 0 0 0 0 0 0 3 0 0 0 0 0 0 0 0 0 0 0 0 0 0 0 0 0 0 0 37 106 26 40 49 6 3 0 0 0 0 0 0 0 0 0
63 0 0 0 0 0 0 0 0 0 57 0 0 0 0 0 0 0 0 0 0 0 0 0 0 0 0 0 0 0 0 0 41 38 0 0 13 12 0 0 0 0 0 0 0 0 0
0 0 0 0 0 8 67 93 87 91 76 0 0 0 0 0 0 0 0 0 0 0 0 0 0 0 0 0 0 4 62 51 32 23 5 2 0 14 0 0 0 0 0 0 0 0 0
0 0 0 0 112 103 84 75 57 63 81 4 0 0 0 0 0 0 0 0 0 0 0 0 0 0 0 0 14 39 45 97 101 28 15 8 0 1 0 0 0 0 0 0 0 0 0
0 0 19 106 107 98 80 69 52 58 55 0 0 0 0 0 0 0 0 0 0 0 0 0 0 0 3 0 2 9 1 0 0 33 31 28 0 0 0 0 0 0 0 0 0 0 0
7 85 78 74 81 77 65 61 64 53 67 13 0 0 0 0 0 0 0 0 0 0 0 0 0 0 8 0 0 0 0 0 11 13 65 60 62 3 0 11 11 0 0 0 0 0 0
42 0 0 0 0 76 75 72 65 68 80 52 33 0 0 0 0 0 0 0 0 0 0 0 0 0 1 0 0 0 0 5 10 4 42 47 48 0 0 0 0 0 0 0 0 0 0
0 0 15 62 72 75 66 73 80 78 88 74 0 5 0 0 0 0 0 0 0 0 0 0 0 1 2 0 0 0 0 0 15 3 0 0 0 0 0 0 0 0 11 0 0 0 12
41 45 39 43 54 48 63 60 72 78 85 97 0 0 45 0 0 5 0 0 3 0 0 0 0 0 6 0 0 0 0 23 0 4 0 1 0 0 0 0 13 1 10 0 0 4 38

GFSGBSN_con_mucape_045.txt.gz
CAPE
0 22 21 22 22 0 0 0 1 29 0 0 0 0 0 0 0 21 12 0 5 0 0 0 0 1 0 0 0 0 0 0 0 0 0 0 0 0 0 0 0 0 0 0 0 0 0
22 25 22 17 15 9 2 0 0 0 6 0 0 0 8 9 5 18 6 0 5 0 0 0 0 3 0 0 0 0 0 0 0 0 0 0 0 0 0 0 0 0 0 0 0 0 139
23 25 20 33 33 20 11 17 19 0 0 1 12 0 0 23 21 26 0 0 0 0 0 0 0 1 0 0 0 0 0 0 0 0 0 0 0 0 0 0 0 0 0 0 0 0 31
20 21 22 28 34 34 34 46 43 29 8 31 0 12 0 4 30 10 0 0 0 0 0 0 0 0 0 0 0 0 0 0 0 0 0 0 0 0 0 0 0 0 0 0 0 0 0
6 20 22 35 41 41 42 51 65 49 50 38 44 30 30 21 17 2 0 0 0 0 0 0 0 0 0 0 0 0 0 0 0 0 0 0 0 0 0 0 0 0 0 0 0 0 0
12 25 34 33 32 39 31 52 61 57 56 56 49 44 46 29 10 0 0 0 0 0 0 0 10 0 0 0 0 0 0 0 0 0 0 0 0 0 0 0 0 0 0 0 0 0 0
6 21 15 27 29 33 23 38 60 55 52 56 58 53 45 36 17 0 0 0 0 0 0 0 0 0 0 0 0 0 0 0 0 0 0 0 0 0 0 0 0 0 0 0 0 0 0
6 14 24 35 36 35 35 44 57 52 51 52 59 61 49 24 13 0 0 0 0 2 0 0 0 0 0 0 0 0 0 0 0 0 0 0 0 0 0 0 0 0 0 0 0 0 0
37 32 31 39 37 29 27 40 52 51 56 49 62 73 52 24 3 0 0 1 5 5 0 0 0 0 0 0 0 0 0 0 0 0 0 0 0 0 0 0 0 0 0 0 0 0 0
47 32 45 35 33 30 27 26 22 56 55 58 56 71 39 7 0 0 0 0 6 13 0 0 0 0 0 0 0 0 0 0 0 0 0 0 0 0 0 0 0 0 0 0 0 0 0
49 40 37 47 34 34 39 28 33 31 63 66 66 59 40 2 0 0 0 5 17 21 0 0 0 0 0 0 0 0 0 0 0 0 0 0 0 0 0 0 0 0 0 0 0 0 0
46 32 30 36 29 48 46 39 52 53 54 56 59 64 37 0 0 0 0 0 16 0 10 0 0 0 0 0 0 0 0 0 0 0 0 0 0 0 0 0 0 0 0 0 0 0 0
45 49 46 26 36 44 50 54 49 45 55 49 63 64 39 0 0 0 0 7 0 0 0 0 0 0 0 0 0 0 0 0 0 0 0 0 0 0 0 0 0 0 0 0 0 0 0
53 45 39 19 28 51 62 54 65 48 45 56 61 56 23 0 0 0 0 1 0 0 0 0 0 0 0 0 0 0 0 0 0 0 0 0 0 0 0 0 0 0 0 0 0 0 0
44 46 37 33 33 51 67 58 68 62 55 50 69 12 16 0 0 0 0 0 0 0 0 0 0 0 0 0 0 0 0 0 0 0 0 0 0 0 0 0 0 0 0 0 0 0 0
60 44 28 38 42 64 66 57 79 80 68 59 0 45 0 0 16 0 0 0 0 0 0 0 0 0 0 0 0 0 0 0 0 0 0 0 0 0 0 0 0 0 0 0 0 0 0
56 43 30 33 52 60 64 70 84 69 69 64 0 0 0 6 7 0 0 0 0 0 0 0 0 0 0 2 0 0 0 0 0 0 0 0 0 0 0 0 0 0 0 0 0 0 0
60 34 26 36 35 57 59 82 85 63 65 13 0 0 0 6 0 0 0 0 0 0 0 0 0 0 0 6 2 0 0 0 1 0 0 0 0 0 0 0 0 0 0 0 0 0 0
75 31 27 38 64 60 73 87 95 71 95 0 0 0 0 0 0 0 0 0 0 0 0 0 0 0 0 0 0 8 18 20 26 3 8 4 6 0 0 0 0 0 0 0 0 0 0
50 45 34 40 62 68 78 82 84 107 110 0 0 0 0 0 0 0 0 0 0 0 0 0 0 0 0 0 0 0 14 25 82 22 45 5 24 10 0 0 0 0 0 0 0 0 0
59 59 63 71 60 72 78 80 0 108 84 0 0 0 0 0 0 0 0 0 0 0 0 0 0 0 0 0 0 0 0 1 68 83 70 0 1 0 2 10 0 0 0 0 0 0 0
59 58 65 56 69 71 76 0 0 103 69 0 0 0 0 0 0 0 0 0 0 0 0 0 0 0 0 0 0 0 0 0 4 27 0 43 1 2 0 8 6 0 0 0 0 0 0
65 64 65 68 72 43 0 0 0 27 58 0 0 0 0 0 0 0 0 0 0 0 0 0 0 0 0 0 0 0 0 0 0 42 13 5 0 0 0 8 10 0 0 0 0 0 0
79 82 80 75 0 0 0 0 0 97 55 0 0 0 0 0 0 0 0 0 0 0 0 0 0 0 0 0 0 29 72 72 57 66 51 25 29 17 0 17 28 0 0 0 0 0 0
83 79 16 0 0 0 0 60 93 72 70 0 0 0 0 0 0 0 0 0 0 0 0 0 0 0 0 0 0 0 0 3 16 44 33 44 7 0 0 0 0 0 0 0 1 0 0
0 0 0 6 97 74 52 52 58 55 65 7 43 0 0 0 0 0 0 0 0 0 0 0 0 0 0 0 0 0 0 0 0 32 49 25 31 22 0 0 0 0 0 0 8 0 0
0 0 0 66 75 84 84 80 83 87 81 0 0 0 0 0 0 0 0 0 0 0 0 0 0 0 0 0 0 0 0 0 0 0 15 4 35 3 4 0 0 0 0 2 0 0 0
53 64 66 65 26 25 28 77 68 78 81 11 0 0 0 0 0 26 0 0 0 0 0 0 0 0 0 0 0 0 0 0 0 0 0 0 1 0 4 1 0 0 0 0 0 0 0
0 0 0 41 48 39 0 69 85 83 81 91 0 0 1 0 0 0 0 10 9 4 0 0 0 0 0 0 0 0 0 0 0 0 0 0 0 0 0 0 0 104 8 2 0 0 0

GFSGBSN_con_mucape_048.txt.gz
CAPE
21 21 14 10 0 23 21 16 11 19 0 0 0 0 0 0 0 0 0 0 0 0 1 0 0 2 0 0 0 0 0 0 0 0 0 0 0 0 0 0 0 0 0 0 0 0 0
7 21 24 27 26 25 25 19 15 36 18 0 0 0 1 0 0 0 0 0 0 0 0 0 0 5 0 0 0 0 0 0 0 0 0 0 0 0 0 0 0 0 0 0 0 0 14
13 7 11 21 28 22 22 26 25 40 43 27 37 0 0 0 0 0 0 0 0 0 0 0 1 0 0 0 0 0 0 0 0 0 0 0 0 0 0 0 0 0 0 0 0 0 0
28 21 25 36 44 50 39 37 35 30 44 31 34 57 21 15 1 0 0 0 0 0 0 0 2 0 0 0 0 0 0 0 0 0 0 0 0 0 0 0 0 0 0 0 0 0 0
29 16 15 36 43 36 46 50 62 56 45 55 53 54 45 36 25 0 0 1 0 0 0 10 1 1 0 0 0 0 0 0 0 0 0 0 0 0 0 0 0 0 0 0 0 0 0
19 30 28 20 20 26 25 41 49 64 59 49 46 53 39 33 32 22 5 0 0 0 0 0 7 0 0 0 0 0 0 0 0 0 0 0 0 0 0 0 0 0 0 0 0 0 0
21 31 26 17 24 37 38 30 50 53 48 43 41 48 43 38 43 29 0 0 0 0 0 0 0 0 0 0 0 0 0 0 0 0 0 0 0 0 0 0 0 0 0 0 0 0 0
35 38 21 18 18 37 28 25 38 46 44 37 44 51 39 43 51 26 0 0 0 2 0 0 0 0 0 0 0 0 0 0 0 0 0 0 0 0 0 0 0 0 0 0 0 0 0
26 37 43 20 29 32 29 24 23 32 27 47 45 53 33 38 20 0 0 1 6 6 0 0 0 0 0 0 0 0 0 0 0 0 0 0 0 0 0 0 0 0 0 0 0 0 0
37 40 40 40 25 52 29 24 13 4 25 38 39 57 33 25 0 0 0 2 11 5 0 0 0 0 0 0 0 0 0 0 0 0 0 0 0 0 0 0 0 0 0 0 0 0 0
43 37 46 39 32 43 33 21 19 15 20 49 38 58 42 42 0 0 0 1 5 18 0 0 0 0 0 0 0 0 0 0 0 0 0 0 0 0 0 0 0 0 0 0 0 0 0
36 38 49 29 33 43 29 24 31 21 23 53 59 52 70 4 6 0 0 0 8 0 0 0 0 0 0 0 0 0 0 0 0 0 0 0 0 0 0 0 0 0 0 0 0 0 0
41 50 47 44 49 23 24 26 47 31 22 47 61 55 52 10 0 0 0 0 0 0 0 0 0 0 0 0 0 0 0 0 0 0 0 0 0 0 0 0 0 0 0 0 0 0 0
47 52 50 42 49 25 29 30 56 55 23 53 53 51 8 20 2 0 0 0 0 0 0 0 0 0 0 0 0 0 0 0 0 0 0 0 0 0 0 0 0 0 0 0 0 0 0
0 37 44 49 51 49 44 27 55 46 43 57 63 10 24 5 8 0 0 0 0 0 0 0 0 0 0 0 0 0 0 0 0 0 0 0 0 0 0 0 0 0 0 0 0 0 0
32 44 48 63 58 50 37 27 33 28 45 74 29 44 8 16 18 0 0 0 0 0 0 0 0 0 0 0 0 0 0 0 0 0 0 0 0 0 0 0 0 0 0 0 0 0 0
36 48 53 69 59 49 30 27 28 33 46 78 41 50 42 15 25 4 0 0 0 0 5 0 0 0 0 0 0 0 0 3 0 0 0 0 0 0 0 0 0 0 0 0 0 0 0
53 55 49 56 50 39 33 35 35 38 99 61 52 2 31 41 18 0 0 0 0 0 0 0 0 0 0 0 0 0 1 2 13 4 0 0 0 0 0 0 0 0 0 0 0 0 0
57 66 52 50 56 40 37 46 38 85 86 54 8 13 62 61 5 0 0 0 0 0 0 0 0 0 0 0 0 0 13 27 3 7 7 0 0 0 0 0 0 0 0 0 0 0 0
61 58 52 47 59 40 40 51 45 82 100 59 6 0 38 41 10 0 0 0 0 0 0 0 0 0 0 0 0 0 2 3 6 16 2 4 2 0 0 0 0 0 0 0 0 0 0
80 69 92 58 54 37 43 43 51 106 105 34 1 0 35 0 2 0 0 0 0 0 0 0 0 0 0 0 0 0 0 2 0 45 0 1 2 0 0 1 0 0 0 0 0 0 0
74 89 73 46 44 46 48 58 82 106 101 3 0 0 0 36 0 0 0 0 0 0 0 0 0 0 0 0 0 0 0 0 0 0 0 0 0 0 0 2 0 0 0 0 0 0 0
77 61 65 78 83 45 56 75 93 101 81 0 0 0 0 0 0 0 0 0 0 0 0 0 0 0 0 0 0 0 0 0 0 0 0 0 0 0 0 0 2 0 0 0 0 0 0
51 65 61 70 70 53 84 93 93 94 87 0 0 0 0 0 0 0 0 0 0 0 0 0 0 0 0 0 0 0 0 0 0 0 0 11 25 0 0 0 0 0 0 0 0 0 0
109 104 89 93 101 110 98 85 79 95 102 0 0 0 0 0 0 0 0 0 0 0 0 0 0 0 0 0 0 0 0 1 0 0 0 2 31 31 0 0 0 0 0 0 0 0 0
104 99 94 85 85 77 75 73 106 103 102 8 0 16 0 0 0 0 0 0 0 0 0 0 0 0 0 0 0 0 0 0 0 0 1 10 39 31 0 0 0 0 0 0 0 0 0
74 70 74 92 51 49 0 64 81 80 79 9 0 0 29 0 0 0 0 0 0 0 0 0 0 0 0 0 0 0 0 0 0 0 0 19 24 4 0 0 0 0 0 0 1 0 0
34 61 60 36 0 8 67 59 48 17 19 3 0 0 0 0 0 5 0 0 0 0 0 0 0 0 0 0 0 0 0 0 0 0 0 0 0 0 0 0 0 0 2 0 13 0 0
57 58 65 64 64 64 64 61 66 52 0 0 0 1 0 0 0 0 21 11 19 4 0 0 0 0 0 0 0 0 0 0 0 0 0 0 0 0 0 0 0 3 77 157 106 0 0

GFSGBSN_con_mucape_051.txt.gz
CAPE
17 12 19 6 15 30 22 21 19 22 16 13 7 2 0 0 0 1 0 0 0 0 0 0 0 2 0 0 0 0 0 0 0 0 0 0 0 0 0 0 0 0 0 0 0 0 0
21 7 5 5 5 19 18 22 26 25 21 29 40 34 20 12 0 0 8 0 0 0 0 0 0 5 0 0 0 0 0 0 0 0 0 0 0 0 0 0 0 0 0 0 0 0 0
12 16 21 19 18 20 32 38 32 31 26 32 52 51 46 45 40 30 17 0 0 0 0 0 0 0 0 0 0 0 0 0 0 0 0 0 0 0 0 0 0 0 0 0 0 0 0
3 11 16 18 37 46 27 25 25 20 38 39 32 48 38 41 46 36 24 0 0 0 0 0 0 0 0 0 0 0 0 0 0 0 0 0 0 0 0 0 0 0 0 0 0 0 0
32 22 8 27 25 22 39 49 47 31 32 29 23 33 25 32 39 43 31 0 0 0 0 2 0 0 0 0 0 0 0 0 0 0 0 0 0 0 0 0 0 0 0 0 0 0 0
27 25 29 26 19 22 38 35 46 44 29 21 11 20 27 37 41 35 4 0 0 0 0 1 1 0 0 0 0 0 0 0 0 0 0 0 0 0 0 0 0 0 0 0 0 0 0
31 28 28 31 23 22 35 30 30 47 25 8 8 2 30 54 51 19 0 0 0 0 0 0 0 0 0 0 0 0 0 0 0 0 0 0 0 0 0 0 0 0 0 0 0 0 0
22 36 23 23 31 15 25 27 27 31 18 14 4 2 37 54 43 7 0 0 1 0 0 0 0 0 0 0 0 0 0 0 0 0 0 0 0 0 0 0 0 0 0 0 0 0 0
36 37 21 20 38 7 23 39 21 14 6 6 12 2 37 40 26 0 0 2 3 7 0 0 0 0 0 0 0 0 0 0 0 0 0 0 0 0 0 0 0 0 0 0 0 0 0
42 52 46 21 43 30 20 42 31 15 10 8 18 25 32 27 0 0 0 3 4 5 0 0 0 0 0 0 0 0 0 0 0 0 0 0 0 0 0 0 0 0 0 0 0 0 0
41 58 46 46 39 32 2 29 28 22 17 6 30 26 33 51 20 0 0 0 0 6 0 0 0 0 0 0 0 0 0 0 0 0 0 0 0 0 0 0 0 0 0 0 0 0 0
33 48 49 47 51 34 51 30 23 30 18 12 12 19 39 4 9 1 0 0 0 0 0 0 0 0 0 0 0 0 0 0 0 0 0 0 0 0 0 0 0 0 0 0 0 0 0
42 47 54 43 52 45 46 28 35 28 21 14 11 25 17 32 6 3 0 0 0 0 0 0 0 0 0 0 0 0 0 0 0 0 0 0 0 0 0 0 0 0 0 0 0 0 0
50 46 56 51 53 47 59 46 44 28 25 12 26 43 0 24 23 28 0 0 0 0 0 0 0 0 0 0 0 0 0 0 0 0 0 0 0 0 0 0 0 0 0 0 0 0 0
63 56 50 40 46 54 75 47 44 26 25 18 48 5 3 0 18 32 1 0 0 0 0 0 0 0 0 0 0 0 0 0 0 0 0 0 0 0 0 0 0 0 0 0 0 0 0
53 59 55 53 60 62 65 57 42 27 18 30 24 0 0 0 27 22 1 0 0 0 25 0 0 0 0 0 0 0 0 0 0 0 0 0 0 0 0 0 0 0 0 0 0 0 0
67 55 57 55 65 86 59 49 48 27 9 42 7 0 4 0 39 38 0 0 0 0 12 0 0 0 0 0 1 3 0 0 0 0 0 0 0 0 0 0 0 0 0 0 0 0 0
65 55 61 62 69 65 67 53 51 39 43 29 52 0 26 37 3 0 0 0 0 0 0 1 0 0 0 0 4 4 5 1 0 5 0 0 0 0 0 0 0 0 0 0 0 0 0
63 57 61 65 56 53 67 53 59 53 52 33 0 0 42 77 0 0 47 3 0 0 0 0 0 0 0 0 0 4 2 1 6 14 21 1 0 0 0 0 0 0 0 0 0 0 0
84 58 63 62 63 53 76 61 60 62 44 52 0 0 18 47 29 26 39 1 0 0 0 0 0 0 0 0 0 0 0 1 5 6 6 6 21 0 0 0 0 0 0 0 0 0 0
67 67 58 67 78 63 77 64 58 58 57 50 0 0 15 0 0 21 28 16 0 0 0 0 0 0 0 0 0 0 0 0 1 5 3 3 0 0 0 2 0 0 0 0 0 0 0
74 71 70 65 63 67 76 66 70 80 76 58 0 0 1 0 37 10 15 23 0 0 3 0 0 0 0 0 0 0 0 0 0 0 3 0 0 0 0 1 0 0 0 0 0 0 0
78 72 54 72 62 70 83 69 82 73 96 44 47 39 55 0 3 9 2 0 0 0 0 0 0 0 0 0 0 0 0 0 0 0 0 2 3 0 0 0 0 0 0 0 0 0 0
65 60 62 62 54 51 52 77 92 98 100 30 62 67 21 0 0 0 0 2 0 0 0 0 0 0 0 0 0 0 0 0 0 0 0 0 0 0 0 0 0 0 0 0 0 0 0
66 69 72 71 85 101 106 100 114 103 133 62 44 59 56 0 0 0 0 0 0 0 0 0 0 0 0 0 0 0 0 0 0 0 0 0 0 0 0 0 0 0 0 0 0 0 0
57 57 58 98 97 103 100 90 117 89 150 78 54 69 57 0 0 0 0 0 0 0 0 0 0 0 0 0 0 0 0 0 0 0 0 0 0 61 0 0 0 0 0 0 0 0 0
106 107 94 106 101 101 101 97 80 85 135 90 43 57 0 0 0 0 0 0 0 0 0 0 0 0 0 0 0 0 0 0 0 0 0 0 0 0 0 0 0 0 0 0 0 0 0
90 86 84 69 67 66 97 105 77 93 100 96 40 49 0 0 0 0 0 0 0 0 0 0 0 0 0 0 0 0 0 0 0 0 0 0 0 0 0 0 0 0 32 8 0 0 0
10 71 59 64 0 53 48 72 78 78 91 74 0 45 0 0 0 18 35 34 31 9 4 0 0 0 0 0 0 0 0 0 0 0 0 0 0 0 0 0 0 0 8 38 0 0 1

GFSGBSN_con_mucape_054.txt.gz
CAPE
14 11 13 19 14 17 17 19 25 34 26 26 25 17 20 13 5 5 14 5 0 0 0 0 0 0 0 0 0 0 0 0 0 0 0 0 0 0 0 0 0 0 0 0 0 0 0
23 22 23 20 15 7 20 30 28 31 31 34 40 40 25 17 11 8 19 7 1 0 0 0 0 0 0 0 0 0 0 0 0 0 0 0 0 0 0 0 0 0 0 0 0 0 0
14 18 24 17 18 38 47 28 22 18 30 38 45 35 30 12 1 1 5 1 0 0 0 0 0 0 0 0 0 0 0 0 0 0 0 0 0 0 0 0 0 0 0 0 0 0 0
21 16 13 19 27 30 15 23 29 28 34 28 19 24 40 24 22 13 0 0 0 0 5 1 5 0 0 0 0 0 0 0 0 0 0 0 0 0 0 0 0 0 0 0 0 0 0
12 23 16 18 28 32 24 32 35 33 27 23 17 35 37 27 15 5 0 0 0 0 0 0 0 0 0 0 0 0 0 0 0 0 0 0 0 0 0 0 0 0 0 0 0 0 0
32 25 35 23 34 18 30 32 40 21 21 23 13 25 34 34 23 5 0 0 0 0 0 2 2 0 0 0 0 0 0 0 0 0 0 0 0 0 0 0 0 0 0 0 0 0 0
38 45 35 21 32 35 24 20 31 29 25 15 8 17 24 36 15 3 0 0 0 0 0 0 0 0 0 0 0 0 0 0 0 0 0 0 0 0 0 0 0 0 0 0 0 0 0
46 35 32 38 26 34 21 18 43 27 21 11 5 19 17 14 3 1 0 0 0 0 0 0 0 0 0 0 0 0 0 0 0 0 0 0 0 0 0 0 0 0 0 0 0 0 0
27 27 56 46 28 35 35 20 26 32 20 14 10 23 18 19 0 0 3 13 0 0 0 0 0 0 0 0 0 0 0 0 0 0 0 0 0 0 0 0 0 0 0 0 0 0 0
37 39 33 55 39 30 26 18 18 27 21 19 14 26 36 5 3 7 17 0 1 0 0 0 0 0 0 0 0 0 0 0 0 0 0 0 0 0 0 0 0 0 0 0 0 0 0
54 48 33 44 40 42 66 19 21 23 20 22 21 18 39 18 41 19 11 0 0 6 0 0 0 0 0 0 0 0 0 0 0 0 0 0 0 0 0 0 0 0 0 0 0 0 0
56 46 44 35 53 58 67 57 29 20 34 27 17 13 31 23 34 6 3 3 5 0 0 0 0 0 0 0 0 0 0 0 0 0 0 0 0 0 0 0 0 0 0 0 0 0 0
52 40 56 42 51 51 55 48 39 32 29 29 19 20 26 23 31 6 2 2 0 0 0 0 0 0 0 0 0 0 0 0 0 0 0 0 0 0 0 0 0 0 0 0 0 0 0
48 49 56 38 56 60 64 50 63 52 36 33 32 34 22 15 33 53 10 3 0 0 0 0 0 0 0 0 0 0 0 0 0 0 0 0 0 0 0 0 0 0 0 0 0 0 0
56 63 58 55 46 45 49 84 80 69 37 35 46 40 26 14 32 73 7 0 0 0 0 0 0 0 0 0 0 0 0 0 0 0 0 0 0 0 0 0 0 0 0 0 0 0 0
41 50 55 57 58 58 77 82 58 47 34 35 46 0 3 13 83 115 0 0 0 0 3 0 0 0 0 0 0 0 0 0 3 0 0 0 0 0 2 2 0 0 0 0 0 0 0
67 63 55 59 61 50 41 53 49 50 19 38 52 0 2 17 106 54 0 0 0 0 0 0 0 0 0 0 3 2 2 3 4 48 0 0 0 0 0 0 0 0 0 0 0 0 0
47 47 55 70 63 33 55 60 54 52 33 50 71 0 69 118 3 0 0 0 0 0 0 0 0 0 0 0 4 4 4 0 0 4 0 0 0 0 0 0 0 5 0 0 0 0 0
54 55 67 65 68 56 69 55 68 63 62 81 0 0 93 149 0 0 0 0 5 1 0 9 17 2 5 2 0 1 3 1 7 6 20 26 0 0 0 0 0 0 0 0 0 0 0
61 66 69 59 62 66 59 56 50 55 78 126 38 0 16 107 32 18 0 0 0 2 14 19 10 13 20 24 17 0 2 2 7 10 6 5 27 0 0 0 0 0 0 0 0 0 0
58 52 52 61 61 68 61 55 70 52 91 156 15 0 19 0 0 0 19 0 0 2 13 8 9 4 14 6 30 0 0 4 1 3 19 9 0 0 0 0 0 0 0 0 0 0 0
68 76 72 69 75 76 71 59 91 38 99 151 1 0 43 0 64 18 0 0 39 16 15 19 6 28 8 15 43 20 0 0 0 4 6 20 8 2 11 0 0 0 0 0 0 0 0
70 71 63 64 71 84 81 94 77 77 139 130 70 73 87 0 6 22 10 43 6 47 29 24 29 14 22 8 36 10 0 3 1 0 2 4 59 0 0 11 1 0 0 0 0 0 0
58 70 68 73 73 71 64 114 103 88 125 127 97 87 32 0 0 13 27 23 30 16 60 36 0 2 0 0 9 0 21 0 4 3 0 0 61 55 0 0 0 0 0 0 0 0 0
51 53 64 67 73 81 102 81 49 90 84 243 162 95 107 0 0 2 35 33 27 44 9 38 0 0 0 0 0 0 54 54 17 0 0 0 29 19 0 0 0 0 0 0 0 0 0
83 53 54 79 102 109 115 106 105 112 138 199 244 166 102 0 0 30 27 35 0 0 0 0 0 0 0 0 121 0 0 25 34 21 3 3 31 77 0 0 0 0 0 0 0 0 0
67 81 81 88 93 101 116 98 100 111 131 179 102 214 127 0 1 11 0 0 0 0 0 0 0 0 0 0 0 0 0 16 5 9 8 16 33 0 0 0 0 0 0 0 45 19 0
2 62 76 85 90 101 122 124 125 134 122 191 77 192 140 0 4 62 30 0 0 0 0 4 0 0 0 0 0 0 0 0 0 31 11 0 0 5 0 0 0 0 0 3 149 22 0
61 1 76 81 88 93 95 101 105 120 123 150 143 196 228 11 13 34 28 106 35 23 10 4 41 0 6 0 0 0 0 0 0 0 38 51 10 20 8 20 29 34 98 0 0 5 9

GFSGBSN_con_mucape_057.txt.gz
CAPE
9 13 15 22 19 16 1 15 17 20 27 27 29 27 26 14 5 8 9 3 1 0 0 1 0 0 0 0 0 0 0 0 0 0 0 0 0 0 0 0 0 0 0 0 0 0 0
16 20 13 19 19 15 36 36 30 21 17 28 54 38 22 3 4 5 2 0 0 0 1 2 3 0 0 0 0 0 0 0 0 0 0 0 0 0 0 0 0 0 0 0 0 0 0
20 21 19 17 17 26 25 14 31 38 27 21 24 30 15 11 5 5 0 0 0 0 2 3 7 7 0 0 0 0 0 0 0 0 0 0 0 0 0 0 0 0 0 0 0 0 0
25 22 25 16 22 25 25 18 18 37 43 26 14 18 32 30 25 3 0 0 0 0 4 0 2 2 0 0 0 0 0 0 0 0 0 0 0 0 0 0 0 0 0 0 0 0 0
15 22 24 28 18 35 19 21 17 24 23 22 24 20 26 36 25 0 0 0 0 0 0 0 1 0 0 0 0 0 0 0 0 0 0 0 0 0 0 0 0 0 0 0 0 0 0
12 18 26 35 29 29 30 22 32 25 20 20 17 21 29 29 6 0 0 0 0 0 0 1 0 0 0 0 0 0 0 0 0 0 0 0 0 0 0 0 0 0 0 0 0 1 0
34 36 31 21 30 20 20 40 33 32 17 9 11 16 29 22 0 0 0 0 0 0 0 0 0 0 0 0 0 0 0 0 0 0 0 0 0 0 0 0 0 0 7 7 0 0 0
32 25 34 36 19 31 19 33 32 28 30 17 10 10 14 19 0 0 3 4 3 2 0 0 0 0 0 0 0 0 0 0 0 0 0 0 0 0 0 0 0 0 0 0 0 0 0
34 31 18 21 36 44 25 22 33 32 28 21 17 12 2 6 0 5 32 20 17 14 0 0 0 0 0 0 0 0 0 0 0 0 0 0 0 0 0 0 0 0 0 0 0 0 0
43 42 45 38 26 40 37 35 19 12 25 33 33 22 16 1 0 30 16 24 18 17 0 0 0 0 0 0 0 0 0 1 0 0 0 0 0 0 0 0 0 0 0 0 0 0 0
44 49 47 50 35 33 56 44 28 14 25 18 37 22 15 5 17 17 25 19 18 11 0 0 0 0 0 0 0 0 0 0 0 0 0 0 0 0 0 0 0 0 0 0 0 0 0
51 50 55 40 43 60 43 68 48 25 19 23 30 24 20 4 30 46 27 17 31 6 0 0 0 0 0 0 0 0 0 0 0 0 0 0 0 0 0 0 0 0 0 0 0 0 0
41 50 53 39 33 43 23 58 54 29 28 23 37 27 12 26 10 24 40 63 0 0 0 0 0 0 0 0 0 0 0 0 0 0 0 0 0 0 0 0 0 0 0 0 0 0 0
42 35 49 51 41 48 41 38 53 48 57 22 39 30 6 14 31 37 86 56 0 0 0 0 0 0 0 0 0 0 0 0 0 0 0 0 0 0 0 0 0 0 0 2 0 0 0
46 50 40 53 49 53 44 52 26 49 70 35 41 15 13 32 46 39 81 0 0 0 0 0 0 0 0 0 0 0 0 14 0 0 0 0 0 0 11 2 0 0 0 0 2 0 27
45 41 40 48 51 53 53 51 42 45 38 34 31 10 18 30 58 87 20 0 0 0 0 0 0 0 0 0 0 0 24 8 6 0 0 0 0 0 5 18 0 0 0 0 0 0 0
25 13 30 55 59 66 57 50 31 28 43 40 38 0 34 26 92 86 0 0 0 0 0 0 0 0 0 0 0 0 10 14 1 6 7 0 0 0 2 0 0 0 0 0 3 0 0
38 27 21 33 43 46 63 38 68 53 60 3 59 0 91 113 4 0 0 0 1 2 2 0 0 2 6 0 0 0 0 0 0 0 41 0 0 0 0 1 34 22 0 0 0 0 0
42 22 28 39 43 57 66 77 63 65 69 80 60 47 65 185 13 0 9 0 11 14 9 17 7 4 5 12 0 0 0 0 1 10 0 40 0 0 0 35 25 5 20 27 39 30 0
50 34 44 56 71 59 56 63 56 64 70 98 102 102 50 177 90 46 4 22 4 29 34 33 27 31 34 15 16 3 6 0 7 30 2 2 49 7 0 0 22 3 73 56 65 0 0
53 51 58 64 71 57 51 66 78 62 49 108 97 71 47 71 63 65 57 55 18 34 37 36 42 46 53 1 33 20 51 22 7 31 19 1 65 85 38 40 14 41 73 20 56 70 0
68 61 67 70 70 64 68 64 68 90 99 138 229 63 79 68 79 48 71 44 53 54 49 44 49 59 77 62 64 73 57 34 20 7 24 0 1 4 18 7 0 0 19 30 15 1 0
69 63 64 74 86 91 80 79 78 93 165 162 121 128 139 38 60 85 80 33 42 44 34 69 68 58 54 88 64 65 25 18 42 0 0 7 9 1 0 2 1 0 0 1 7 11 13
69 76 73 63 73 79 79 104 119 107 188 128 116 149 136 77 66 61 59 66 48 49 45 61 87 102 82 79 78 29 18 8 16 7 7 0 9 3 2 0 0 0 0 0 4 3 8
69 63 66 69 60 68 76 116 118 111 140 390 164 210 111 112 59 34 43 59 57 45 52 47 48 27 45 42 26 37 75 70 26 22 22 17 2 1 0 0 6 0 0 0 0 0 0
84 51 48 76 85 93 103 124 112 134 101 434 98 290 149 110 54 57 60 56 67 65 56 62 38 22 4 1 193 50 99 58 70 48 23 26 24 72 49 0 0 7 20 0 0 0 35
72 62 65 66 65 77 90 108 119 108 84 153 170 286 179 4 10 4 38 87 88 77 78 47 39 0 0 116 100 151 147 89 102 93 40 75 48 11 42 0 5 9 30 0 10 77 24
0 0 0 0 0 70 93 118 131 129 116 247 115 167 255 86 16 10 18 6 30 85 93 50 0 0 0 153 62 106 135 105 80 75 82 35 43 56 58 14 0 46 34 22 101 44 16
55 14 6 44 0 58 82 105 105 93 107 134 152 74 214 93 31 50 49 8 26 28 0 47 28 29 78 119 105 74 163 116 79 76 140 54 41 78 45 63 130 90 183 76 21 18 3

GFSGBSN_con_mucape_060.txt.gz
CAPE
6 8 6 9 12 14 12 30 27 22 18 10 13 14 13 11 4 4 8 3 3 3 4 2 3 9 0 0 0 0 0 0 0 0 0 0 0 0 0 0 0 0 0 0 0 0 0
6 4 0 15 18 12 6 10 2 8 25 26 21 13 10 2 2 1 2 1 1 2 4 1 3 14 0 0 0 0 0 0 0 0 0 0 0 0 0 0 0 0 0 0 0 0 0
0 2 14 19 20 25 20 15 7 4 26 31 22 16 15 3 1 1 1 1 1 1 3 3 9 14 0 0 0 0 0 0 0 0 0 0 0 0 0 0 0 0 0 0 0 0 0
17 17 18 23 25 20 27 22 15 8 22 21 18 20 28 21 9 0 0 0 0 0 1 2 3 2 0 0 0 0 0 0 0 0 0 0 0 0 0 0 0 0 0 0 0 0 0
17 13 3 12 25 26 24 29 20 4 19 19 8 12 19 20 9 0 0 0 0 0 0 0 0 0 0 0 0 0 0 0 0 0 0 0 0 0 0 0 0 0 0 0 0 0 0
28 26 18 24 26 29 27 19 51 39 16 30 10 6 16 17 6 0 0 0 0 0 0 0 3 0 0 0 0 0 0 0 0 0 0 0 0 0 0 0 0 0 0 0 0 0 0
19 26 39 39 33 28 18 21 33 47 15 19 8 0 20 23 5 0 0 0 0 0 0 0 0 0 0 0 0 0 0 0 0 0 0 0 0 0 0 0 0 0 0 0 2 1 1
27 28 23 17 20 24 42 37 47 40 16 9 13 6 6 8 0 0 0 15 1 4 0 0 0 0 0 0 0 0 0 0 0 0 0 0 0 0 0 0 0 0 0 0 0 0 0
29 23 27 29 16 13 17 50 56 43 18 19 16 15 9 12 0 0 23 0 17 5 0 0 0 0 0 0 0 0 0 0 0 0 0 0 0 0 0 0 0 0 0 0 0 0 0
33 41 40 41 36 30 19 27 40 27 23 27 16 26 29 7 0 0 4 16 27 10 0 0 0 0 0 0 0 0 0 0 0 0 0 0 0 0 0 0 0 0 0 0 0 0 0
40 30 45 44 41 46 32 16 25 31 28 26 37 23 33 1 0 0 3 14 24 3 0 0 0 0 0 0 0 0 0 0 0 0 0 0 0 0 0 0 0 0 3 0 0 0 0
45 41 38 38 47 33 36 45 25 44 34 26 32 16 23 0 2 9 5 9 28 0 0 0 0 0 0 0 0 0 0 0 0 0 0 0 0 0 0 0 0 0 0 0 0 0 0
19 35 31 35 44 40 43 45 27 44 38 25 28 18 2 7 0 2 6 12 51 0 0 0 0 0 0 0 0 0 0 0 0 0 0 0 0 0 0 0 0 0 0 0 0 0 0
16 16 25 28 28 43 40 53 41 40 30 21 56 40 2 0 0 29 17 5 0 0 0 0 0 0 0 0 4 0 0 0 0 0 0 0 0 0 0 0 0 0 0 0 0 0 0
28 22 26 38 19 30 41 58 49 47 50 37 35 6 14 7 3 43 8 0 0 0 0 0 0 0 0 0 0 10 1 18 1 0 0 0 0 0 0 0 0 0 0 0 0 0 0
28 31 29 27 31 38 58 58 64 50 45 42 37 25 3 5 123 69 19 0 0 0 0 0 0 0 0 5 0 6 35 2 30 0 0 0 0 0 0 4 0 0 0 0 0 0 0
18 35 34 30 19 32 37 50 63 62 46 42 52 8 0 84 106 111 0 0 0 0 0 0 0 0 0 0 0 7 12 36 2 3 1 0 1 0 0 0 0 0 0 0 0 0 0
25 35 44 44 25 33 37 48 59 59 62 40 58 0 60 82 99 56 0 0 1 7 9 0 0 0 1 3 0 0 17 25 0 0 4 8 15 0 0 5 0 0 0 0 0 0 0
50 44 60 44 36 41 38 43 60 80 51 102 71 37 47 233 84 51 19 31 17 17 17 5 3 0 0 0 0 6 10 6 0 0 2 1 4 0 0 20 4 0 0 0 0 0 0
40 48 56 57 48 46 56 63 45 68 54 164 78 39 37 215 59 64 46 35 40 16 2 11 10 12 3 9 10 10 12 20 1 0 26 0 8 4 6 7 0 0 39 3 8 0 0
39 45 46 51 56 66 62 65 62 82 101 121 84 5 49 106 104 51 35 57 40 31 36 14 19 25 15 20 19 25 19 17 10 16 0 16 30 28 3 18 0 0 9 10 6 0 0
55 60 65 70 67 73 75 74 85 100 122 74 6 47 58 7 66 90 68 26 33 41 46 53 28 22 40 28 35 34 40 80 50 67 9 4 11 0 0 5 7 0 3 1 0 0 20
65 73 75 74 70 74 79 88 95 77 125 59 47 45 111 38 78 90 85 37 26 37 21 93 60 67 45 39 47 56 61 27 28 27 23 13 6 0 1 16 0 0 0 0 0 14 16
67 64 71 78 77 73 77 91 127 85 79 109 87 167 106 62 28 41 56 51 99 50 30 8 59 62 60 122 96 59 18 11 9 3 3 5 6 0 0 1 0 0 0 0 14 14 45
55 52 54 62 70 81 89 110 110 79 72 150 129 161 143 142 44 28 14 48 57 54 63 46 37 91 18 115 82 9 18 5 9 0 1 6 10 4 0 3 0 2 0 0 0 19 26
53 40 38 71 77 86 94 89 132 93 89 136 272 314 7 138 90 43 61 16 43 97 57 73 89 77 23 11 0 0 0 36 32 5 7 19 73 13 2 0 0 2 0 0 0 3 34
63 71 73 67 61 60 70 78 97 73 97 190 125 225 124 119 72 46 86 69 32 50 81 62 103 62 5 7 38 20 12 25 42 51 53 48 75 19 0 0 0 0 3 0 5 86 37
65 63 77 64 22 50 57 64 78 85 112 166 104 224 177 134 45 42 23 0 11 18 193 100 56 6 21 0 26 22 57 93 107 43 32 46 76 62 41 0 0 6 36 25 135 17 3
43 41 48 57 46 0 0 5 69 81 94 107 76 172 225 102 7 31 30 6 0 0 8 48 44 1 39 22 82 100 180 283 100 49 31 11 49 76 15 2 105 171 176 65 35 23 16

GFSGBSN_con_mucape_063.txt.gz
CAPE
1 4 4 0 6 5 0 4 1 2 16 29 30 19 16 13 8 5 7 4 3 0 0 0 2 10 1 0 0 0 0 0 0 0 0 0 0 0 0 0 0 0 0 0 0 0 0
0 0 0 10 6 0 0 10 4 6 14 29 22 15 8 2 2 2 2 2 1 1 0 1 4 16 0 0 0 0 0 0 0 0 0 0 0 0 0 0 0 0 0 0 0 0 0
0 11 16 16 23 25 16 13 4 6 14 21 23 13 11 1 2 1 2 0 0 1 1 0 6 8 0 0 0 0 0 0 0 0 0 0 0 0 0 0 0 0 0 0 0 0 0
11 0 0 8 26 36 23 15 11 13 12 20 27 13 16 11 0 2 1 0 0 0 0 0 0 0 0 0 0 0 0 0 0 0 0 0 0 0 0 0 0 0 0 0 0 0 0
0 10 14 9 38 30 22 26 27 24 22 19 24 7 14 9 0 0 0 0 0 0 0 0 0 0 0 0 0 0 0 0 0 0 0 0 0 0 0 0 0 0 0 0 0 0 0
7 6 17 29 28 17 10 15 39 37 36 10 19 7 12 8 0 0 0 0 0 0 0 0 0 0 0 0 0 0 0 0 0 0 0 0 0 0 0 0 0 0 0 0 0 0 0
0 0 15 13 10 10 22 28 52 44 41 12 5 4 5 7 0 0 0 0 0 0 0 0 0 0 0 0 0 0 0 0 0 0 0 0 0 0 0 0 0 0 0 0 0 0 0
14 6 14 12 11 7 8 15 27 51 16 11 3 4 1 1 0 0 0 0 3 2 0 0 0 0 0 0 0 0 0 0 0 0 0 0 0 0 0 0 0 0 0 0 0 0 0
27 29 29 21 21 23 20 19 19 62 41 26 18 8 6 5 0 0 0 1 8 5 0 0 0 0 0 0 0 0 0 0 0 0 0 0 0 0 0 0 0 0 0 0 0 0 0
26 29 27 37 44 40 36 28 18 20 38 46 39 32 28 6 0 0 0 0 3 20 0 0 0 0 0 0 0 0 0 0 0 0 0 0 0 0 0 0 0 0 0 0 0 0 0
35 33 36 29 44 42 48 38 30 22 27 33 48 30 21 1 0 0 0 0 1 13 0 0 0 0 0 0 0 0 0 0 0 13 0 0 0 0 0 0 0 0 0 0 0 0 0
16 12 31 31 32 45 38 64 46 33 42 46 43 34 24 0 0 0 0 0 4 0 0 0 0 0 0 0 0 0 0 0 0 0 7 0 0 0 0 0 0 0 0 0 0 0 0
0 1 13 23 32 22 37 49 60 42 36 42 53 37 4 0 0 0 0 0 0 0 0 0 0 0 0 0 0 0 0 0 0 0 0 0 0 0 0 0 0 0 0 0 0 0 0
0 0 7 23 35 38 30 40 79 47 40 27 49 50 0 0 0 0 0 0 0 0 0 3 0 0 0 0 0 0 0 0 0 0 0 0 0 0 0 0 0 0 0 0 0 0 0
0 28 29 32 38 40 25 29 44 46 43 57 62 0 0 0 0 0 10 0 0 0 0 0 0 0 0 0 0 5 0 0 4 0 0 0 0 0 0 0 0 0 0 0 0 0 0
0 37 27 38 29 11 12 33 37 51 40 51 10 0 0 0 2 8 28 0 0 0 0 0 0 0 0 0 0 1 59 25 24 2 0 0 0 0 0 0 0 0 0 0 0 0 0
36 41 21 28 34 36 19 33 37 59 64 44 0 0 0 1 6 40 0 0 0 0 6 0 0 0 0 0 0 0 35 35 0 1 1 5 0 0 0 0 0 0 0 0 0 0 0
38 41 37 40 47 48 42 42 46 60 56 12 31 0 9 14 12 31 0 0 0 0 0 0 0 0 0 0 0 0 0 9 0 0 0 5 4 0 0 0 0 7 0 0 0 0 0
40 29 43 47 50 62 47 52 47 58 69 14 9 0 0 34 24 0 1 0 0 0 0 0 1 4 0 0 0 0 0 11 0 0 0 0 16 0 0 0 6 0 0 0 0 0 0
33 39 46 54 57 61 58 50 57 82 69 24 25 0 4 11 0 5 21 8 0 0 0 0 0 1 1 0 0 0 1 20 1 3 0 0 2 5 0 2 8 0 0 0 0 0 0
32 38 48 49 51 59 64 52 40 63 101 21 21 0 2 3 0 0 3 0 3 50 6 1 0 0 0 0 13 7 20 2 2 41 15 8 0 10 1 1 6 9 0 0 0 0 0
40 46 58 63 54 64 56 58 85 41 92 27 0 0 4 0 0 0 26 1 2 7 7 10 19 22 9 9 20 21 37 37 33 44 34 21 0 0 0 10 23 14 0 0 2 0 0
54 58 67 66 65 65 71 63 76 78 78 0 0 2 0 0 4 0 0 2 10 31 0 6 26 27 25 79 16 38 19 27 4 5 20 31 8 0 0 0 0 0 1 0 0 0 0
51 55 66 65 69 70 79 82 117 79 93 9 17 21 13 0 0 0 0 0 0 3 4 26 24 26 36 45 13 35 29 5 4 17 19 21 0 0 0 0 0 0 0 13 0 0 0
43 50 56 60 59 59 81 76 114 73 84 3 0 5 52 0 0 0 0 0 0 11 2 17 28 78 39 49 4 2 0 0 0 0 0 0 0 0 0 0 0 0 2 0 27 0 16
53 52 49 42 83 83 87 65 67 58 73 7 0 27 1 0 0 1 0 0 2 0 9 2 132 26 18 0 0 0 0 0 0 0 0 0 2 1 0 1 0 0 0 0 0 5 8
43 45 51 61 66 63 65 72 89 51 57 31 0 5 11 0 0 0 3 20 6 2 5 15 46 20 0 0 0 0 0 6 0 11 16 5 0 0 0 0 0 1 0 0 0 0 0
74 73 69 64 61 63 62 54 56 74 69 37 0 25 0 12 0 2 5 0 2 0 43 4 12 11 0 0 0 0 3 5 3 13 12 0 0 0 0 0 0 3 0 5 1 0 8
7 6 50 53 48 53 57 9 0 51 93 61 24 20 12 0 1 0 0 0 0 0 0 0 5 7 4 12 2 8 5 14 13 1 12 0 0 22 0 0 46 100 112 37 64 41 44

GFSGBSN_con_mucape_066.txt.gz
CAPE
2 2 1 0 0 0 0 0 0 0 0 23 25 12 3 4 1 1 2 3 1 1 2 3 9 11 0 0 0 0 0 0 0 0 0 0 0 0 0 0 0 0 0 0 0 0 0
4 1 0 4 13 11 11 11 8 10 3 9 27 14 3 2 0 0 0 0 2 1 0 0 6 11 0 0 0 0 0 0 0 0 0 0 0 0 0 0 0 0 0 0 0 0 0
14 19 14 16 1 15 15 16 12 11 10 3 16 13 1 0 0 0 0 0 0 1 0 0 3 3 0 0 0 0 0 0 0 0 0 0 0 0 0 0 0 0 0 0 0 0 0
0 0 0 0 33 43 28 22 15 3 11 7 5 3 0 0 0 0 0 0 0 0 0 0 1 0 0 0 0 0 0 0 0 0 0 0 0 0 0 0 0 0 0 0 0 0 0
0 0 11 38 37 26 0 0 30 13 11 15 7 1 6 0 0 0 0 0 0 0 0 0 0 0 0 0 0 0 0 0 0 0 0 0 0 0 0 0 0 0 0 0 0 0 0
0 8 3 0 0 0 12 20 39 31 14 12 6 0 0 0 0 0 0 0 0 0 0 0 1 0 0 0 0 0 0 0 0 0 0 0 0 0 0 0 0 0 0 0 0 0 0
21 0 0 0 0 7 5 9 18 28 19 9 3 0 0 0 0 0 0 0 0 0 0 0 0 0 0 0 0 0 0 0 0 0 0 0 0 0 0 0 0 0 0 0 0 0 0
19 27 25 22 12 9 11 8 14 19 32 18 4 1 0 0 0 0 0 0 1 6 0 0 0 0 0 0 0 0 0 0 0 0 0 0 0 0 0 0 0 0 0 0 0 35 7
12 26 26 23 25 28 29 30 22 15 13 27 13 5 0 2 0 0 0 0 0 3 0 0 0 0 0 0 0 0 0 0 0 0 0 0 0 0 0 0 0 0 0 0 0 5 6
23 23 28 21 10 22 30 38 29 23 13 34 38 24 20 6 0 0 0 0 0 0 0 0 0 0 0 0 0 0 0 0 0 0 0 0 0 0 0 0 0 0 0 0 0 0 0
10 0 5 24 18 20 18 33 27 21 20 20 65 35 31 4 0 0 0 0 0 0 0 0 0 0 0 0 0 0 0 0 0 0 0 0 0 0 0 0 0 0 0 0 0 0 0
0 0 0 0 11 15 19 16 29 31 21 24 38 45 36 0 0 0 0 0 0 0 0 0 0 0 0 0 0 0 0 0 0 0 0 0 0 0 0 0 0 0 0 0 0 0 0
0 0 0 0 0 24 24 12 17 38 32 34 31 40 19 0 0 0 0 0 0 0 0 0 0 0 0 0 0 0 0 0 0 0 0 0 0 0 0 0 0 0 0 0 0 0 0
0 0 0 0 0 5 21 20 16 24 36 35 41 57 1 0 0 0 0 0 0 0 0 0 0 0 0 0 0 0 0 0 0 0 0 0 0 0 0 0 0 0 0 0 0 0 0
0 0 0 0 28 15 14 13 11 17 24 40 39 0 0 0 0 0 0 0 0 0 0 0 1 0 0 0 0 0 0 0 0 0 0 0 0 0 0 0 0 0 0 0 0 0 0
0 0 0 0 9 21 16 4 11 18 34 34 0 0 0 0 1 6 0 0 0 0 0 0 27 0 0 0 0 8 7 21 24 4 0 0 0 0 0 0 0 0 0 0 0 0 0
0 0 0 13 9 16 27 16 8 17 38 41 0 0 0 4 11 7 0 0 0 0 0 2 0 13 0 0 2 1 60 39 15 9 1 0 3 0 0 0 0 0 0 0 0 0 0
0 0 31 34 23 42 38 35 23 21 49 10 0 0 0 15 1 0 0 0 0 0 0 0 2 0 0 8 0 1 0 6 0 1 0 1 11 1 0 0 0 0 0 0 0 0 0
0 9 37 25 31 39 38 36 29 38 52 14 15 0 0 1 0 0 0 9 1 0 0 0 0 2 0 0 1 1 0 0 0 0 0 0 4 0 0 0 5 0 0 0 0 0 0
0 0 22 29 37 38 45 46 43 44 74 19 57 0 0 16 5 2 3 0 5 2 0 0 0 14 0 5 0 0 0 19 0 0 0 0 0 0 13 14 4 0 10 0 0 0 0
3 10 27 33 35 35 37 34 49 57 65 33 5 0 0 3 36 12 1 0 0 3 8 6 0 3 7 0 0 0 13 0 16 43 25 7 0 2 1 0 3 0 0 0 0 0 0
20 36 41 37 45 46 51 52 44 54 56 22 0 0 0 0 1 0 0 1 0 46 9 1 4 3 7 20 7 1 16 8 32 33 30 55 0 1 0 0 0 0 0 0 0 0 0
41 47 51 62 57 58 49 54 55 73 46 5 11 0 0 0 0 0 0 0 0 0 11 6 0 0 0 24 37 16 17 37 5 0 20 43 5 0 0 1 0 0 0 0 9 9 22
42 44 50 56 57 69 70 75 107 69 69 0 1 0 0 0 0 0 0 0 1 0 0 2 2 4 3 19 7 0 16 23 6 0 4 3 4 0 0 0 0 0 10 7 63 34 0
40 43 45 48 53 54 64 82 76 100 100 23 0 3 75 0 0 0 0 0 0 0 0 5 3 9 41 16 4 2 6 3 0 0 0 10 0 0 0 0 0 0 9 4 37 0 0
43 54 56 50 56 69 88 71 76 75 93 27 0 21 40 0 0 0 0 0 0 1 0 1 19 34 8 1 6 0 0 0 0 0 4 1 3 0 0 0 0 0 6 0 0 0 0
23 18 25 32 63 66 55 68 46 41 68 26 10 1 29 0 0 0 0 0 11 0 0 2 0 15 8 0 0 0 0 0 0 0 6 0 0 0 0 0 0 2 0 1 0 0 0
25 11 58 56 63 67 67 61 58 57 59 24 5 5 0 36 0 0 3 0 0 12 2 0 8 27 0 0 0 0 0 0 0 0 1 0 0 0 0 0 0 8 7 1 0 3 15
2 0 70 61 61 61 61 60 67 55 63 49 0 5 4 7 0 0 0 0 0 0 0 0 0 0 4 0 0 0 1 0 0 5 18 3 0 0 0 0 9 19 15 23 1 0 10

GFSGBSN_con_mucape_072.txt.gz
CAPE
0 0 0 0 0 7 11 0 0 0 0 0 0 0 8 4 0 0 0 0 0 0 0 0 0 2 0 0 0 0 0 0 0 0 0 0 0 0 0 0 0 0 0 0 0 0 0
0 0 0 2 9 12 0 0 0 0 0 0 9 4 12 7 0 0 0 0 0 0 0 0 3 0 0 0 0 0 0 0 0 0 0 0 0 0 0 0 0 0 0 0 0 0 0
0 9 10 20 4 0 0 0 0 6 1 0 0 0 1 2 0 0 0 0 0 0 0 1 5 0 0 0 0 0 0 0 0 0 0 0 0 0 0 0 0 0 0 0 0 0 0
2 8 22 0 0 0 0 0 1 0 0 0 2 6 16 0 0 0 0 0 0 1 0 1 3 1 0 0 0 0 0 0 0 0 0 0 0 0 0 0 0 0 0 0 0 0 0
18 0 0 0 0 0 0 0 0 0 0 0 27 21 26 20 13 0 0 0 0 0 0 1 0 0 0 0 0 0 0 0 0 0 0 0 0 0 0 0 0 0 0 0 0 0 0
5 0 0 0 0 0 0 0 0 0 0 18 27 16 8 12 0 0 0 0 0 0 0 0 0 0 0 0 0 0 0 0 0 0 0 0 0 0 0 0 0 0 0 0 0 0 0
0 0 0 0 0 8 0 0 0 15 13 14 10 1 1 0 0 0 0 0 0 0 0 0 0 0 0 0 0 0 0 0 0 0 0 0 0 0 0 0 0 0 0 0 0 0 0
0 0 0 4 13 27 37 36 31 24 12 8 5 1 2 0 0 0 0 0 0 0 0 0 0 0 0 0 0 0 0 0 0 0 0 0 0 0 0 0 0 0 0 0 0 0 0
0 0 15 21 17 15 18 29 22 17 12 7 3 1 5 0 0 0 0 0 0 0 0 0 0 0 0 0 0 0 0 0 0 0 0 0 0 0 0 0 0 0 0 0 0 0 0
19 23 16 19 21 16 11 17 26 21 14 5 0 1 14 0 0 0 0 0 0 0 0 0 0 0 0 0 0 0 0 0 0 0 0 0 0 0 0 0 0 0 0 0 0 0 0
14 5 1 0 0 5 6 9 7 0 0 0 0 0 4 0 0 0 0 0 0 0 0 0 0 0 0 0 0 0 0 0 0 0 0 0 0 0 0 0 0 0 0 0 0 0 0
8 3 0 0 0 0 10 2 0 0 0 0 0 0 0 0 0 0 0 0 0 0 0 0 0 0 0 0 0 0 0 0 0 0 0 0 0 0 0 0 0 0 0 0 0 0 0
9 0 0 0 0 0 0 0 0 0 0 0 0 0 0 0 0 0 0 0 0 0 0 0 0 0 0 0 0 0 0 0 0 0 0 0 0 0 0 0 0 0 0 0 0 0 0
0 0 0 0 0 2 0 0 0 0 0 0 0 0 0 0 0 0 0 0 0 0 0 0 0 0 0 0 0 0 0 0 0 0 0 0 0 0 0 0 0 0 0 0 0 0 0
0 0 0 0 0 0 0 0 0 0 0 0 0 0 0 0 0 0 0 0 0 0 0 0 0 0 0 0 0 0 0 0 0 0 0 0 0 0 0 0 0 2 0 0 0 0 0
0 0 0 0 0 0 0 0 0 0 0 0 0 0 0 0 0 0 0 0 0 0 0 0 0 0 0 0 1 0 0 1 0 0 0 0 0 0 0 0 0 12 0 0 0 0 0
0 0 0 0 0 0 0 0 0 0 7 1 0 0 0 0 0 0 0 0 0 0 0 0 0 0 0 0 0 9 0 13 14 3 0 0 1 0 0 0 0 0 0 0 0 0 0
0 0 0 0 0 0 0 0 12 20 10 0 0 0 0 0 0 0 0 0 0 0 0 0 0 0 0 0 0 6 4 7 6 10 10 0 8 0 0 1 6 0 0 0 0 0 0
2 0 0 0 0 0 0 9 15 22 6 0 0 0 0 0 0 0 0 0 0 0 0 1 0 0 8 0 0 0 6 19 8 11 0 0 1 0 0 13 20 20 0 0 0 0 0
1 0 0 0 0 0 2 7 13 23 31 0 0 0 0 1 0 0 0 0 0 1 0 7 5 2 2 0 3 0 0 30 37 2 5 1 0 0 0 0 0 4 0 0 3 0 0
0 0 0 0 0 11 15 5 3 16 34 0 0 0 0 0 0 0 0 0 0 11 4 4 2 24 38 0 16 0 0 0 36 1 0 1 0 0 0 0 0 0 0 0 0 0 0
0 0 0 0 28 16 7 4 21 33 42 2 0 0 0 0 0 0 0 0 0 0 0 0 5 1 0 18 0 37 1 0 0 0 17 30 1 0 0 0 0 0 0 0 0 0 0
0 0 0 24 30 27 24 25 24 43 12 0 1 0 0 0 0 0 0 0 0 0 0 2 0 0 0 0 5 3 0 10 0 3 25 26 13 0 0 0 0 0 0 0 0 9 0
0 0 43 39 33 32 27 33 50 58 4 0 0 9 0 0 0 0 0 0 0 0 0 0 0 8 12 3 0 0 14 10 4 15 18 33 26 0 0 0 0 0 0 1 21 11 4
0 53 45 36 32 33 35 39 48 62 32 0 0 14 0 0 0 0 0 0 0 0 0 0 1 22 0 2 184 48 51 25 2 1 18 25 4 0 0 0 0 0 10 9 4 0 0
44 33 26 26 29 50 41 40 42 50 47 9 0 13 59 0 0 0 0 0 0 0 0 0 0 0 16 22 30 11 3 0 0 15 6 0 0 0 0 0 0 0 0 0 6 0 1
44 38 43 33 18 31 27 39 53 57 50 1 0 0 0 0 0 0 0 0 0 0 0 0 0 0 0 2 0 0 6 23 9 7 21 4 0 0 0 0 0 0 0 2 0 0 0
45 44 24 19 20 19 25 25 26 37 51 0 0 0 0 0 0 1 3 0 0 0 0 0 0 0 4 2 0 0 0 0 0 0 13 0 0 0 0 0 0 0 0 0 2 0 0
62 31 25 36 28 36 39 41 48 50 63 6 0 0 0 0 0 0 0 0 0 0 0 0 0 0 0 0 0 0 1 19 10 0 45 0 0 9 0 0 0 0 0 9 52 52 0

GFSGBSN_con_mucape_078.txt.gz
CAPE
5 1 9 1 1 0 0 0 0 0 0 0 0 0 0 0 0 0 0 0 0 0 0 0 0 0 0 0 0 0 0 0 0 0 0 0 0 0 0 0 0 0 0 0 0 0 0
3 1 4 2 0 0 0 0 0 0 0 0 0 0 0 0 0 0 0 0 0 0 0 0 0 0 0 0 0 0 0 0 0 0 0 0 0 0 0 0 0 0 0 0 0 0 0
3 3 0 6 0 0 0 0 0 0 0 0 0 0 0 0 0 0 0 0 0 0 0 0 2 3 0 0 0 0 0 0 0 0 0 0 0 0 0 0 0 0 0 0 0 0 0
4 2 5 9 0 0 0 0 0 0 0 0 0 0 0 0 0 0 0 0 0 0 0 0 4 1 0 0 0 0 0 0 0 0 0 0 0 0 0 0 0 0 0 0 0 0 0
2 4 10 3 1 0 0 0 0 0 0 0 0 0 0 0 0 0 0 0 0 0 0 0 5 0 0 0 0 0 0 0 0 0 0 0 0 0 0 0 0 0 0 0 0 0 0
5 2 1 1 0 13 0 0 0 0 0 0 0 0 0 0 0 0 0 0 0 0 6 10 1 0 0 0 0 0 0 0 0 0 0 0 0 0 0 0 0 0 0 0 0 0 0
0 1 1 0 16 0 0 0 0 0 0 0 0 0 0 0 0 0 0 0 0 0 0 0 0 0 0 0 0 0 0 0 0 0 0 0 0 0 0 0 0 0 0 0 0 0 0
71 0 0 23 0 0 0 0 0 0 0 0 0 0 0 0 0 0 0 0 0 0 0 0 0 0 0 0 0 0 0 0 0 0 0 0 0 0 0 0 0 0 0 0 0 0 0
0 0 0 23 9 1 3 5 0 0 0 0 0 0 0 0 0 0 0 0 0 0 0 0 0 0 0 0 0 0 0 0 0 0 0 0 0 0 0 0 0 0 0 0 0 0 0
3 0 0 7 0 0 0 0 0 0 0 0 0 0 0 0 0 0 0 0 0 0 0 0 0 0 0 0 0 0 0 0 0 0 0 0 0 0 0 0 0 0 0 0 0 0 0
0 0 0 1 8 0 0 0 0 0 0 0 0 0 0 0 0 0 0 0 0 0 0 0 0 0 0 0 0 0 0 0 0 0 0 0 0 0 0 0 0 0 0 0 0 0 0
0 0 1 0 0 1 21 9 0 0 0 0 0 0 0 0 0 0 0 0 3 0 0 0 0 0 0 0 0 0 0 0 0 0 0 0 0 0 8 2 0 1 0 0 2 17 0
0 0 0 0 0 3 4 9 0 0 0 0 0 0 0 0 0 0 0 0 0 0 0 0 0 0 0 0 0 0 0 0 0 0 0 0 0 0 0 0 0 1 0 0 0 0 0
0 5 0 0 26 30 27 4 0 0 0 0 0 0 0 0 0 0 0 0 0 0 0 0 0 0 0 0 0 0 0 0 0 0 0 0 0 0 0 0 0 0 0 0 0 0 0
0 0 1 20 24 25 17 0 0 0 0 0 0 0 0 0 0 0 0 0 0 0 0 0 0 0 0 0 0 0 0 0 0 0 0 0 1 0 0 0 0 40 43 29 2 0 0
0 0 0 6 18 0 0 0 0 0 0 0 0 0 0 0 0 0 0 0 0 0 0 0 0 0 0 0 0 0 0 62 47 12 0 1 0 1 19 14 1 79 52 11 54 0 0
4 0 4 19 18 0 0 0 0 0 0 0 0 0 0 0 0 0 0 0 0 0 0 0 0 0 0 0 0 0 0 48 20 63 73 1 17 62 109 99 57 68 88 34 26 55 0
4 0 0 0 15 0 0 0 0 0 0 0 0 0 0 0 0 0 0 0 0 0 0 0 0 0 0 0 0 0 0 14 37 45 116 51 60 72 65 43 35 45 44 69 20 2 69
13 0 0 0 0 0 0 0 0 0 0 0 0 0 0 0 0 0 0 0 0 0 0 0 0 5 4 0 0 0 0 0 67 68 30 31 113 106 66 98 73 64 62 2 1 0 6
29 0 0 0 0 0 0 0 0 0 0 0 0 0 0 0 0 0 0 0 0 5 0 1 12 26 16 21 61 0 13 46 83 11 27 14 75 175 75 17 40 95 51 31 5 0 1
45 1 1 0 0 0 0 0 0 0 0 0 0 0 0 0 0 0 0 0 0 0 0 0 53 0 0 0 60 84 55 23 14 55 32 17 231 81 11 0 0 0 0 0 1 0 0
3 1 0 0 0 0 0 0 0 3 0 0 0 0 0 0 0 0 0 0 0 0 0 0 0 2 0 0 0 159 118 118 56 68 34 15 122 96 24 0 0 0 0 0 0 0 0
0 0 16 4 0 28 15 23 16 15 0 0 0 0 0 0 0 0 0 0 0 0 0 3 0 2 8 4 15 34 35 27 23 6 0 0 14 119 40 0 0 0 0 0 0 0 27
1 0 15 16 10 39 36 35 28 15 0 1 0 0 0 0 0 0 0 0 0 0 0 4 1 26 11 1 1 69 59 56 56 42 25 0 0 7 8 0 0 0 0 0 0 13 12
14 22 24 13 24 44 42 41 29 38 0 0 18 0 0 0 0 0 0 0 0 0 0 0 2 17 0 12 75 52 145 127 85 44 59 79 185 59 0 0 0 0 0 0 4 26 16
48 29 4 8 30 51 39 42 35 42 9 33 41 24 0 0 0 0 0 0 0 0 0 0 0 0 32 33 23 26 117 54 17 33 63 2 42 154 44 0 0 106 0 0 0 0 7
47 30 16 26 48 56 51 50 40 43 39 46 40 17 0 0 0 0 0 0 0 0 6 7 0 1 7 18 0 82 81 62 33 37 101 140 139 134 84 17 8 1 0 0 0 0 0
37 51 50 51 58 71 40 54 42 43 43 46 24 34 0 0 0 0 0 0 0 21 30 12 6 7 0 0 0 1 58 143 86 47 81 104 124 118 65 14 3 0 17 8 0 1 1
69 70 69 61 70 56 39 15 17 31 38 26 0 32 39 0 0 0 0 0 1 6 17 0 0 0 0 0 0 0 83 141 129 108 98 143 137 159 132 124 0 0 0 0 0 5 1

GFSGBSN_con_mucape_081.txt.gz
CAPE
5 2 0 0 1 0 0 1 0 0 0 0 0 0 0 0 0 0 0 0 0 0 0 0 0 0 0 0 0 0 0 0 0 0 0 0 0 0 0 0 0 0 0 0 0 0 0
16 3 5 3 3 4 4 5 0 0 0 0 0 0 0 0 0 0 0 0 0 0 0 0 0 0 0 0 0 0 0 0 0 0 0 0 0 0 0 0 0 0 0 0 0 0 0
7 4 3 4 3 3 4 6 0 0 0 0 0 0 0 0 0 0 0 0 0 0 0 0 0 0 0 0 0 0 0 0 0 0 0 0 0 0 0 0 0 0 0 0 0 0 0
8 2 10 7 4 5 5 9 0 0 0 0 0 0 0 0 0 0 0 0 0 0 0 0 1 0 0 0 0 0 0 0 0 0 0 0 0 0 0 0 0 0 0 0 0 0 0
3 5 1 8 4 2 2 2 0 0 0 0 0 0 0 0 0 0 0 0 0 0 0 0 0 1 0 0 0 0 0 0 0 0 0 0 0 0 0 0 0 0 0 0 0 0 0
11 10 6 6 2 2 1 0 0 0 0 0 0 0 0 0 0 0 0 0 0 0 1 3 0 0 0 0 0 0 0 0 0 0 0 0 0 0 0 0 0 0 0 10 7 0 0
1 10 10 7 1 1 4 0 0 0 0 0 0 0 0 0 0 0 0 0 0 0 0 0 0 0 0 0 0 0 0 0 0 0 0 0 0 0 0 0 0 0 0 0 0 0 0
0 0 0 0 0 0 0 14 0 0 0 0 0 0 0 0 0 0 0 0 0 0 0 0 0 0 0 0 0 0 0 0 0 0 0 0 0 0 0 0 0 0 0 0 0 0 0
0 0 0 0 0 0 55 32 0 0 0 0 0 0 0 0 0 0 0 0 0 0 0 0 0 0 0 0 0 0 0 0 0 0 0 0 6 0 0 0 0 0 0 0 4 15 1
0 0 0 62 0 0 0 0 5 0 0 0 0 0 0 0 0 0 0 0 0 0 0 0 0 0 0 0 0 0 0 0 0 0 0 2 0 0 0 0 0 0 7 11 12 3 0
0 0 0 78 0 0 0 0 0 0 0 0 0 0 0 0 0 0 0 0 0 5 0 0 0 0 0 0 0 0 0 0 0 0 0 0 0 0 0 0 3 11 27 22 18 0 0
0 0 0 0 0 1 8 0 1 0 0 0 0 0 0 0 0 0 0 0 3 2 0 0 0 0 0 0 0 0 0 0 0 0 0 0 0 0 0 4 7 7 13 18 5 0 0
0 0 0 0 0 0 0 0 10 0 0 0 0 0 0 0 0 0 0 0 1 0 0 0 0 0 0 0 0 0 0 9 5 26 40 53 33 9 0 0 3 10 15 0 0 0 0
0 0 0 0 0 0 2 23 3 0 0 0 0 0 0 0 0 0 0 0 0 0 0 0 0 0 0 0 0 0 0 0 1 17 23 15 5 12 2 0 15 5 0 0 0 0 0
0 0 0 0 0 1 22 7 0 0 0 0 0 0 0 0 0 0 0 0 0 0 0 0 0 0 0 0 0 0 0 0 0 49 39 37 42 9 22 8 1 41 6 7 0 0 0
0 0 0 0 40 25 15 1 0 0 0 0 0 0 0 0 0 0 0 0 0 0 0 0 0 0 0 0 0 0 0 17 59 74 56 4 51 58 80 34 28 20 73 55 48 0 0
0 0 0 27 23 4 1 0 0 0 0 0 0 0 0 0 0 0 0 0 0 0 0 0 0 0 0 0 0 0 0 11 92 67 120 241 79 30 72 104 103 117 106 78 87 103 0
2 0 22 26 15 16 15 1 0 0 0 0 0 0 0 0 0 0 0 0 0 0 0 0 0 0 0 0 0 0 0 0 10 56 68 110 332 68 42 71 106 61 104 61 74 2 88
0 0 0 8 30 25 14 1 0 0 0 0 0 0 0 0 0 0 0 0 0 0 0 0 0 0 13 5 0 2 9 7 0 8 71 6 87 130 91 95 81 47 52 119 89 53 0
0 0 0 19 25 15 8 2 0 0 0 0 0 0 0 0 0 0 0 0 0 0 0 0 0 15 22 23 39 30 53 34 34 95 88 25 0 62 112 31 89 115 91 131 145 105 54
1 0 0 1 26 12 2 0 0 0 0 0 0 0 0 0 0 0 0 0 0 0 0 0 0 0 0 0 6 49 71 104 93 43 35 126 19 2 37 48 52 2 14 107 115 56 0
45 1 0 0 0 13 0 0 0 0 0 0 0 0 0 0 0 0 0 0 0 0 0 0 0 0 0 15 25 30 114 146 97 126 133 110 16 2 0 148 70 0 44 3 0 0 0
12 3 0 0 0 2 7 0 0 0 0 0 0 0 0 0 0 0 0 0 0 0 0 0 0 0 0 37 37 12 18 54 93 119 67 46 64 6 1 188 57 2 7 8 0 11 18
0 0 0 0 0 4 10 0 0 0 0 2 0 0 0 0 0 0 0 0 0 0 0 0 5 0 12 36 5 7 78 132 188 130 79 102 42 0 26 174 97 3 0 14 5 40 49
0 0 9 27 22 26 16 10 7 3 0 26 0 0 0 0 0 0 0 0 0 0 0 0 15 22 5 14 49 62 116 134 194 142 90 33 0 0 4 113 4 3 24 58 40 53 14
16 21 25 17 32 60 40 28 13 19 2 31 5 31 0 0 0 0 0 0 0 0 0 22 22 11 20 40 55 38 4 21 87 62 24 34 65 0 0 9 18 135 62 15 3 69 0
36 35 56 51 61 46 47 37 23 24 15 33 22 28 0 0 0 0 0 6 0 6 11 37 25 31 30 57 59 127 39 97 75 70 50 67 45 26 107 84 144 67 17 6 0 37 0
48 47 57 57 44 41 47 53 35 32 28 39 27 29 6 0 6 0 0 0 14 20 27 51 38 56 35 25 73 0 1 155 118 99 80 62 67 109 110 99 95 3 67 99 0 7 0
52 56 49 55 51 51 55 33 29 35 29 15 0 29 15 0 16 5 2 2 3 5 27 24 30 18 32 6 3 0 0 166 148 110 151 121 75 181 85 155 0 0 0 0 0 0 0

GFSGBSN_con_mucape_084.txt.gz
CAPE
6 2 9 3 1 3 2 2 1 1 0 0 2 0 0 0 0 0 0 0 0 0 0 0 0 0 0 0 0 0 0 0 0 0 0 0 0 0 0 0 0 0 0 0 0 0 0
9 4 2 1 3 5 2 3 3 1 2 2 0 0 0 0 0 0 0 0 0 0 0 0 0 0 0 0 0 0 0 0 0 0 0 0 0 0 0 0 0 0 0 0 0 0 0
2 4 5 1 1 5 6 3 3 4 3 1 0 0 0 0 0 0 0 0 0 0 0 0 0 0 0 0 0 0 0 0 0 0 0 0 0 0 0 0 0 0 0 0 0 0 0
1 3 2 3 4 2 11 13 3 2 4 6 1 0 0 0 0 0 0 0 0 0 0 0 1 0 0 0 0 0 0 0 0 0 0 0 0 0 0 0 0 0 0 0 0 0 0
4 6 3 2 1 4 4 7 7 5 3 11 0 0 0 0 0 0 0 0 0 0 0 0 0 1 0 0 0 0 0 0 0 0 0 0 0 0 0 0 0 0 0 0 0 0 0
39 17 7 2 1 6 5 6 3 3 4 13 0 0 0 0 0 0 0 0 0 0 0 0 0 0 0 0 0 0 0 0 0 0 0 0 0 0 0 0 0 0 0 0 0 0 0
38 20 8 7 10 8 6 0 5 2 6 17 0 0 0 0 0 0 0 0 0 0 2 0 0 0 0 0 0 0 0 0 0 0 0 0 0 0 0 0 0 0 0 0 0 0 0
30 10 7 1 1 3 9 2 1 0 0 0 0 0 0 0 0 0 0 0 0 0 0 0 0 0 0 0 0 0 0 0 0 0 0 0 0 0 0 0 0 0 0 0 0 0 0
43 16 8 5 0 0 0 0 0 0 0 0 0 0 0 0 0 0 0 0 0 0 0 0 0 0 0 0 0 0 0 0 0 0 0 0 0 3 0 0 0 0 0 0 0 0 0
1 0 2 0 0 0 0 0 0 0 0 0 0 0 0 0 0 0 0 0 0 0 0 0 0 0 0 0 0 0 0 0 0 0 0 0 0 0 0 0 0 0 0 0 0 0 0
0 0 0 0 62 0 53 0 2 4 0 0 0 0 0 0 0 0 0 0 0 0 0 0 0 0 0 0 0 0 0 0 0 0 0 0 0 0 0 0 0 0 0 17 18 31 0
0 0 0 0 0 0 0 0 0 0 0 0 0 0 0 0 0 0 0 0 0 1 0 0 0 0 0 0 0 0 0 0 0 0 0 0 0 0 0 0 0 1 0 0 15 19 0
0 0 0 0 0 0 0 0 0 0 0 0 0 0 0 0 0 0 0 0 11 0 0 0 0 0 0 0 0 0 0 5 0 0 4 14 4 1 0 0 0 0 1 0 0 0 0
0 0 0 0 0 0 0 0 15 8 0 0 0 0 0 0 0 0 0 0 0 0 0 0 0 0 0 0 0 0 0 0 0 0 0 0 0 40 58 7 4 0 0 0 0 0 0
0 0 0 0 0 2 7 31 0 0 0 0 0 0 0 0 0 0 0 0 0 0 0 0 0 0 0 0 0 0 0 0 0 0 11 54 38 42 26 18 6 6 5 2 0 0 0
0 0 0 0 0 25 6 2 0 0 0 0 0 0 0 0 0 0 0 0 0 0 0 0 0 0 0 0 0 0 0 0 1 46 51 42 44 0 44 47 37 12 22 80 32 0 0
0 0 0 0 0 5 14 6 1 0 0 0 0 0 0 0 0 0 1 0 0 0 0 0 0 0 0 0 0 0 0 0 0 1 12 12 37 47 171 100 144 86 106 26 64 46 0
0 0 0 8 0 3 3 0 0 0 0 0 0 18 0 0 1 0 0 0 0 0 0 0 0 0 0 0 0 0 0 0 0 0 0 18 52 65 108 115 144 127 95 151 80 0 48
0 0 14 14 5 17 10 1 0 0 0 0 0 0 0 0 12 0 0 0 0 0 0 0 0 0 0 0 0 0 0 5 0 0 33 57 42 0 4 11 32 30 54 113 189 85 0
0 0 0 4 23 4 1 0 0 0 0 0 5 9 0 0 0 0 0 0 0 0 0 0 0 0 0 0 0 0 0 21 17 37 45 43 13 11 13 40 14 16 73 68 138 155 30
0 0 0 7 8 2 0 0 0 0 0 0 7 25 1 4 0 0 0 0 0 0 0 0 0 0 0 0 0 0 25 26 21 67 60 112 17 17 10 0 22 11 4 1 5 23 67
0 0 0 0 9 0 0 0 0 0 0 0 0 14 0 0 0 0 0 0 0 0 0 0 0 0 0 0 0 0 32 23 7 10 49 131 61 15 0 0 0 1 4 1 0 26 6
33 6 0 0 0 0 0 0 0 0 0 3 0 0 1 0 0 0 0 0 0 0 0 0 0 0 0 0 3 19 0 0 0 0 48 69 54 42 0 0 3 20 1 0 9 29 10
48 13 1 0 0 0 0 0 0 0 0 5 2 0 0 0 0 0 0 0 0 0 0 0 0 0 2 7 0 0 0 0 4 22 82 100 54 54 22 15 0 0 0 5 21 115 22
0 0 0 0 0 11 0 0 0 0 0 1 0 1 0 0 0 0 0 0 0 0 0 0 9 11 2 2 0 0 0 2 26 16 53 167 73 8 9 13 0 10 39 11 35 3 0
0 0 0 28 30 52 23 0 0 0 0 3 3 7 0 45 0 0 0 0 0 0 0 16 11 19 4 37 2 0 0 3 14 25 81 37 95 32 0 0 0 63 21 0 0 107 0
39 26 29 32 55 67 35 20 0 1 3 4 27 19 6 0 0 0 0 0 0 8 2 37 23 14 49 40 0 36 18 5 3 73 28 53 5 0 0 0 7 0 0 0 0 0 0
49 48 59 49 57 59 46 30 11 7 5 4 38 41 27 0 5 2 0 0 6 10 21 27 11 19 16 17 44 0 0 0 121 10 9 0 0 5 0 51 28 0 0 4 0 0 0
52 52 46 55 65 53 48 42 26 10 14 0 57 33 5 1 8 7 0 0 0 0 5 11 15 25 49 43 16 0 0 59 7 72 72 51 15 21 0 1 0 0 0 0 0 0 0

GFSGBSN_con_mucape_087.txt.gz
CAPE
8 7 8 4 0 4 13 1 1 6 4 1 0 4 5 7 0 0 0 0 0 0 0 0 0 0 0 0 0 0 0 0 0 0 0 0 0 0 0 0 0 0 0 0 0 0 0
8 11 6 7 9 14 6 5 0 0 4 4 7 13 7 12 4 0 0 0 0 0 0 0 0 0 0 0 0 0 0 0 0 0 0 0 0 0 0 0 0 0 0 0 0 0 0
20 5 49 1 2 4 4 7 6 9 0 0 0 1 0 1 3 0 0 0 0 0 0 0 0 0 0 0 0 0 0 0 0 0 0 0 0 0 0 0 0 0 0 0 0 0 0
22 23 27 39 4 4 5 1 6 7 4 2 9 0 0 0 1 0 0 0 0 0 0 0 5 0 0 0 0 0 0 0 0 0 0 0 0 0 0 0 0 0 0 0 0 0 0
20 14 28 15 26 14 5 2 1 6 9 8 4 7 8 6 0 0 0 0 0 0 0 1 2 0 0 0 0 0 0 0 0 0 0 0 0 0 0 0 0 0 0 0 0 0 0
27 28 30 37 12 14 8 3 6 4 3 10 11 9 5 8 0 0 0 0 0 0 0 0 0 0 0 0 0 0 0 0 0 0 0 0 0 0 0 0 0 0 0 0 0 0 0
77 48 26 32 18 10 13 4 1 1 1 6 3 2 1 10 0 0 0 0 0 0 0 0 0 0 0 0 0 0 0 0 0 0 0 0 0 0 0 0 0 0 0 0 0 0 0
147 95 33 42 29 41 8 9 3 0 6 0 5 1 4 0 0 0 0 0 0 0 0 0 0 0 0 0 0 0 0 0 0 0 0 0 0 0 0 0 0 0 0 0 0 0 0
218 101 40 32 46 8 1 7 0 0 0 0 0 0 0 0 0 0 0 0 0 0 0 0 0 0 0 0 0 0 0 0 0 0 0 0 0 0 0 0 0 0 0 0 0 0 0
270 194 151 75 5 0 0 0 0 0 0 0 0 0 0 0 0 0 0 0 0 0 0 0 0 0 0 0 0 0 0 0 0 0 0 0 0 0 0 0 2 0 0 0 0 0 0
221 195 50 1 0 0 0 0 0 0 0 0 0 0 0 0 0 0 0 0 0 0 0 0 0 0 0 0 0 0 0 0 0 0 0 0 0 0 0 0 0 0 0 0 0 0 0
0 0 0 0 0 0 0 0 0 0 1 6 0 0 0 0 0 0 0 0 0 0 0 0 0 0 0 0 0 0 0 0 0 0 0 0 0 0 0 0 0 0 0 0 0 0 0
0 0 0 0 0 0 0 0 0 0 0 0 0 0 0 0 0 0 0 2 0 0 0 0 0 0 0 0 0 0 0 0 0 0 0 0 0 0 0 0 0 0 0 0 0 0 0
0 0 0 0 0 0 0 0 0 0 1 0 0 0 0 0 0 0 0 1 0 0 0 0 0 0 0 0 0 0 0 0 0 5 0 0 0 0 0 3 0 0 0 0 0 0 0
0 0 0 0 0 0 0 0 0 0 0 0 0 0 0 0 0 0 0 0 0 0 0 0 0 0 0 0 0 0 0 0 0 1 0 1 0 0 13 23 9 1 4 0 7 2 0
0 0 0 0 0 0 0 0 0 0 0 0 0 0 0 0 0 0 0 0 0 0 0 0 0 0 0 0 0 0 0 0 0 0 7 0 0 0 13 2 14 0 16 27 38 1 0
0 0 0 0 0 0 0 0 0 0 0 0 0 0 0 0 0 2 0 0 0 0 0 0 0 0 0 0 0 0 0 0 0 0 0 2 0 0 0 18 19 28 53 61 80 40 0
0 0 0 0 0 0 0 0 0 0 0 0 0 0 0 0 0 4 0 0 0 0 0 0 0 0 0 0 0 0 0 0 0 0 0 0 13 0 0 0 0 39 76 63 25 11 26
0 0 0 0 2 6 11 5 0 0 0 0 0 0 0 0 3 0 0 0 0 0 0 0 0 0 0 0 0 0 0 0 0 0 1 0 0 0 0 0 16 20 7 17 6 14 4
0 0 0 18 17 0 0 1 0 0 0 0 0 0 0 0 0 0 0 0 0 0 0 0 0 0 0 0 0 0 0 0 0 0 40 8 0 0 0 0 1 11 8 3 1 1 2
0 0 0 22 12 5 0 0 0 0 0 0 0 0 0 0 0 0 0 0 0 0 0 0 0 0 0 0 0 0 0 0 0 1 0 10 0 0 2 0 0 17 1 3 4 0 0
0 0 0 7 9 0 0 0 0 0 0 0 0 0 0 0 0 0 0 0 0 0 0 0 0 0 0 0 0 0 0 0 0 0 0 0 0 0 0 0 0 10 0 0 1 0 20
0 0 0 2 12 5 0 0 0 0 0 0 0 0 0 0 0 0 0 0 0 0 0 0 0 0 0 0 0 0 0 0 0 0 0 0 0 29 0 0 6 2 4 6 6 28 2
25 1 0 0 0 3 0 0 0 0 0 0 0 0 0 0 0 0 0 0 0 0 0 0 0 0 0 0 0 0 0 0 0 0 0 0 1 14 0 0 0 0 30 42 47 12 2
50 28 5 0 0 1 0 0 0 0 0 0 0 0 0 0 0 0 0 0 0 0 0 0 0 0 0 0 0 0 0 0 0 0 0 0 0 1 0 0 0 50 42 35 26 8 8
49 0 0 0 33 35 4 0 0 0 0 0 0 0 0 0 0 0 0 0 0 0 0 0 3 0 0 0 0 0 0 0 0 0 7 10 9 0 0 0 0 16 53 30 25 4 12
0 0 0 20 43 47 19 0 0 0 0 0 0 0 0 0 0 0 0 0 0 0 0 0 0 0 0 0 0 0 0 0 0 15 3 0 1 0 2 1 0 0 0 4 0 0 0
42 21 29 40 48 61 46 12 0 0 0 0 0 0 0 0 0 0 0 0 0 0 0 0 0 0 0 0 0 0 0 0 4 29 46 1 0 0 0 0 0 0 0 2 0 0 0
55 40 38 43 48 50 59 34 3 0 0 0 0 0 0 0 0 0 0 0 0 0 0 0 0 4 0 0 0 0 0 0 0 0 4 0 0 0 0 0 0 0 0 0 0 0 0

GFSGBSN_con_mucape_090.txt.gz
CAPE
24 8 15 7 9 22 7 5 4 6 5 4 10 3 2 8 6 3 0 5 3 0 0 0 0 0 0 0 0 0 0 0 0 0 0 0 0 0 0 0 0 0 0 0 0 0 0
28 30 19 8 1 11 10 8 6 9 20 20 15 4 6 5 1 0 0 0 3 0 0 0 0 0 0 0 0 0 0 0 0 0 0 0 0 0 0 0 0 0 0 0 0 0 0
12 26 17 24 12 12 12 19 39 17 18 8 16 5 14 5 1 0 0 0 0 0 0 0 0 0 0 0 0 0 0 0 0 0 0 0 0 0 0 0 0 0 0 0 0 0 0
9 9 22 24 11 10 14 24 32 19 19 2 15 7 2 0 2 2 0 1 1 0 0 0 0 0 0 0 0 0 0 0 0 0 0 0 0 0 0 0 0 0 0 0 0 0 0
10 6 12 27 21 26 14 22 6 2 7 3 3 2 3 1 9 2 7 0 0 0 0 0 0 0 0 0 0 0 0 0 0 0 0 0 0 0 0 0 0 0 0 0 0 0 0
2 12 8 10 34 26 35 20 18 11 4 3 2 1 1 4 9 2 5 0 0 0 0 0 0 0 0 0 0 0 0 0 0 0 0 0 0 0 0 0 0 0 0 0 0 0 0
8 2 17 13 25 24 24 23 34 15 4 5 7 2 2 4 0 3 1 0 0 0 0 0 0 0 0 0 0 0 0 0 0 0 0 0 0 0 0 0 0 0 0 0 0 0 0
8 14 22 71 72 47 49 21 50 28 32 8 4 3 5 1 0 2 1 0 0 0 0 0 0 0 0 0 0 0 0 0 0 0 0 0 0 0 0 0 0 0 0 0 0 0 0
79 117 147 174 142 78 132 102 9 10 0 7 1 0 0 1 0 0 1 0 0 0 0 0 0 0 0 0 0 0 0 0 0 0 0 0 0 0 0 0 0 0 0 0 0 0 0
284 243 276 111 161 156 151 144 38 4 6 0 0 0 0 0 0 0 0 0 0 0 0 0 0 0 0 0 0 0 0 0 0 0 0 0 0 0 0 0 0 0 0 0 0 0 0
64 253 209 211 169 59 36 0 1 1 0 0 0 0 1 0 0 0 0 0 0 0 0 0 0 0 0 0 0 0 0 0 0 0 0 0 0 0 0 0 0 0 0 0 0 0 0
2 44 1 0 30 1 0 0 0 0 0 0 0 0 0 0 0 0 0 0 0 0 0 0 0 0 0 0 0 0 0 0 0 0 0 0 0 0 0 0 0 0 0 0 0 0 0
0 0 0 0 0 0 0 0 0 0 0 0 0 0 0 0 0 0 0 0 0 6 0 0 0 0 0 0 0 0 0 0 0 0 0 0 0 0 0 0 0 0 0 0 0 0 0
0 0 0 0 0 0 0 0 0 0 0 0 0 0 0 0 0 0 0 1 0 0 0 0 0 0 0 0 0 0 0 0 0 0 0 0 0 0 0 0 0 0 4 0 0 0 0
0 0 0 0 0 0 0 0 0 0 0 0 0 0 0 0 0 0 3 0 0 0 0 0 0 0 0 0 0 0 0 0 0 0 0 0 0 0 0 0 0 0 0 13 3 0 0
0 0 0 0 0 0 0 0 0 0 0 0 0 0 0 0 0 0 12 0 0 1 0 0 0 0 0 0 0 0 0 0 0 0 0 0 0 0 0 0 22 6 6 9 8 0 0
0 0 0 0 0 0 0 0 0 0 0 0 0 5 0 0 0 9 0 0 0 0 0 0 0 0 0 0 0 0 0 0 0 0 0 0 0 0 0 0 9 39 16 7 0 21 0
0 0 0 0 0 0 0 0 0 0 0 1 1 0 0 0 4 12 0 0 0 0 0 0 0 0 0 0 0 0 0 0 0 0 0 0 0 0 0 0 0 36 19 85 57 0 3
0 0 0 0 0 0 0 0 0 0 0 1 16 0 0 1 0 0 0 0 0 0 0 0 0 0 0 0 0 0 0 0 0 0 0 0 0 0 0 0 0 0 0 9 0 4 4
0 0 0 0 0 0 0 0 0 0 0 0 0 0 0 2 0 0 0 0 0 0 0 0 0 0 0 0 0 0 0 0 0 0 17 0 0 0 0 0 0 0 0 1 0 0 0
0 0 0 15 15 0 0 0 0 0 0 0 0 0 0 0 0 0 0 0 0 0 0 0 0 0 0 0 0 0 0 0 0 0 0 0 0 0 0 0 0 0 0 3 0 0 0
0 0 13 20 0 0 0 0 0 0 0 0 0 0 0 0 0 0 0 0 0 0 0 0 0 0 0 0 0 0 0 0 0 0 0 0 0 0 0 0 0 0 0 0 3 0 1
0 8 10 16 17 0 0 0 0 0 0 0 0 0 0 0 0 0 0 0 0 0 0 0 0 0 0 0 0 0 0 0 0 0 0 0 0 0 0 0 0 0 7 0 9 1 42
21 5 3 5 0 0 0 0 0 0 0 0 0 0 0 0 0 0 0 0 0 0 0 0 0 0 0 0 0 0 0 0 0 0 0 0 0 0 0 0 0 27 43 38 74 17 9
56 17 10 0 0 1 0 0 0 0 0 0 0 0 0 0 0 0 0 0 0 0 0 0 0 0 0 0 0 0 0 0 0 0 0 0 0 1 0 0 3 9 31 4 11 0 1
63 36 10 10 0 5 0 0 0 0 0 0 0 0 0 0 0 0 0 0 0 0 0 0 0 0 0 0 0 0 0 0 0 0 0 10 5 0 0 0 0 8 9 0 0 0 0
42 39 16 24 14 22 0 0 0 0 0 0 0 0 0 0 0 0 0 0 0 0 0 0 0 0 0 0 0 0 0 0 0 0 4 0 0 0 0 0 3 0 0 15 1 0 0
50 49 42 37 45 41 21 0 0 0 0 0 0 0 0 0 0 0 0 0 0 0 0 0 0 0 0 0 0 0 0 0 0 3 3 0 1 0 0 0 6 0 0 1 2 0 0
62 0 0 57 59 62 23 1 0 0 0 0 0 0 0 0 0 0 0 0 0 0 0 0 0 0 0 0 0 0 0 0 0 0 0 1 0 0 0 0 1 0 0 0 0 0 0

GFSGBSN_con_mucape_093.txt.gz
CAPE
7 3 13 30 17 11 2 0 0 5 8 8 14 2 6 14 3 0 0 8 3 1 0 0 0 0 0 0 0 0 0 0 0 0 0 0 0 0 0 0 0 0 0 0 0 0 0
2 4 5 8 27 23 5 13 9 15 9 2 10 17 13 5 8 6 14 14 8 2 0 0 0 0 0 0 0 0 0 0 0 0 0 0 0 0 0 0 0 0 0 0 0 0 0
4 1 2 8 7 20 20 15 7 10 19 33 20 12 16 2 6 21 25 9 1 2 1 1 0 0 0 0 0 0 0 0 0 0 0 0 0 0 0 0 0 0 0 0 0 0 0
0 0 2 6 8 7 13 8 9 11 3 18 5 9 31 8 14 1 4 1 0 5 2 0 2 0 0 0 0 0 0 0 0 0 0 0 0 0 0 0 0 0 0 0 0 0 0
4 8 7 8 5 10 12 14 5 19 22 3 33 35 13 6 13 3 7 10 7 1 8 6 1 0 0 0 0 0 0 0 0 0 0 0 0 0 0 0 0 0 0 0 0 0 0
7 6 8 4 2 5 14 16 22 11 24 4 14 15 8 8 5 2 4 1 1 3 7 3 0 0 0 0 0 0 0 0 0 0 0 0 0 0 0 0 0 0 0 0 0 0 0
7 8 10 10 2 6 35 34 24 30 32 7 15 15 1 2 5 1 1 0 0 0 0 0 0 0 0 0 0 0 0 0 0 0 0 0 0 0 0 0 0 0 0 0 0 0 0
1 0 8 13 17 23 31 47 24 22 20 53 30 8 21 3 1 1 1 0 0 0 0 0 0 0 0 0 0 0 0 0 0 0 0 0 0 0 0 0 0 0 0 0 0 0 0
0 0 6 9 35 60 79 104 17 45 25 17 22 26 21 3 2 0 0 2 0 0 0 0 0 0 0 0 0 0 0 0 0 0 0 0 0 0 0 0 0 0 0 0 0 0 0
0 0 8 71 95 131 141 82 88 130 41 50 57 8 4 13 3 2 0 0 0 5 0 0 0 0 0 0 0 0 0 0 0 0 0 0 0 0 0 0 0 0 0 0 0 0 0
0 0 1 99 204 154 95 114 144 152 117 34 0 2 2 0 1 3 0 0 0 3 1 0 0 0 0 0 0 0 0 0 0 0 0 0 0 0 0 0 0 0 0 0 0 0 0
0 0 1 5 51 98 53 7 0 27 1 1 0 0 0 0 0 0 0 0 0 4 11 1 0 0 0 0 0 0 0 0 0 0 0 0 0 0 0 0 0 0 0 0 0 0 0
0 0 0 0 5 20 2 0 0 0 0 0 0 0 0 0 0 0 0 0 6 6 0 0 0 0 0 0 0 0 0 0 0 0 0 0 0 0 0 0 0 0 0 0 0 0 0
0 1 3 3 5 0 0 0 0 0 0 0 0 0 0 0 10 5 3 0 1 2 6 0 0 0 0 0 0 0 3 0 0 0 0 0 0 0 0 0 0 0 0 0 0 0 0
0 0 0 0 0 0 0 0 0 0 0 0 0 1 0 0 1 8 0 1 1 9 0 0 0 0 0 0 0 0 0 0 0 0 0 0 0 0 0 0 0 0 0 0 0 0 0
0 0 0 0 0 0 0 0 0 0 0 0 0 0 0 0 1 10 0 0 0 0 0 0 0 0 0 0 0 0 0 0 0 0 0 0 0 0 0 0 0 0 4 0 6 0 0
0 0 0 0 0 0 0 0 0 0 0 0 0 0 8 15 4 41 0 0 0 0 0 0 0 0 0 0 0 0 0 0 0 0 0 0 0 0 0 0 0 0 4 14 1 8 0
0 0 0 0 0 0 0 0 0 0 0 0 0 0 1 0 0 38 0 0 0 0 0 0 0 0 0 0 0 0 0 0 0 0 0 0 0 0 0 0 0 0 0 0 0 0 0
0 0 0 0 0 0 0 0 0 0 0 1 0 0 0 0 0 0 0 0 0 0 0 0 0 0 0 0 0 0 0 0 0 0 0 0 0 0 0 0 0 0 0 0 0 0 0
0 0 0 0 0 0 0 0 0 0 1 17 0 0 0 5 25 0 11 0 0 0 0 0 0 0 0 0 0 0 0 0 0 0 0 0 0 0 0 0 0 0 0 0 0 0 0
0 0 0 0 0 0 0 0 0 0 1 0 2 0 0 0 0 0 0 0 0 0 0 0 0 0 0 0 0 0 0 0 0 0 0 0 0 0 0 0 0 0 0 0 0 0 0
0 39 60 26 0 0 0 0 0 0 1 0 0 0 0 0 0 0 0 0 0 0 0 0 0 0 0 0 0 0 0 0 0 0 0 0 0 0 0 0 0 0 0 0 0 0 0
0 0 43 18 2 0 0 0 0 0 0 0 0 0 0 0 0 0 0 0 0 0 0 0 0 0 0 0 0 0 0 0 0 0 0 0 0 0 0 0 0 0 3 6 1 0 11
0 21 38 33 0 0 0 0 0 0 0 0 0 0 1 1 0 0 0 0 0 0 0 0 0 0 0 0 0 0 0 0 0 0 0 0 0 0 0 0 0 0 2 0 10 18 41
55 15 25 3 4 0 0 0 0 0 0 0 0 0 0 0 0 0 0 0 0 0 0 0 0 0 0 0 0 0 0 0 0 0 0 0 0 0 0 0 0 0 0 0 9 26 57
73 16 15 1 0 0 0 0 0 0 0 0 0 0 0 0 0 0 0 0 0 0 0 0 0 0 0 0 0 0 0 0 0 0 0 0 4 5 0 0 0 0 0 0 2 25 2
79 67 27 4 10 0 0 0 0 0 0 0 0 0 0 0 0 0 0 0 0 0 0 0 0 0 0 0 0 0 0 0 0 0 0 0 0 0 0 0 2 0 0 1 2 0 0
38 58 48 33 27 0 0 0 0 0 0 0 0 0 0 0 0 0 0 0 0 0 0 0 0 0 0 0 0 0 0 0 0 0 0 0 0 0 0 0 0 0 0 0 0 0 0
0 54 51 55 61 23 0 0 0 0 0 0 0 0 0 0 0 0 0 0 0 0 0 0 0 0 0 0 0 0 0 0 0 0 0 0 0 0 0 0 0 0 0 0 0 0 1

GFSGBSN_con_mucape_096.txt.gz
CAPE
5 3 2 1 2 0 20 30 20 4 3 0 0 0 1 2 3 1 0 0 2 0 0 1 0 0 0 0 0 0 0 0 0 0 0 0 0 0 0 0 0 0 0 0 0 0 0
20 16 5 1 0 0 1 5 19 16 12 11 1 7 22 22 10 27 15 18 4 5 0 0 0 0 0 0 0 0 0 0 0 0 0 0 0 0 0 0 0 0 0 0 0 0 0
19 21 6 1 3 2 4 6 7 8 15 12 8 4 18 33 20 28 18 20 10 5 3 1 0 0 0 0 0 0 0 0 0 0 0 0 0 0 0 0 0 0 0 0 0 0 0
32 31 11 8 7 9 7 7 11 11 18 14 9 10 15 7 2 2 13 7 13 5 19 2 2 1 0 0 0 0 0 0 0 0 0 0 0 0 0 0 0 0 0 0 0 0 0
32 38 21 13 8 3 1 2 2 12 16 17 22 12 6 7 3 27 19 1 3 1 8 8 4 0 0 0 0 0 0 0 0 0 0 0 0 0 0 0 0 0 0 0 0 0 0
25 32 23 9 1 2 4 2 1 4 23 22 28 24 12 6 4 32 10 0 4 0 1 3 5 1 0 0 0 0 0 0 0 0 0 0 0 0 0 0 0 0 0 0 0 0 0
29 16 22 7 1 2 14 4 2 16 21 29 22 35 4 14 14 23 17 9 1 6 0 0 0 0 0 0 0 0 0 0 0 0 0 0 0 0 0 0 0 0 0 0 0 0 0
30 14 13 8 6 7 16 17 5 27 22 26 24 24 15 8 12 16 1 0 0 0 0 0 0 0 0 0 0 0 0 0 0 0 0 0 0 0 0 0 0 0 0 0 0 0 0
22 22 4 4 7 6 17 22 25 31 35 31 29 22 28 36 30 14 16 2 0 0 0 0 0 0 0 0 0 0 0 0 0 0 0 0 0 0 0 0 0 0 0 0 0 0 0
22 16 5 0 3 2 3 21 21 29 47 62 60 100 29 12 7 3 12 25 0 3 5 0 0 0 0 0 0 0 0 0 0 0 0 0 0 0 0 0 0 0 0 0 0 0 0
6 17 16 1 1 2 24 65 60 49 43 14 27 48 62 35 2 6 2 0 0 1 5 0 0 0 0 0 0 0 0 0 0 0 0 0 0 0 0 0 0 0 0 0 0 0 0
0 2 12 14 10 5 13 29 54 73 35 13 9 25 17 9 14 0 0 0 0 6 2 0 0 0 0 0 0 0 0 0 0 0 0 0 0 0 0 0 0 0 0 0 0 0 0
0 0 0 10 15 13 12 19 16 8 0 0 0 0 0 0 1 0 0 0 5 0 0 0 0 0 0 0 0 2 0 0 0 0 0 0 0 0 0 0 0 0 0 0 0 0 0
38 0 6 3 8 16 7 11 3 0 0 0 0 0 0 0 0 0 0 0 2 0 0 0 0 0 0 0 0 0 0 0 0 0 0 0 0 0 0 0 0 0 0 0 0 0 0
0 0 0 0 3 5 6 5 0 0 0 0 0 0 0 0 1 9 0 0 0 0 0 0 0 2 4 0 0 8 0 0 0 0 0 0 0 0 0 0 0 0 0 0 0 0 0
0 0 0 0 0 0 0 0 0 0 0 0 0 0 0 14 49 0 0 0 0 0 0 0 2 0 0 0 0 0 0 0 0 0 0 0 0 0 0 0 0 0 0 0 0 0 0
0 0 0 0 0 0 0 0 0 0 0 0 0 0 0 18 16 0 0 0 0 0 0 0 0 0 0 0 0 0 0 0 0 0 0 0 0 0 0 0 0 0 0 0 0 0 0
28 0 0 0 0 0 0 0 0 0 0 0 0 0 0 19 0 0 0 0 0 0 0 0 0 0 0 0 0 0 0 0 0 0 0 0 0 0 0 0 0 0 0 0 0 0 0
27 7 0 0 0 0 0 0 0 0 0 0 0 0 14 4 0 0 0 0 0 0 0 0 0 0 0 0 0 0 0 0 0 0 0 0 0 0 0 0 0 0 0 0 0 0 0
0 7 52 59 28 0 0 0 0 0 0 18 0 0 0 0 6 0 0 0 0 0 0 0 0 0 0 0 0 0 0 0 0 0 0 0 0 0 0 0 0 0 0 0 0 0 0
0 0 0 0 0 0 0 0 0 0 0 7 12 0 0 0 0 0 0 0 0 0 0 0 0 0 0 0 0 0 0 0 0 0 0 0 0 0 0 0 0 0 0 0 0 0 0
0 0 0 0 0 0 0 0 0 0 20 11 0 0 0 0 0 0 0 0 0 0 0 0 0 0 0 0 0 0 0 0 0 0 0 0 0 0 0 0 0 0 0 0 0 0 0
0 7 36 46 0 0 0 0 0 9 7 2 2 0 1 0 0 0 0 0 0 0 0 0 0 0 0 0 0 0 0 0 0 0 0 0 0 0 0 0 0 0 0 0 0 0 0
1 15 49 0 0 0 0 0 0 0 11 2 0 0 0 0 0 0 0 0 0 0 0 0 0 0 0 0 0 0 0 0 0 0 0 0 0 0 0 0 0 0 0 0 0 0 0
28 46 45 29 16 2 0 0 0 1 7 0 0 0 0 0 0 0 0 0 0 0 0 0 0 0 0 0 0 0 0 0 0 0 0 0 0 0 0 0 0 0 0 0 0 0 0
48 46 43 10 14 0 0 0 0 0 0 0 0 0 0 0 0 0 0 0 0 0 0 0 0 0 0 0 0 0 0 0 0 0 0 0 0 0 0 0 0 0 0 0 0 0 0
65 61 19 8 9 0 0 0 0 0 0 0 0 0 0 0 0 0 0 0 0 0 0 0 0 0 0 0 0 0 0 0 0 0 0 0 0 0 0 0 0 0 0 0 0 0 0
69 75 43 26 0 0 0 0 0 0 0 0 0 0 0 0 0 0 0 0 0 0 0 0 0 0 0 0 0 0 0 0 0 0 0 0 0 0 0 0 0 0 0 0 0 0 0
70 64 54 62 11 0 0 0 0 0 0 0 0 0 0 0 0 0 0 0 0 0 0 0 0 0 0 0 0 0 0 0 0 0 0 0 0 0 0 0 0 0 0 0 0 0 0

GFSGBSN_con_mucape_102.txt.gz
CAPE
8 4 6 8 10 9 2 3 2 1 0 0 4 12 11 6 9 3 4 5 22 19 11 1 1 3 4 1 0 0 0 0 0 0 0 0 0 0 0 0 0 0 0 0 0 0 0
7 7 10 8 16 6 7 7 3 1 3 1 1 5 16 20 12 9 1 2 2 9 7 9 0 7 0 0 0 0 0 0 0 0 0 0 0 0 0 0 0 0 0 0 0 0 0
7 16 12 15 14 18 16 10 0 1 4 8 6 3 5 18 19 14 5 0 4 1 0 0 0 0 0 0 0 0 0 0 0 0 0 0 0 0 0 0 0 0 0 0 0 0 0
0 6 8 16 13 17 11 7 0 0 7 12 11 9 1 19 22 30 7 4 4 1 2 2 2 0 0 0 0 0 0 0 0 0 0 0 0 0 0 0 0 0 0 0 0 0 0
0 0 11 18 15 23 13 0 0 5 6 3 9 7 4 19 26 27 2 8 1 1 2 4 0 2 0 0 0 0 0 0 0 0 0 0 0 0 0 0 0 0 0 0 0 0 0
0 17 19 16 16 20 1 1 4 6 3 2 6 6 1 14 25 32 4 14 4 1 6 1 1 0 0 0 0 0 0 0 0 0 2 1 0 0 0 0 0 0 0 0 0 0 0
17 6 9 11 22 10 4 9 7 4 1 0 0 3 1 24 34 5 9 11 4 1 2 0 0 0 0 0 0 0 0 0 5 26 8 6 29 0 2 0 3 12 0 0 0 0 0
16 7 19 15 5 8 3 12 1 1 0 1 10 7 2 11 15 4 15 5 2 0 0 0 0 0 0 0 0 0 0 0 4 8 31 1 3 19 18 21 23 33 2 0 0 0 0
42 45 14 10 7 3 6 11 0 3 0 9 9 6 10 26 35 4 4 3 0 12 11 0 0 0 0 0 0 1 0 0 0 37 35 36 13 9 36 13 47 48 10 6 1 0 0
44 37 31 27 17 15 12 0 0 0 0 1 6 13 12 6 2 7 11 12 24 26 48 0 0 0 0 0 0 0 0 3 0 0 13 4 3 5 47 15 31 38 0 0 2 0 0
59 46 37 46 32 13 6 0 0 0 0 2 15 26 24 28 3 0 0 0 9 15 0 0 0 0 0 0 0 0 0 1 5 4 0 0 0 0 0 0 0 32 0 0 0 0 0
72 47 42 37 25 2 1 0 0 0 15 18 21 18 11 7 2 1 1 7 9 12 0 0 0 0 0 0 0 0 0 0 17 35 4 13 4 0 0 0 0 5 0 0 0 0 2
72 87 53 44 26 9 1 0 0 1 3 26 36 15 22 10 5 14 14 13 13 25 0 0 0 0 0 0 0 0 0 0 0 0 0 49 2 5 6 2 0 0 0 3 12 25 9
81 106 81 56 37 14 19 2 2 5 6 9 16 15 3 0 2 0 0 0 0 0 0 0 0 0 0 0 0 0 0 0 0 5 4 31 18 2 0 0 4 0 0 0 0 0 0
86 98 114 77 54 14 21 9 10 6 1 10 11 4 2 0 0 0 0 1 0 0 0 0 0 0 0 0 0 0 0 0 0 0 4 3 13 0 4 6 8 0 0 33 0 0 0
104 109 157 121 45 14 10 6 10 5 0 0 0 2 0 0 0 0 0 0 0 0 0 0 0 0 0 0 0 0 0 0 0 0 0 0 0 0 5 17 8 83 48 0 0 0 0
158 109 180 182 54 19 10 11 12 3 4 0 0 0 0 0 0 0 0 0 0 0 0 0 0 0 0 0 0 0 0 0 0 0 1 0 0 0 0 3 0 2 26 84 52 1 0
176 36 110 173 85 19 0 0 0 0 0 0 0 0 0 0 0 0 0 0 0 0 0 0 0 0 0 0 0 0 0 0 0 0 0 0 0 0 0 0 0 0 0 0 0 0 0
176 17 55 141 146 73 0 0 0 0 0 0 0 0 0 0 0 0 0 0 0 0 0 0 0 0 0 0 0 0 0 0 2 0 0 0 0 0 0 0 0 0 0 0 0 0 0
75 42 13 123 199 75 17 0 0 0 0 0 0 0 0 0 0 0 0 0 0 0 0 0 0 0 0 0 0 0 0 0 0 0 0 0 0 0 0 0 0 0 0 0 0 0 0
3 0 48 79 85 59 0 0 0 0 0 0 0 0 0 0 0 0 0 0 0 0 0 0 0 0 0 0 0 0 0 0 0 0 0 0 0 0 0 0 0 0 0 0 0 0 0
1 35 15 99 61 73 31 0 0 0 0 0 0 0 0 0 0 0 0 0 0 0 0 0 0 0 0 0 0 0 0 0 0 0 0 0 0 0 0 0 0 0 0 0 0 0 0
0 70 11 3 70 52 0 0 0 0 0 0 0 0 0 0 0 0 0 0 0 0 0 0 0 0 0 0 0 0 0 0 0 0 0 0 0 0 0 0 0 0 0 0 0 0 6
19 75 0 55 18 0 0 0 0 0 0 45 13 8 0 0 0 0 0 0 0 0 0 0 0 0 0 0 0 0 0 0 0 0 0 0 0 0 0 0 0 0 1 0 0 0 0
11 29 56 46 71 37 0 0 0 0 0 0 10 10 0 0 0 0 0 0 0 0 0 0 0 0 0 0 0 0 0 0 0 0 0 0 0 0 0 0 0 0 0 0 0 0 0
0 45 57 50 30 61 58 0 1 17 28 4 1 3 1 3 0 0 0 0 0 0 0 0 0 0 0 0 0 0 0 0 0 0 0 0 0 0 0 0 0 0 0 0 0 0 0
43 73 47 58 68 56 0 5 27 49 58 0 6 2 0 8 0 0 0 0 0 0 0 0 0 0 0 0 0 0 0 0 0 0 0 0 0 0 0 0 0 0 0 0 0 0 0
76 68 60 62 57 46 22 27 64 64 5 2 1 6 1 0 0 0 0 0 0 0 0 0 0 0 0 0 0 0 0 0 0 0 0 0 0 0 0 0 0 0 0 0 0 0 0
62 57 63 66 59 62 23 36 66 32 7 0 0 1 0 0 0 0 0 0 0 0 0 0 0 0 0 0 0 0 0 0 0 0 0 0 0 0 0 4 0 0 0 0 0 0 0

GFSGBSN_con_mucape_105.txt.gz
CAPE
3 3 7 8 8 10 3 7 7 0 0 0 0 0 0 3 17 20 6 9 3 1 0 0 1 2 1 0 0 0 0 0 0 0 0 0 0 0 0 0 0 0 0 0 0 0 0
7 8 11 15 6 6 3 12 13 0 0 0 0 1 1 0 2 21 21 6 8 0 2 0 1 6 2 0 0 0 0 0 0 0 0 0 0 0 0 0 0 0 0 0 0 0 0
9 6 7 12 11 9 12 16 15 6 0 0 0 4 7 0 8 9 27 10 10 2 1 2 3 1 0 0 0 0 0 0 0 0 0 0 0 0 0 0 0 0 0 0 0 0 0
3 9 6 12 11 7 8 11 17 7 0 1 7 5 7 6 2 6 28 13 9 3 4 3 1 0 0 0 0 0 0 0 0 0 0 0 0 0 0 0 0 0 0 0 0 0 0
13 13 7 18 12 8 0 12 3 0 0 6 9 5 5 6 5 5 26 7 11 3 6 4 0 0 0 0 0 0 0 0 0 0 0 0 5 0 0 1 1 1 0 0 0 0 0
0 6 8 3 8 8 19 8 0 0 1 3 7 3 3 4 4 8 20 20 6 5 8 1 1 0 0 0 1 0 0 0 0 0 0 0 0 0 0 0 0 2 11 1 0 0 0
13 12 4 2 14 12 1 3 0 0 0 1 1 1 0 0 1 10 4 8 1 2 2 0 0 0 0 0 0 0 0 0 0 0 0 0 0 0 0 0 0 0 0 9 1 2 0
2 6 7 11 6 0 0 4 1 0 0 0 0 0 0 6 1 0 6 8 12 3 5 0 0 0 0 1 0 0 0 0 0 0 2 3 0 0 0 6 21 0 0 4 34 1 0
23 19 13 0 0 2 1 6 5 2 0 0 0 1 15 14 3 4 3 2 1 7 4 0 0 0 0 0 0 0 10 0 0 3 1 36 2 1 0 40 53 33 37 0 1 11 3
30 44 37 7 0 8 8 0 5 3 0 0 0 1 13 5 4 5 6 1 5 22 9 0 0 0 0 0 0 0 0 2 19 18 23 14 1 17 0 0 0 0 0 0 93 30 0
54 44 54 27 11 17 4 1 11 0 0 0 0 0 13 6 0 1 0 1 0 24 0 0 0 0 0 0 0 0 0 1 12 11 0 1 0 0 0 0 0 0 0 0 0 4 31
73 77 62 49 24 16 7 3 0 0 1 1 0 2 4 3 7 5 10 8 17 21 0 25 0 0 0 0 0 0 0 17 5 0 0 0 0 0 0 0 0 0 0 0 0 0 10
73 83 75 78 32 11 9 0 0 0 5 12 25 15 14 20 12 0 14 0 16 0 1 12 0 0 0 0 0 0 10 13 0 0 0 0 0 0 0 0 0 0 0 0 0 0 0
97 88 79 76 93 31 7 4 0 1 6 7 50 31 22 22 28 37 15 25 0 4 10 0 0 0 0 0 0 0 0 3 0 3 34 77 2 0 0 0 0 1 0 0 0 0 0
74 90 100 90 98 74 42 9 11 2 7 6 13 15 12 32 19 9 6 55 4 5 0 0 0 0 0 0 1 6 0 35 0 0 0 0 0 0 0 0 2 0 0 1 0 0 0
95 115 140 110 104 95 83 35 10 8 13 5 6 22 43 10 1 8 58 23 0 0 0 0 0 0 0 0 10 0 0 29 57 22 28 0 0 0 0 0 6 9 33 0 0 0 0
136 113 121 144 130 106 68 48 7 13 5 3 6 7 0 0 0 10 0 0 0 0 0 0 0 0 0 0 0 0 8 0 8 0 0 0 0 0 0 0 0 4 61 36 21 2 0
143 147 145 82 0 157 109 33 13 20 9 3 1 0 0 0 0 0 0 0 0 0 0 0 0 0 0 0 0 0 0 0 0 0 0 1 0 0 0 0 0 0 1 0 0 0 2
65 111 132 149 55 27 129 93 27 10 8 4 3 0 0 0 0 0 0 0 0 0 0 0 0 0 0 0 0 0 0 0 0 0 0 0 0 0 0 0 0 0 0 0 0 0 0
61 85 124 86 55 89 104 122 45 12 0 1 0 0 0 0 0 0 0 0 0 0 0 0 0 0 0 0 0 0 0 0 0 0 0 0 0 0 0 0 0 0 0 0 0 0 0
83 82 100 59 43 0 124 114 74 5 2 2 7 55 0 0 0 0 0 0 0 0 0 0 0 0 0 0 0 0 0 0 0 0 0 0 0 0 0 0 0 0 0 0 0 0 0
114 83 31 65 86 0 166 91 68 77 0 3 109 24 0 0 0 0 0 0 0 0 0 0 0 0 0 0 0 0 0 0 0 0 0 0 1 0 0 0 0 0 0 0 0 0 0
80 81 25 28 28 0 40 57 47 61 0 7 56 42 17 0 0 0 0 0 0 20 0 5 21 12 31 0 0 0 0 0 0 0 0 0 0 0 0 0 0 0 0 0 0 0 0
80 29 10 9 30 0 69 36 1 52 0 33 63 58 10 0 0 0 0 0 0 37 1 0 10 0 0 0 0 0 0 0 0 0 0 0 0 0 0 0 0 0 3 0 0 0 4
18 4 1 71 82 73 59 48 42 22 0 30 30 42 55 13 0 0 0 0 7 3 28 0 0 0 0 0 0 0 0 0 0 0 0 0 0 0 0 0 0 0 0 0 0 0 0
0 0 83 35 5 50 1 0 59 0 0 1 22 59 53 101 7 48 39 38 45 18 0 0 0 0 0 0 0 0 0 0 0 0 0 0 0 0 0 0 0 0 0 0 0 0 0
0 47 52 0 0 0 0 0 46 0 0 0 4 75 34 110 0 18 30 38 18 28 3 0 0 0 0 0 0 0 0 3 0 0 0 0 0 0 0 0 0 0 0 0 0 0 0
0 32 43 0 0 18 11 0 64 0 0 0 4 29 56 32 0 0 0 0 11 33 0 13 0 0 0 0 0 0 2 3 0 0 0 0 0 0 0 0 0 0 0 0 0 0 0
35 1 22 39 32 41 0 67 99 106 68 0 0 0 0 19 0 0 0 0 0 0 17 0 10 0 20 34 10 31 29 24 15 0 0 0 0 35 5 0 0 0 0 0 0 0 0

GFSGBSN_con_mucape_108.txt.gz
CAPE
0 0 0 0 0 0 2 6 8 12 6 0 0 0 0 0 1 0 3 17 13 10 3 1 3 0 0 0 0 0 0 0 0 0 0 0 0 0 0 0 0 0 0 0 0 0 0
6 6 8 12 9 3 0 7 11 11 12 0 0 0 0 0 8 10 0 12 8 13 4 3 0 0 0 0 0 0 0 0 0 0 0 0 0 0 0 0 0 0 0 0 0 0 0
13 14 12 16 15 12 5 12 14 12 15 5 0 0 0 5 10 11 6 8 18 10 13 2 3 2 0 0 0 0 0 0 0 0 0 0 0 0 0 0 0 0 0 0 0 0 0
15 14 10 17 15 13 10 8 2 9 12 4 0 0 0 2 8 9 9 8 13 15 6 5 0 3 0 0 0 0 0 0 0 0 0 0 0 0 0 0 0 0 0 0 0 0 0
15 11 11 15 17 9 3 6 7 10 0 0 0 3 2 3 5 5 7 9 23 15 9 4 1 0 0 0 0 0 0 0 0 0 0 0 0 0 0 0 0 0 0 0 0 0 0
5 13 9 21 16 10 13 14 9 0 0 0 0 3 2 4 1 4 12 6 5 4 4 7 1 0 0 0 0 0 0 0 0 0 0 0 0 0 0 0 0 0 0 1 0 0 17
0 1 6 9 15 5 8 7 0 0 0 0 1 3 1 2 2 6 2 6 2 1 5 0 0 0 0 0 0 0 0 0 0 0 0 0 0 0 0 0 2 22 0 0 18 2 16
25 0 2 5 2 3 0 0 0 0 0 0 0 0 0 2 3 3 1 12 4 2 0 0 0 0 0 0 0 0 0 0 0 0 0 0 0 0 0 0 8 34 40 6 36 0 15
34 9 0 3 5 7 2 0 0 0 0 0 0 0 0 22 14 16 1 10 2 7 10 0 0 0 0 0 0 0 0 0 0 0 0 0 0 0 3 0 3 0 37 3 40 2 3
67 53 19 0 2 12 2 5 0 1 1 0 0 0 2 31 24 13 6 18 9 14 5 0 0 0 0 0 0 0 0 0 1 0 1 1 0 6 0 0 10 33 20 42 10 0 1
61 70 52 49 24 26 4 17 0 2 2 0 0 1 10 16 3 2 0 8 11 12 0 0 0 0 0 0 0 0 0 0 0 0 19 0 2 6 0 0 18 3 3 4 4 0 2
61 60 56 71 61 42 24 8 1 3 4 0 3 7 0 20 4 1 4 15 24 6 0 0 0 0 0 0 0 0 0 0 0 3 25 0 1 1 3 0 0 0 0 0 0 0 0
63 67 69 70 67 58 26 0 1 0 1 0 36 42 8 8 3 2 13 24 44 0 0 0 0 0 0 0 0 1 0 5 17 2 5 0 0 1 0 2 0 0 0 0 0 0 0
92 78 74 64 74 67 30 0 0 0 1 4 6 64 20 16 5 33 50 31 0 0 0 0 0 1 0 0 2 14 9 0 18 1 13 6 14 0 0 0 0 0 0 0 0 0 0
72 75 68 67 91 72 69 24 0 2 0 7 13 81 36 21 24 52 89 4 0 1 29 26 25 0 0 8 13 34 23 7 7 12 0 38 26 1 2 0 0 2 0 0 0 0 0
65 66 72 85 98 84 79 78 26 15 1 4 10 11 76 88 30 39 26 0 19 32 48 20 23 0 0 0 20 20 27 1 0 24 23 16 0 2 13 7 0 4 13 49 0 0 0
58 74 98 133 121 115 101 95 56 14 5 7 14 16 17 34 31 23 43 3 16 41 5 14 25 39 3 1 16 42 7 0 5 46 5 4 0 1 0 0 0 6 0 37 15 0 0
66 57 82 94 95 119 26 78 126 69 10 12 4 21 0 5 47 6 0 0 10 38 32 0 19 1 10 16 14 4 1 6 17 32 7 13 0 0 0 0 0 0 8 13 139 38 0
52 48 50 68 120 130 1 0 87 66 13 1 11 5 0 8 11 0 0 11 12 24 37 0 0 0 6 9 0 0 27 0 0 0 0 0 0 0 0 0 0 0 0 6 0 0 0
39 17 37 59 81 121 98 2 53 63 10 0 11 4 0 11 0 0 2 7 22 0 0 0 0 0 0 0 0 0 0 0 0 0 0 2 0 0 0 0 0 0 0 0 0 0 0
86 76 73 91 56 95 59 109 87 87 40 0 17 41 0 0 0 0 41 4 19 7 0 0 0 0 0 0 0 0 0 0 0 0 0 0 0 0 0 0 0 0 0 0 0 0 0
95 96 126 131 82 87 76 8 3 103 29 1 3 32 43 68 2 0 27 49 29 0 0 0 0 0 0 0 0 0 0 0 0 0 0 0 0 0 0 0 0 0 0 0 0 0 0
88 95 84 52 107 129 112 32 0 116 0 0 1 71 152 117 43 42 19 23 35 26 36 0 0 0 0 7 3 1 0 11 0 0 0 0 0 0 0 0 0 0 0 0 0 0 2
46 52 54 89 101 71 132 11 29 64 0 8 237 268 173 129 110 65 22 0 3 20 13 39 43 11 0 3 0 0 0 0 0 0 0 0 0 0 0 0 0 0 0 0 0 0 0
72 66 112 130 97 61 7 8 70 67 39 21 66 36 129 304 86 46 30 0 28 24 1 6 1 0 0 0 0 0 0 0 0 0 0 0 0 0 0 0 0 0 0 0 0 0 0
27 27 45 55 73 60 39 0 0 54 79 0 0 0 3 1 99 33 44 29 96 8 0 0 0 0 0 1 0 0 0 0 0 0 0 0 0 0 0 0 0 0 0 0 0 0 0
29 13 6 18 19 33 46 41 46 59 41 0 1 48 43 1 1 8 14 6 4 27 0 0 0 0 0 0 0 0 0 0 0 0 0 0 0 0 0 0 0 0 0 0 0 0 0
6 0 10 45 56 51 33 3 18 0 36 0 0 8 27 0 0 0 3 1 73 27 16 2 0 0 0 0 0 0 0 0 0 0 0 0 0 0 0 0 0 0 0 0 0 0 0
0 8 33 4 4 0 0 1 0 0 0 0 0 39 45 0 0 0 0 0 0 6 25 29 6 0 27 0 0 0 2 39 25 0 11 6 0 4 0 1 0 0 0 0 0 0 0

GFSGBSN_con_mucape_111.txt.gz
CAPE
10 4 0 0 0 0 0 0 0 3 8 8 1 0 0 0 0 0 1 0 0 12 7 18 0 1 0 0 0 0 0 0 0 0 0 0 0 0 0 0 0 0 0 0 0 0 0
0 0 0 0 0 0 0 2 2 8 6 9 4 0 0 0 4 11 6 0 1 13 10 6 3 2 0 0 0 0 0 0 0 0 0 0 0 0 0 0 0 0 0 0 0 0 0
1 9 10 12 15 9 9 12 11 4 0 11 13 4 1 0 6 6 7 7 5 14 5 3 8 5 0 0 0 0 0 0 0 0 0 0 0 0 0 0 0 0 0 0 0 0 0
9 10 13 18 17 14 14 18 15 11 4 14 12 1 0 1 2 4 2 2 13 8 16 1 7 3 0 0 0 0 0 0 0 0 0 0 0 0 0 0 0 0 0 0 0 0 0
12 15 5 15 11 17 10 9 10 14 14 8 3 0 0 0 0 6 3 9 13 11 9 2 1 1 0 0 0 0 0 0 0 0 0 0 0 0 0 0 0 0 0 0 0 0 0
11 9 11 17 22 16 10 9 12 11 2 0 0 2 2 0 0 2 8 11 7 5 3 5 4 0 0 0 0 0 0 0 0 0 0 0 0 0 0 0 0 0 0 0 0 0 0
9 6 4 16 22 10 4 10 12 0 0 0 0 0 1 0 1 3 2 1 0 0 0 0 0 0 0 0 0 0 0 0 0 0 0 0 0 0 0 0 0 0 0 0 0 0 0
44 39 2 0 3 4 6 8 5 0 5 0 0 0 0 0 4 2 4 1 1 0 0 0 0 0 0 0 0 0 0 0 0 0 0 0 0 0 0 0 0 0 0 0 0 0 3
62 55 25 2 1 2 6 6 2 0 0 0 0 0 0 0 10 10 2 0 0 2 0 0 0 0 0 0 0 0 0 0 0 0 0 0 0 0 0 0 0 0 0 0 0 0 0
69 73 55 29 15 9 7 19 0 0 0 2 2 0 0 5 26 3 5 4 16 7 0 0 0 0 0 0 0 0 0 0 0 0 0 0 0 0 0 0 1 0 1 0 0 0 0
58 47 64 60 60 42 22 13 4 1 2 4 3 1 0 20 8 5 2 6 16 9 0 0 0 0 0 0 0 0 0 0 0 0 0 0 0 0 0 0 0 0 0 0 0 0 0
65 63 58 62 51 50 49 31 5 0 3 2 4 0 0 32 13 2 6 18 29 4 0 0 0 0 0 0 0 0 0 0 0 0 0 0 0 0 0 0 0 0 0 0 0 0 0
65 74 70 62 57 55 48 42 18 0 2 1 1 0 11 11 5 11 9 20 19 0 0 0 0 0 0 0 0 0 0 0 0 0 0 0 0 0 0 0 0 0 0 0 0 0 0
47 60 93 87 72 60 54 53 3 0 0 0 1 60 13 30 35 36 29 38 0 0 0 0 0 0 0 0 0 0 0 0 0 0 0 0 0 0 0 0 0 0 0 0 0 0 0
57 74 91 59 79 73 69 68 7 0 0 0 6 33 23 33 79 58 46 0 0 0 0 0 0 0 0 0 0 0 4 0 0 0 0 0 0 0 0 2 0 0 0 0 0 0 0
78 69 84 79 75 86 86 81 64 7 6 1 11 15 18 21 71 79 51 13 0 0 0 54 19 5 0 0 11 23 9 0 0 5 1 0 0 1 4 2 0 0 1 0 0 0 0
83 56 81 78 87 96 91 104 94 79 25 18 22 20 2 58 18 45 14 2 6 0 4 57 37 21 0 0 0 16 29 1 4 12 0 8 0 0 0 0 0 0 0 14 3 49 0
86 83 110 85 92 111 103 126 118 109 83 1 16 1 0 10 17 20 4 1 0 0 34 55 14 2 1 0 0 10 26 13 0 36 11 2 1 0 0 0 0 0 0 0 0 0 2
92 96 92 81 82 102 112 79 0 104 113 1 1 1 6 12 14 0 1 0 30 22 47 0 17 0 0 1 0 0 4 0 0 35 59 0 6 14 0 0 0 0 0 41 36 0 0
95 88 77 74 67 78 88 95 29 37 110 6 2 4 5 2 2 0 0 0 37 6 8 10 17 6 11 13 4 0 2 0 5 0 4 0 0 0 0 0 0 0 0 0 4 0 0
93 101 80 47 45 75 66 80 109 69 94 2 1 0 0 0 0 0 18 11 4 45 13 5 8 0 0 0 0 0 13 0 0 0 3 0 0 0 0 0 0 1 0 0 0 0 0
99 86 80 43 46 50 39 118 142 166 137 18 0 0 32 0 0 0 7 251 19 17 32 12 10 7 4 0 0 0 24 0 0 0 0 0 0 0 0 0 0 0 0 0 0 0 0
75 100 83 82 45 53 38 111 119 139 67 0 0 26 30 2 4 0 0 0 66 51 83 4 0 4 16 1 0 10 4 0 0 0 0 0 0 0 0 0 0 0 0 0 0 0 0
56 58 53 50 33 54 93 152 135 101 60 0 0 18 41 0 0 2 12 1 54 104 50 59 11 5 1 4 5 1 0 7 0 0 0 0 0 0 0 0 0 0 0 0 0 0 0
9 24 41 49 71 100 137 133 156 62 51 0 0 2 39 2 25 35 42 34 25 48 64 43 30 4 5 1 0 0 0 0 0 0 0 0 0 0 0 0 0 0 0 0 0 0 0
65 67 69 110 128 117 134 141 127 68 58 0 0 0 15 5 0 18 38 50 29 5 4 15 1 0 1 0 0 0 0 0 0 0 0 0 0 0 0 0 0 0 0 0 0 0 0
57 40 49 83 136 148 98 57 1 59 92 0 0 0 2 8 0 8 24 4 6 1 3 0 0 0 0 0 0 0 0 0 0 0 0 0 0 0 0 0 0 0 0 0 0 0 0
37 52 40 46 90 52 67 64 2 45 63 0 0 3 0 0 0 6 0 0 0 0 0 0 0 0 0 0 0 0 0 0 0 0 0 0 0 0 0 0 0 0 0 0 0 0 0
24 31 28 36 14 36 63 0 0 15 58 0 0 0 13 0 1 0 0 0 0 0 0 0 0 0 0 0 0 0 0 0 0 0 0 0 0 0 0 0 0 0 0 0 0 0 0

GFSGBSN_con_mucape_114.txt.gz
CAPE
0 0 1 5 8 19 4 0 0 0 0 0 0 0 0 0 0 0 0 0 0 0 9 5 1 2 0 0 0 0 0 0 0 0 0 0 0 0 0 0 0 0 0 0 0 0 0
0 0 0 0 0 0 8 0 0 0 0 0 4 7 3 0 0 2 5 4 2 0 7 2 1 3 0 0 0 0 0 0 0 0 0 0 0 0 0 0 0 0 0 0 0 0 0
3 4 11 6 4 4 4 5 6 4 0 0 5 16 13 5 5 8 4 1 5 8 13 14 3 3 0 0 0 0 0 0 0 0 0 0 0 0 0 0 0 0 0 0 0 0 0
1 5 3 17 9 10 9 8 8 10 6 0 9 6 3 0 2 4 6 0 6 14 12 8 2 7 0 0 0 0 0 0 0 0 0 0 0 0 0 0 0 0 0 0 0 0 0
18 13 9 15 6 9 13 10 11 8 16 11 3 2 0 0 0 0 10 9 12 17 11 4 0 1 0 0 0 0 0 0 0 0 0 0 0 0 0 0 0 0 0 0 0 0 0
13 16 10 18 17 19 17 13 12 18 11 1 0 6 0 0 0 1 11 9 1 8 4 3 1 0 0 0 0 0 0 0 0 0 0 0 0 0 0 0 0 0 0 0 0 0 0
20 20 18 17 22 11 12 10 16 11 0 0 1 10 1 0 0 5 4 0 0 0 0 0 0 0 0 0 0 0 0 0 0 0 0 0 0 0 0 0 0 0 0 0 0 0 0
65 56 32 24 21 0 2 9 12 8 0 7 16 1 0 2 6 2 2 0 0 0 0 0 0 0 0 0 0 0 0 0 0 0 0 0 0 0 0 0 0 0 0 0 0 0 0
76 64 80 52 22 1 0 6 15 8 0 0 6 6 3 0 6 12 1 0 0 4 0 0 0 0 0 0 0 0 0 0 0 0 0 0 0 0 0 0 0 0 0 0 0 0 0
82 84 94 72 48 40 25 21 24 20 0 4 6 3 2 0 15 6 5 0 0 8 0 0 0 0 0 0 0 0 0 0 0 0 0 0 0 0 0 0 0 0 0 0 0 0 0
81 86 91 92 85 69 59 42 27 17 0 0 0 1 5 15 5 7 0 0 6 5 0 0 0 0 0 0 0 0 0 0 0 0 0 0 0 0 0 0 0 0 0 0 0 0 0
75 64 63 66 67 64 57 48 47 34 7 0 0 1 2 18 23 0 13 0 7 0 0 0 0 0 0 0 0 0 0 0 0 0 0 0 0 0 0 0 0 0 0 0 0 0 0
81 81 70 67 64 68 66 64 53 45 0 0 0 0 8 5 3 8 15 25 0 0 0 0 0 0 0 0 0 0 0 0 0 0 0 0 0 0 0 0 0 1 3 0 0 0 0
82 81 47 87 88 71 70 59 55 28 0 0 0 0 9 9 11 37 21 53 0 0 0 0 0 0 0 0 0 0 0 0 0 0 0 0 0 0 0 0 0 0 0 0 0 0 0
75 78 78 91 91 93 75 66 63 20 0 0 0 2 26 22 54 61 45 0 0 0 0 0 0 0 0 0 0 0 0 0 0 0 0 0 0 0 0 0 1 0 0 0 0 0 0
90 77 88 90 103 102 69 77 74 56 5 0 0 7 7 39 42 68 84 0 0 0 0 0 0 0 0 0 0 0 0 0 0 0 0 0 0 2 0 0 0 0 0 0 0 0 0
110 103 109 106 104 97 73 74 85 96 40 21 15 5 1 47 51 48 46 0 0 0 0 12 0 17 0 0 0 21 16 0 0 5 5 9 4 0 0 0 0 0 0 0 0 0 0
102 137 147 113 59 81 79 71 87 119 107 36 23 1 0 9 37 8 0 9 0 1 0 4 13 17 0 0 1 12 59 27 0 8 10 13 21 6 7 1 0 0 0 0 0 0 0
96 106 105 98 87 125 108 112 137 115 128 32 0 2 0 68 0 0 1 1 1 12 9 17 37 19 12 0 5 2 5 0 2 17 49 17 29 8 2 0 0 0 0 0 0 0 0
113 113 114 85 114 109 107 102 149 119 137 34 15 0 0 11 2 0 0 4 5 1 4 40 23 39 18 0 3 0 0 0 0 7 12 35 31 7 4 0 0 0 0 0 0 0 0
121 111 113 127 107 111 117 110 92 129 126 60 5 4 0 0 0 0 3 0 4 13 37 13 49 9 3 0 0 13 7 1 1 0 0 0 4 1 5 6 3 1 0 0 0 0 0
116 110 100 97 92 99 77 100 123 127 165 10 1 17 6 0 0 0 1 95 0 0 26 10 18 8 10 11 0 3 1 0 0 0 1 4 0 0 5 6 5 8 0 0 0 0 0
100 111 116 107 108 115 98 133 143 143 138 29 5 0 20 0 0 0 0 0 1 19 34 48 12 6 28 0 8 2 0 0 1 0 0 0 0 0 0 17 3 0 0 0 0 0 0
117 109 102 102 95 89 70 147 176 189 118 6 6 27 3 1 0 0 0 0 0 2 69 45 62 23 5 12 7 3 3 6 1 3 0 0 0 0 0 0 0 0 0 0 0 0 1
40 65 93 98 92 99 139 172 176 200 149 3 52 39 0 0 2 0 0 0 5 0 8 127 136 45 10 53 18 20 2 1 4 2 0 0 0 0 0 0 0 0 0 0 0 0 0
12 10 6 14 83 125 120 144 146 160 151 15 15 3 0 0 0 1 29 1 3 2 16 40 2 50 47 6 6 3 1 0 0 0 0 0 0 0 0 0 0 0 0 0 0 0 0
0 46 24 26 139 116 117 121 134 157 167 28 7 20 1 0 0 0 11 5 8 8 1 0 1 17 2 1 1 0 0 0 0 0 0 0 0 0 0 0 0 0 0 0 0 0 0
64 93 85 113 124 126 111 104 154 137 181 10 1 0 0 3 0 0 0 19 13 2 0 0 2 0 0 0 0 0 0 0 0 0 0 0 0 0 0 0 0 0 0 0 0 0 0
37 37 41 58 134 127 137 148 122 97 42 7 0 0 0 1 0 0 2 16 67 6 0 0 1 0 0 0 0 0 0 0 0 0 0 0 0 0 0 0 0 0 0 0 0 0 0

GFSGBSN_con_mucape_117.txt.gz
CAPE
8 14 10 1 3 5 18 6 7 12 4 0 0 0 0 0 0 0 0 1 2 1 0 6 1 0 0 0 0 0 0 0 0 0 0 0 0 0 0 0 0 0 0 0 0 0 0
1 3 3 0 0 0 0 0 4 8 2 0 0 0 0 0 0 0 5 4 0 3 0 9 3 1 0 0 0 0 0 0 0 0 0 0 0 0 0 0 0 0 0 0 0 0 0
21 0 0 16 0 0 0 0 0 0 0 0 0 0 4 0 0 2 4 1 2 5 5 19 7 1 0 0 0 0 0 0 0 0 0 0 0 0 0 0 0 0 0 0 0 0 0
25 14 16 26 21 13 14 17 16 19 15 4 1 7 0 0 0 0 9 1 3 9 5 18 5 0 0 0 0 0 0 0 0 0 0 0 0 0 0 0 0 0 0 0 0 0 0
1 12 22 33 31 23 19 21 17 7 6 12 5 0 0 0 0 0 10 13 12 19 25 12 0 0 0 0 0 0 0 0 0 0 0 0 0 0 0 0 0 0 0 0 0 0 0
29 32 25 38 20 22 19 26 17 18 14 8 0 0 0 0 0 0 12 10 1 3 13 4 0 0 0 0 0 0 0 0 0 0 0 0 0 0 0 0 0 0 0 0 0 0 0
0 21 23 32 32 20 9 23 22 21 11 0 0 0 7 0 2 4 9 0 0 0 0 0 0 0 0 0 0 0 0 0 0 0 0 0 0 0 0 0 0 0 0 0 0 0 0
67 59 55 47 31 15 14 14 21 9 11 0 0 2 0 4 3 0 2 0 0 1 0 0 0 0 0 0 0 0 0 0 0 0 0 0 0 0 0 0 0 0 0 0 0 0 0
73 77 75 65 65 47 10 11 18 12 10 0 0 0 3 2 2 9 7 0 0 3 0 0 0 0 0 0 0 0 0 0 0 0 0 0 0 0 0 0 0 0 0 0 0 0 0
76 64 71 78 70 71 49 34 25 31 18 0 6 0 0 0 13 15 7 0 0 5 0 0 0 0 0 0 0 0 0 0 0 0 0 0 0 0 0 0 0 0 0 0 0 0 0
85 74 70 76 84 61 58 63 44 40 28 16 0 0 0 12 2 5 0 0 2 6 0 0 0 0 0 0 0 0 0 0 0 0 0 0 0 0 0 0 0 0 0 0 0 0 0
103 107 89 92 86 90 80 73 64 48 34 22 0 0 5 6 18 0 0 0 7 0 0 0 0 0 0 0 0 0 0 0 0 0 0 0 0 0 0 0 1 1 0 0 0 0 0
94 86 80 90 80 65 82 76 63 59 49 22 0 0 8 11 0 0 10 15 0 0 0 0 0 0 0 0 0 0 0 0 0 0 0 0 0 0 0 0 0 3 0 0 0 0 0
144 123 97 93 82 71 82 88 72 59 58 18 0 0 1 1 4 4 47 41 0 0 0 0 0 0 0 0 0 0 0 0 0 0 0 0 0 0 0 0 0 0 0 0 0 0 0
184 165 130 116 95 95 82 87 96 82 61 14 0 0 4 19 21 42 52 0 0 0 0 0 0 0 0 0 0 0 0 0 0 0 0 0 0 0 0 0 3 0 0 0 0 0 0
157 119 150 129 109 105 104 130 128 106 80 21 0 0 2 26 19 52 109 0 0 0 0 0 0 0 0 0 0 0 0 0 0 0 0 0 0 0 0 1 2 0 0 0 0 0 0
77 125 133 118 117 105 98 112 100 90 105 33 11 5 0 36 58 101 0 0 0 0 0 0 0 0 0 0 0 0 0 7 2 2 15 8 15 0 0 0 0 11 1 0 0 0 0
129 44 100 121 109 116 102 113 80 105 101 44 32 1 0 45 20 24 0 0 0 0 0 0 0 4 0 0 0 0 0 22 41 45 46 22 20 0 0 6 10 13 6 1 0 0 0
187 61 65 108 113 126 145 115 84 95 116 21 0 3 3 44 3 5 0 0 3 1 5 12 0 0 0 7 29 0 0 2 36 31 28 23 11 0 0 0 3 15 0 1 1 0 0
223 155 71 94 126 154 137 118 100 111 133 46 4 0 5 27 6 0 1 14 26 6 0 2 11 16 18 1 11 7 2 4 29 25 38 31 20 8 0 0 0 0 0 1 1 0 0
188 129 134 182 183 124 161 115 124 123 127 42 16 9 0 0 0 0 10 0 1 19 19 16 15 13 12 16 4 13 2 10 0 8 15 19 16 10 17 10 3 0 0 4 2 0 0
73 73 160 140 127 175 141 143 158 125 133 41 32 5 4 0 0 0 0 8 5 0 11 68 21 4 38 20 0 12 19 22 13 3 7 10 9 0 3 9 12 4 0 0 0 0 0
77 169 157 146 137 129 123 141 163 157 92 0 0 0 0 0 0 0 0 0 0 9 0 0 1 14 33 0 17 12 12 12 4 2 0 5 0 0 0 0 12 12 0 0 0 1 0
114 130 152 133 126 117 102 167 185 135 63 2 0 0 17 0 7 0 0 0 0 0 2 18 16 13 0 21 2 0 6 12 10 7 11 0 0 3 4 0 0 0 0 0 0 0 0
85 102 124 140 124 105 162 212 193 209 127 0 0 6 41 0 0 15 0 0 0 0 0 0 5 29 22 38 21 1 3 2 2 8 8 6 3 0 0 0 0 0 0 0 0 0 0
24 37 57 96 133 129 154 199 200 222 149 23 0 9 9 17 4 2 1 0 0 0 0 0 40 72 2 55 71 4 0 0 0 1 0 0 0 0 0 0 0 0 0 0 0 0 0
21 12 15 19 31 101 116 186 212 203 146 27 10 26 83 5 0 2 9 0 6 0 0 0 44 8 49 35 3 1 0 1 0 0 0 0 0 0 0 0 0 0 0 0 0 0 0
0 14 3 13 12 13 55 161 168 160 134 65 20 43 17 10 0 0 0 0 22 11 0 0 0 0 10 1 5 1 0 0 0 0 0 0 0 0 0 0 0 0 0 0 0 0 0
76 111 102 89 147 39 36 128 129 147 167 93 37 29 0 4 2 0 0 0 0 0 13 1 0 0 0 0 1 0 0 0 0 0 0 0 0 0 0 0 0 0 0 0 0 0 0

GFSGBSN_con_mucape_120.txt.gz
CAPE
16 25 16 10 0 0 6 0 0 3 6 1 0 0 0 0 0 0 0 0 0 0 0 0 2 0 0 0 0 0 0 0 0 0 0 0 0 0 0 0 0 0 0 0 0 0 0
16 9 15 6 11 9 15 3 0 2 0 0 0 0 0 0 0 0 0 0 0 0 0 3 0 0 0 0 0 0 0 0 0 0 0 0 0 0 0 0 0 0 0 0 0 0 0
4 4 0 4 4 2 1 0 0 0 0 0 0 0 0 0 0 0 0 0 0 0 0 7 6 0 0 0 0 0 0 0 0 0 0 0 0 0 0 0 0 0 0 0 0 0 0
7 5 3 7 0 0 1 0 3 2 1 1 0 0 0 0 0 0 1 1 2 2 2 17 5 0 0 0 0 0 0 0 0 0 0 0 0 0 0 0 0 0 0 0 0 0 0
1 2 1 1 31 29 22 18 25 14 5 19 18 8 0 0 0 0 0 5 4 13 23 10 0 0 0 0 0 0 0 0 0 0 0 0 0 0 0 0 0 0 0 0 0 0 0
24 0 1 0 0 10 31 25 27 24 22 18 14 0 0 0 0 0 0 3 9 5 1 3 0 0 0 0 0 0 0 0 0 0 0 0 0 0 0 0 0 0 0 0 0 0 0
62 67 29 38 60 33 21 17 38 23 26 20 1 0 5 0 0 0 0 0 0 0 0 0 0 0 0 0 0 0 0 0 0 0 0 0 0 0 0 0 0 0 0 0 0 0 0
121 127 63 58 45 34 30 37 39 23 27 16 0 3 1 4 0 2 4 0 0 0 0 0 0 0 0 0 0 0 0 0 0 0 0 0 0 0 0 0 0 0 0 0 0 0 0
103 132 101 95 88 36 44 43 33 30 20 15 0 0 2 0 1 16 2 0 0 4 0 0 0 0 0 0 0 0 0 0 0 0 0 0 0 0 0 0 0 0 0 0 0 0 0
134 125 112 107 96 73 69 52 39 41 30 16 0 6 0 0 2 3 1 0 0 6 0 0 0 0 0 0 0 0 0 0 0 0 0 0 0 0 0 0 0 0 0 0 0 0 0
144 145 116 117 104 82 65 54 57 55 43 32 10 0 0 6 0 8 0 0 0 5 0 0 0 0 0 0 0 0 0 0 0 0 0 0 0 0 0 0 0 0 0 0 0 0 0
131 157 168 141 116 97 77 59 56 68 49 35 26 0 0 1 2 0 0 5 13 0 0 0 0 0 0 0 0 0 0 0 0 0 0 0 0 0 0 0 0 0 0 0 0 0 0
36 135 152 158 114 96 98 85 58 64 65 65 46 9 0 1 0 0 8 25 0 0 0 0 0 0 0 0 0 0 0 0 0 0 0 0 0 0 0 0 0 0 0 0 0 0 0
72 84 149 160 163 134 101 84 74 66 71 74 52 23 1 0 0 6 40 69 0 0 0 0 0 0 0 0 0 0 0 0 0 0 0 0 0 0 0 0 0 0 0 0 0 0 0
74 129 64 79 138 152 98 62 61 64 77 70 33 2 6 2 0 16 53 0 0 0 0 0 0 0 0 0 0 0 0 0 0 0 0 0 0 0 0 0 0 0 0 0 0 0 0
31 124 155 74 56 143 78 77 73 77 77 56 1 4 10 0 3 50 49 0 0 0 0 0 0 0 0 0 0 0 0 0 0 0 0 0 0 0 0 0 6 1 1 0 0 0 0
56 12 52 151 67 74 63 57 73 96 97 33 14 8 0 19 50 58 0 0 0 0 0 0 0 0 0 0 0 0 0 0 0 0 5 8 3 0 0 0 0 8 2 1 15 0 0
100 0 31 206 240 116 85 98 63 98 96 25 22 1 0 57 83 31 0 0 0 0 0 0 0 0 0 0 0 0 0 0 0 0 10 22 55 0 0 5 16 19 7 9 0 0 0
136 24 0 139 163 77 56 82 142 193 137 28 0 0 2 65 0 0 0 0 0 0 0 0 0 0 0 4 0 0 0 4 25 31 35 23 1 0 0 13 19 4 0 18 25 14 0
141 38 27 81 71 97 78 93 139 151 179 10 7 0 2 67 34 0 0 0 0 5 0 21 13 18 7 0 4 0 0 0 13 18 24 14 18 7 0 0 1 0 8 10 22 1 0
171 24 169 73 56 128 232 174 161 158 157 31 9 8 9 0 1 8 15 0 0 0 25 28 39 16 25 9 10 3 0 0 2 14 25 29 26 17 13 21 21 0 2 0 14 0 22
70 76 56 176 299 321 244 225 170 142 160 53 28 6 0 0 0 12 13 0 0 0 12 29 9 0 23 15 0 0 0 1 6 8 8 15 25 4 0 14 25 20 0 0 0 0 17
122 7 266 181 190 192 162 236 211 196 104 15 33 5 0 0 1 0 0 0 0 1 0 0 3 31 14 0 10 12 14 12 14 10 7 23 19 1 0 0 0 0 0 0 0 0 0
16 42 6 86 148 153 160 191 147 178 46 9 9 9 4 0 0 0 0 0 0 0 0 0 0 2 0 4 9 11 1 0 2 2 13 13 3 3 0 0 0 0 0 0 0 0 0
1 0 36 41 97 97 144 215 212 220 120 3 0 0 1 0 0 7 0 0 0 0 0 0 1 9 11 14 46 27 0 1 0 0 0 2 12 1 0 0 0 0 0 0 0 0 0
33 38 49 67 106 108 151 138 113 153 130 20 19 17 1 0 0 0 2 0 0 0 0 0 0 7 14 28 33 0 0 5 0 0 1 8 11 20 0 0 0 0 0 0 0 0 0
7 3 3 22 64 103 96 110 139 158 122 23 0 16 0 23 0 8 62 24 1 0 1 2 3 27 24 15 6 0 0 0 15 0 0 0 0 0 0 0 0 0 0 0 0 0 0
26 19 7 5 8 39 100 154 153 164 167 44 4 3 1 0 0 6 17 21 40 0 4 0 17 37 16 34 8 0 0 0 5 0 0 0 0 0 0 0 0 0 0 0 0 0 0
17 7 12 20 8 44 38 87 134 140 143 66 17 17 0 2 16 0 0 4 27 46 19 5 0 2 0 1 3 0 0 0 0 4 0 0 0 0 0 0 0 0 0 0 0 0 0

GFSGBSN_con_mucape_123.txt.gz
CAPE
40 30 3 18 23 1 7 3 0 2 0 0 0 0 0 0 0 0 0 0 0 0 0 0 0 0 0 0 0 0 0 0 0 0 0 0 0 0 0 0 0 0 0 0 0 0 0
27 16 13 4 20 14 21 15 1 0 0 0 0 0 1 0 0 0 0 0 0 0 0 0 0 0 0 0 0 0 0 0 0 0 0 0 0 0 0 0 0 0 0 0 0 0 0
16 12 6 4 25 13 4 13 5 0 0 1 0 0 0 0 0 0 0 0 0 0 0 0 0 0 0 0 0 0 0 0 0 0 0 0 0 0 0 0 0 0 0 0 0 0 0
2 13 7 4 3 11 14 3 4 7 4 0 0 0 0 0 0 0 0 0 0 0 0 6 0 0 0 0 0 0 0 0 0 0 0 0 0 0 0 0 0 0 0 0 0 0 0
1 4 0 3 0 4 7 3 1 0 0 0 0 9 0 0 0 0 0 1 6 1 15 2 0 0 0 0 0 0 0 0 0 0 0 0 0 0 0 0 0 0 0 0 0 0 0
85 59 0 0 0 0 1 0 1 26 32 33 33 10 0 0 0 0 0 5 21 3 0 0 0 0 0 0 0 0 0 0 0 0 0 0 0 0 0 0 0 0 0 0 0 0 0
113 102 74 56 103 47 0 0 0 0 23 32 25 3 7 0 0 0 0 0 0 0 0 0 0 0 0 0 0 0 0 0 0 0 0 0 0 0 0 0 0 0 0 0 0 0 0
122 147 137 99 110 100 86 48 27 15 25 41 6 17 2 0 0 4 3 0 0 0 0 0 0 0 0 0 0 0 0 0 0 0 0 0 0 0 0 0 0 0 0 0 0 0 0
111 138 61 99 158 118 138 61 52 41 33 42 22 25 0 0 1 21 6 0 0 1 0 0 0 0 0 0 0 0 0 0 0 0 0 0 0 0 0 0 0 0 0 0 0 0 0
104 116 105 94 89 109 116 82 15 66 44 32 24 24 0 0 3 0 0 0 1 0 0 0 0 0 0 0 0 0 0 0 0 0 0 0 0 0 0 0 0 0 0 0 0 0 0
58 108 123 134 101 76 76 70 80 92 90 41 24 38 1 1 0 3 0 0 0 3 0 0 0 0 0 0 0 0 0 0 0 0 0 0 0 0 0 0 0 0 0 0 0 0 0
41 67 89 146 121 90 88 78 70 84 101 97 56 26 0 1 6 0 0 2 0 0 0 0 0 0 0 0 0 0 0 0 0 0 0 0 0 0 0 0 0 0 0 0 0 0 0
0 6 76 123 154 118 89 110 90 81 81 81 102 33 1 0 0 0 10 26 0 0 0 0 0 0 0 0 0 0 0 0 0 0 0 0 0 0 0 0 0 0 0 0 0 0 0
56 0 0 124 82 171 140 82 96 68 65 73 65 48 10 0 0 0 58 41 0 0 0 0 0 0 0 0 0 0 0 0 0 0 0 0 0 0 0 0 0 0 0 0 0 0 0
51 52 7 0 43 183 158 68 75 53 60 68 62 8 0 0 0 7 53 0 0 0 0 0 0 0 0 0 0 0 0 0 0 0 0 0 0 0 0 0 0 0 0 0 0 0 0
19 18 18 42 49 3 121 90 62 109 106 80 2 7 0 0 6 21 41 0 0 0 0 0 0 0 0 0 0 0 0 0 0 0 0 0 0 0 0 0 0 0 0 0 0 0 0
57 92 77 3 0 8 0 142 114 98 119 15 5 0 0 20 92 12 0 0 0 0 0 0 0 0 0 0 0 0 0 0 0 5 0 0 0 0 0 0 0 0 0 0 0 0 0
82 81 57 3 2 0 57 0 137 89 61 4 0 0 11 87 29 16 0 0 0 0 0 0 0 0 0 0 0 0 0 0 2 8 0 32 39 0 0 1 10 13 12 5 0 0 0
98 98 53 22 9 0 4 72 0 0 60 1 0 0 21 65 0 0 0 0 0 0 0 0 0 0 0 0 0 0 0 25 22 33 42 50 0 0 0 9 10 1 4 24 6 10 0
119 130 96 124 74 0 70 141 89 67 73 0 0 0 0 75 31 37 0 0 0 2 0 0 6 11 0 0 0 0 0 13 22 28 62 47 13 25 0 0 0 0 0 43 53 5 3
111 131 105 89 109 146 316 144 74 67 66 0 0 0 0 0 12 3 22 0 0 0 15 8 0 0 0 0 0 0 0 0 0 0 33 48 23 25 10 8 0 0 0 24 56 42 11
67 59 84 125 10 44 86 20 56 36 72 0 0 2 0 0 0 0 0 0 0 0 0 76 0 0 17 0 0 0 13 17 18 0 25 14 14 0 0 0 17 20 0 0 2 3 61
102 105 109 75 0 32 0 35 3 66 101 3 0 0 0 1 11 51 0 0 0 0 5 14 40 38 30 1 13 26 14 7 27 14 12 4 4 4 0 0 12 25 0 0 0 0 0
121 122 160 149 5 0 101 34 34 83 80 10 1 0 3 0 0 1 1 0 0 2 1 6 22 23 0 1 5 0 1 0 1 0 7 8 8 4 7 22 0 0 0 0 0 0 0
31 0 20 11 87 133 195 121 133 142 15 5 0 0 1 0 1 0 0 0 0 3 1 1 3 13 24 36 32 0 0 0 0 0 0 2 35 33 48 28 0 0 0 0 0 0 0
13 0 16 4 0 58 98 109 134 143 33 0 0 0 3 0 0 0 0 0 0 0 0 0 0 0 12 42 56 0 0 0 0 0 0 4 1 31 5 0 0 0 0 0 0 0 0
26 9 0 1 0 0 75 135 173 143 63 0 6 1 0 5 0 0 0 0 0 0 0 0 0 8 8 0 0 0 0 14 0 9 0 0 3 4 19 17 0 0 0 0 0 0 0
12 10 13 0 0 40 62 104 124 137 96 2 0 0 0 0 0 20 16 30 34 0 2 0 63 39 23 33 0 0 0 0 1 0 0 12 0 3 0 1 0 0 0 0 0 0 0
10 11 8 0 0 0 25 66 83 78 71 4 0 0 0 2 0 1 2 0 2 3 12 2 5 4 6 1 1 9 5 0 0 6 0 1 3 0 0 0 0 0 0 0 0 0 0

GFSGBSN_con_mucape_126.txt.gz
CAPE
59 89 79 38 66 32 26 19 0 8 13 0 0 0 0 0 0 0 0 0 0 0 0 0 0 0 0 0 0 0 0 0 0 0 0 0 0 0 0 0 0 0 0 0 0 0 0
46 52 52 64 59 36 31 12 12 37 2 1 0 0 0 0 0 0 0 0 0 0 0 0 0 0 0 0 0 0 0 0 0 0 0 0 0 0 0 0 0 0 0 0 0 0 0
6 8 15 31 15 12 5 10 19 3 8 3 1 0 0 0 0 0 0 0 0 0 0 0 0 0 0 0 0 0 0 0 0 0 0 0 0 0 0 0 0 0 0 0 0 0 0
5 4 2 5 4 5 5 7 3 11 5 9 0 1 0 0 0 0 0 0 0 0 0 0 0 0 0 0 0 0 0 0 0 0 0 0 0 0 0 0 0 0 0 0 0 0 0
73 1 1 0 3 3 3 4 4 3 4 7 3 2 0 0 0 0 0 0 0 0 3 0 0 0 0 0 0 0 0 0 0 0 0 0 0 0 0 0 0 0 0 0 0 0 0
35 82 57 61 66 3 1 0 1 1 0 0 4 0 0 0 0 0 0 1 10 2 1 0 0 0 0 0 0 0 0 0 0 0 0 0 0 0 0 0 0 0 0 0 0 0 0
32 41 99 76 83 53 66 0 0 0 1 0 0 0 2 6 0 0 4 0 0 0 0 0 0 0 0 0 0 0 0 0 0 0 0 0 0 0 0 0 0 0 0 0 0 0 0
39 9 38 75 93 135 92 78 38 0 0 0 0 0 0 0 0 3 13 0 0 0 0 0 0 0 0 0 0 0 0 0 0 0 0 0 0 0 0 0 0 0 0 0 0 0 0
5 32 9 31 140 112 98 107 56 26 44 0 0 0 0 0 1 16 0 0 0 0 0 0 0 0 0 0 0 0 0 0 0 0 0 0 0 0 0 0 0 0 0 0 0 0 0
0 2 1 16 58 70 61 71 70 0 15 24 42 32 5 0 2 9 0 0 4 0 0 0 0 0 0 0 0 0 0 0 0 0 0 0 0 0 0 0 0 0 0 0 0 0 0
4 0 0 0 72 94 35 51 58 63 18 26 1 38 33 1 0 0 0 0 2 0 0 0 0 0 0 0 0 0 0 0 0 0 0 0 0 0 0 0 0 0 0 0 0 0 0
0 1 1 0 0 91 78 52 46 63 0 21 9 24 31 58 39 8 0 2 7 0 0 0 0 0 0 0 0 0 0 0 0 0 0 0 0 0 0 0 0 0 0 0 0 0 0
2 0 0 7 8 0 51 88 48 59 44 37 40 25 3 16 0 31 83 131 0 0 0 0 0 0 0 0 0 0 0 0 0 0 0 0 0 0 0 0 0 0 0 0 0 0 0
4 22 3 0 2 0 18 14 68 46 55 56 47 52 8 0 12 58 129 23 0 0 0 0 0 0 0 0 0 0 0 0 0 0 0 0 0 0 0 0 0 0 0 0 0 0 0
26 20 43 33 21 0 8 18 76 70 44 42 78 117 63 66 21 134 84 0 0 0 0 0 0 0 0 0 0 0 0 0 0 0 0 0 0 0 0 0 0 0 0 0 0 0 0
26 25 26 46 33 18 22 11 1 87 66 25 0 0 51 49 46 30 0 0 0 0 0 0 0 0 0 0 0 0 0 0 0 0 0 0 0 0 0 0 0 0 9 0 0 0 0
22 23 22 22 52 27 4 0 2 83 102 18 0 0 0 107 79 0 0 0 0 0 0 0 0 0 0 0 4 0 0 0 0 1 0 0 0 0 5 0 0 0 0 8 13 0 0
15 17 21 16 30 65 50 60 0 15 7 9 0 0 109 162 0 0 0 0 0 0 0 0 0 1 0 0 0 11 1 6 0 20 22 22 20 0 0 35 60 90 9 52 0 0 0
15 20 18 24 50 40 13 13 13 0 15 0 0 0 74 103 1 0 0 0 0 0 0 0 0 2 21 0 0 0 37 30 51 59 116 101 33 0 0 48 61 11 66 78 84 80 0
12 23 14 38 79 99 98 80 36 4 62 0 0 0 0 0 37 14 0 0 0 0 0 21 17 16 0 0 0 0 0 84 65 100 59 80 0 0 0 0 53 40 40 65 84 4 9
14 29 16 57 77 69 98 78 78 5 1 0 0 0 0 0 19 0 31 0 0 0 25 41 8 4 0 0 0 0 0 11 54 55 29 30 0 0 0 14 44 57 43 41 64 78 82
22 33 31 30 42 64 79 98 128 38 0 0 0 0 3 62 24 11 64 0 0 0 41 20 15 3 6 0 0 0 52 43 1 61 89 97 0 0 0 3 17 0 12 7 33 36 67
37 31 28 58 93 114 133 98 0 174 2 0 0 0 82 63 119 138 83 4 1 46 44 46 50 62 52 56 68 58 58 59 60 64 64 70 37 0 0 0 57 8 0 0 1 45 74
26 45 33 92 85 98 58 33 0 181 23 0 1 0 44 22 276 96 0 0 2 29 35 24 51 59 44 45 60 49 71 64 69 63 71 55 58 85 0 16 0 6 0 0 15 33 55
32 58 39 72 105 115 31 37 2 3 4 1 0 0 0 126 127 93 81 14 20 50 37 60 35 57 59 47 0 0 0 0 0 1 15 47 73 0 0 0 11 18 1 4 31 0 10
45 44 10 0 20 106 46 13 0 0 29 0 0 3 22 121 84 48 86 52 135 101 84 37 48 46 33 59 41 0 0 0 0 0 4 8 45 160 0 0 0 37 2 0 0 5 0
17 0 0 17 0 60 68 8 0 0 0 20 5 40 50 78 20 28 55 76 64 70 78 53 51 86 103 78 0 0 0 34 0 0 0 12 52 2 63 0 31 0 0 0 29 37 0
14 30 0 1 2 10 27 0 30 62 39 34 53 80 20 52 49 31 17 48 98 152 121 118 183 124 108 79 34 19 45 53 61 75 23 65 67 69 69 53 30 0 0 0 60 0 0
6 13 37 0 0 0 0 52 80 161 28 22 28 48 22 30 41 16 1 1 53 117 136 142 73 117 146 107 104 88 75 87 49 53 53 82 192 183 98 121 0 0 1 0 0 0 0

GFSGBSN_con_mucape_129.txt.gz
CAPE
12 5 14 32 24 56 40 19 37 38 7 16 48 5 0 0 0 0 0 0 0 0 0 0 0 0 0 0 0 0 0 0 0 0 0 0 0 0 0 0 0 0 0 0 0 0 0
12 14 32 21 21 42 57 45 60 25 5 36 35 3 1 0 0 0 0 0 0 0 0 0 0 0 0 0 0 0 0 0 0 0 0 0 0 0 0 0 0 0 0 0 0 0 0
18 22 7 12 13 37 9 48 52 29 1 1 0 21 3 0 0 0 0 0 0 0 0 0 0 0 0 0 0 0 0 0 0 0 0 0 0 0 0 0 0 0 0 0 0 0 0
4 8 8 3 7 7 9 8 9 20 8 5 7 13 0 0 0 0 0 0 0 0 0 0 0 0 0 0 0 0 0 0 0 0 0 0 0 0 0 0 0 0 0 0 0 0 0
0 1 1 2 3 1 3 5 3 5 6 3 4 8 6 4 0 0 0 0 0 0 0 0 0 0 0 0 0 0 0 0 0 0 0 0 0 0 0 0 0 0 0 0 0 0 0
35 24 1 2 0 0 0 0 0 0 1 2 5 5 2 3 4 2 0 0 0 0 0 0 0 0 0 0 0 0 0 0 0 0 0 0 0 0 0 0 0 0 0 0 0 0 0
19 40 19 38 15 63 52 14 0 0 0 0 2 0 0 1 1 0 0 0 0 0 0 0 0 0 0 0 0 0 0 0 0 0 0 0 0 0 0 0 0 0 0 0 0 0 0
0 0 10 22 55 32 44 75 7 0 0 0 0 0 0 0 0 1 1 0 0 0 0 0 0 0 0 0 0 0 0 0 0 0 0 0 0 0 0 0 0 0 0 0 0 0 0
0 3 1 8 23 17 21 101 86 44 4 0 0 0 0 0 0 0 0 0 0 0 0 0 0 0 0 0 0 0 0 0 0 0 0 0 0 0 0 0 0 0 0 0 0 0 0
0 0 2 7 1 48 39 100 74 66 2 0 0 0 0 0 0 0 0 0 3 19 0 0 0 0 0 0 0 0 0 0 0 0 0 0 0 0 0 0 0 0 0 0 0 0 0
0 0 0 0 14 8 29 23 58 22 48 0 0 0 0 0 0 0 0 0 22 21 0 0 0 0 0 0 0 0 0 0 0 0 0 0 0 0 0 0 0 0 0 0 0 0 0
1 0 0 0 0 8 26 47 17 42 58 0 0 0 6 1 0 3 26 12 74 0 0 0 0 0 0 0 0 0 0 0 0 0 0 0 0 0 0 0 0 0 0 0 0 0 0
3 5 3 0 0 0 1 11 40 4 52 1 0 0 0 0 0 41 140 149 0 0 0 0 0 0 0 0 0 0 0 0 0 0 0 0 0 0 0 0 0 0 0 0 0 0 0
8 1 0 10 0 0 0 0 10 5 41 67 0 0 2 0 1 102 183 0 0 0 0 0 0 0 0 0 0 0 0 0 0 0 0 0 0 0 0 0 0 0 0 0 0 0 0
6 7 2 3 10 7 2 0 9 4 5 46 28 0 0 0 60 197 35 0 0 0 0 0 0 0 0 0 0 0 0 0 0 0 0 0 0 0 0 0 0 0 0 0 0 0 0
15 13 12 6 0 2 22 8 0 1 5 0 0 0 0 44 164 126 11 0 0 0 0 0 0 0 0 0 0 0 0 0 0 0 0 0 0 0 0 0 0 0 1 0 0 0 0
11 13 10 3 3 1 0 5 13 0 0 0 6 0 0 100 150 22 1 0 0 0 0 0 0 1 0 0 0 0 0 0 0 0 0 0 0 0 0 0 0 0 0 0 7 0 0
6 10 9 6 3 3 2 1 15 20 36 0 0 0 0 47 0 0 1 0 0 0 5 0 0 3 0 0 0 0 0 32 4 3 0 1 0 0 0 1 0 10 0 0 0 0 0
3 5 7 13 7 3 8 4 35 34 40 0 2 28 38 3 0 0 0 0 0 0 10 0 0 9 21 0 0 0 0 65 3 28 49 51 17 0 0 1 28 4 8 56 74 108 0
10 9 8 8 8 7 10 8 12 55 70 7 0 13 4 0 0 0 0 0 0 5 13 21 12 42 29 0 24 0 17 62 38 86 44 84 67 0 0 0 37 11 40 34 60 0 12
8 11 10 11 7 6 15 14 50 134 75 86 0 0 0 0 0 5 5 0 0 0 22 17 50 5 0 0 0 0 14 20 54 46 32 47 0 0 1 16 1 2 7 22 65 69 27
20 16 14 6 8 11 15 33 43 117 135 25 0 19 0 3 0 16 38 22 10 0 5 0 0 0 0 0 1 0 51 19 1 8 54 72 0 0 0 0 0 0 0 0 0 20 51
15 16 16 12 11 13 23 49 151 128 94 15 0 0 114 97 29 86 103 4 7 10 13 24 31 0 15 12 27 41 61 25 30 48 70 67 40 0 0 0 0 0 0 0 0 0 12
14 18 18 17 24 18 49 97 157 147 121 0 3 18 31 78 251 82 25 19 17 11 5 15 40 55 38 80 32 25 60 41 50 39 46 27 86 74 0 0 0 0 0 0 25 28 25
10 16 45 51 31 20 34 109 215 153 97 0 146 171 39 191 15 65 53 52 49 63 83 77 97 113 47 54 56 0 4 58 3 31 31 48 58 0 0 0 0 0 0 98 152 7 1
30 47 49 19 13 1 5 46 235 86 127 12 141 254 138 135 210 76 138 66 160 191 152 49 102 65 85 40 25 0 0 0 0 27 0 0 56 100 0 0 0 17 0 56 75 6 5
27 42 16 0 0 42 16 108 87 0 1 4 7 65 21 29 26 82 99 123 147 197 211 116 84 143 140 109 19 87 53 26 21 7 52 39 23 42 40 0 0 0 0 57 21 16 5
40 13 1 0 0 1 53 58 57 0 0 0 0 12 14 52 35 40 114 200 275 330 234 248 138 119 161 56 59 64 59 33 59 131 0 56 69 49 88 0 0 1 20 48 150 26 5
1 10 0 0 0 84 228 4 0 38 0 0 0 5 24 37 59 6 77 86 159 134 164 285 161 171 191 139 78 66 79 62 36 67 32 120 199 148 96 107 55 61 66 69 0 3 0

GFSGBSN_con_mucape_135.txt.gz
CAPE
3 6 7 3 0 0 7 21 23 29 19 9 4 9 9 13 19 6 0 0 0 0 0 0 0 0 0 0 0 0 0 0 0 0 0 0 0 0 0 0 0 0 0 0 0 0 0
10 3 11 11 14 27 26 7 11 37 41 54 45 18 32 25 1 2 4 0 0 0 0 0 0 0 0 0 0 0 0 0 0 0 0 0 0 0 0 0 0 0 0 0 0 0 0
4 12 8 12 8 17 15 17 11 20 31 23 49 21 22 19 0 0 0 2 0 0 0 0 0 0 0 0 0 0 0 0 0 0 0 0 0 0 0 0 0 0 0 0 0 0 0
4 8 21 4 3 5 3 22 21 30 12 9 8 12 21 26 19 2 9 7 0 0 0 0 0 0 0 0 0 0 0 0 0 0 0 0 0 0 0 0 0 0 0 0 0 0 0
0 0 0 0 1 2 2 2 1 8 9 11 11 12 9 11 3 10 13 4 3 0 0 0 0 0 0 0 0 0 0 0 0 0 0 0 0 0 0 0 0 0 0 0 0 0 0
12 0 0 18 17 0 26 8 3 0 3 6 4 7 8 9 0 1 0 9 5 3 0 0 0 0 0 0 0 0 0 0 0 0 0 0 0 0 0 0 0 0 0 0 0 0 0
23 19 6 12 18 36 23 47 26 0 1 0 4 3 7 6 0 5 0 0 8 0 1 0 0 0 0 0 0 0 0 0 0 0 0 0 0 0 0 0 0 0 0 0 0 0 0
25 23 23 19 12 3 20 19 18 34 5 0 1 0 3 1 0 0 0 0 2 0 0 0 0 0 0 0 0 0 0 0 0 0 0 0 0 0 0 0 0 0 0 0 0 0 0
0 0 0 1 4 2 1 2 2 47 15 3 0 0 0 3 1 0 0 0 0 0 0 0 0 0 0 0 0 0 0 0 0 0 0 0 0 0 0 0 0 0 0 0 0 0 0
0 0 0 0 0 0 0 0 0 42 8 8 2 0 1 0 0 0 0 0 4 1 0 0 0 0 0 0 0 0 0 0 0 0 0 0 0 0 0 0 0 0 0 0 0 0 0
2 0 0 0 0 0 0 0 2 0 64 20 2 20 3 0 0 0 0 0 0 4 0 0 0 0 0 0 0 0 0 0 0 0 0 0 0 0 0 0 0 0 0 0 0 0 0
0 0 0 0 0 0 0 0 0 0 7 0 1 21 3 2 0 0 0 2 8 0 0 0 0 0 0 0 0 0 0 0 0 0 0 0 0 0 0 0 0 0 0 0 0 0 0
0 0 0 0 0 0 0 0 0 0 2 0 0 53 15 2 0 0 12 0 0 0 0 0 0 0 0 0 0 0 0 0 0 0 0 0 0 0 0 0 0 0 0 0 0 0 0
0 0 0 0 0 0 2 7 0 0 0 0 2 1 8 7 9 0 2 0 0 0 0 0 0 0 0 0 0 0 0 0 0 0 0 0 0 0 0 0 0 0 0 0 0 0 0
0 0 0 0 0 0 0 2 12 7 1 0 0 0 41 12 14 0 0 0 0 0 0 0 0 4 0 0 0 0 0 0 0 0 0 0 0 0 0 0 0 0 0 0 0 0 0
2 1 0 0 0 0 0 0 0 9 2 0 0 0 0 10 0 0 0 2 0 0 0 0 0 0 0 0 0 0 0 0 0 0 0 0 0 0 0 0 0 0 0 0 0 0 0
0 0 0 0 1 1 0 0 0 0 11 2 0 0 0 11 18 6 1 0 0 0 0 1 8 1 13 0 14 7 2 0 0 0 0 0 0 0 0 0 0 0 0 0 0 0 0
0 0 0 0 0 4 0 0 3 3 20 1 0 0 0 66 3 2 0 0 0 0 0 0 0 5 10 42 28 29 47 1 10 6 0 0 0 0 0 0 0 0 0 0 0 0 0
5 0 0 0 0 0 5 0 0 3 3 6 0 0 21 43 0 0 3 0 0 0 0 1 9 9 10 28 37 61 22 25 14 6 1 0 1 0 0 0 0 0 0 0 0 0 0
9 4 1 0 0 2 4 6 0 1 1 3 0 0 2 30 0 3 0 2 0 0 0 3 12 17 7 0 18 18 23 28 26 3 11 2 8 0 0 0 0 0 0 0 3 0 0
25 10 0 0 0 3 8 8 3 1 25 2 0 0 1 0 3 1 0 0 0 0 0 0 40 3 1 2 1 19 5 7 68 17 39 0 0 0 0 0 0 0 0 0 0 0 0
11 21 19 0 0 8 11 8 13 10 48 2 0 0 18 0 0 7 19 0 0 6 0 0 11 10 15 10 9 21 14 0 40 2 8 0 0 0 0 6 9 0 0 0 0 0 0
6 5 0 2 2 6 14 21 32 22 31 0 1 11 0 0 19 7 0 0 75 32 28 17 9 46 69 2 19 14 0 15 30 4 0 0 0 0 0 2 7 0 0 0 0 0 0
4 0 0 0 2 3 11 25 58 39 45 10 5 11 0 0 0 0 0 0 0 0 0 14 38 37 0 17 0 0 0 0 0 0 0 0 0 0 0 0 0 0 0 0 0 0 4
0 0 0 2 5 7 23 53 45 45 53 23 25 31 2 0 0 0 0 0 0 0 6 13 1 0 15 3 5 0 0 0 0 0 0 0 1 0 0 0 0 0 0 0 2 0 0
2 1 4 4 14 21 34 17 4 0 6 42 31 20 26 0 0 0 0 0 0 0 25 0 69 0 3 4 3 2 0 0 0 0 0 0 0 0 0 0 0 0 0 0 0 0 0
27 2 0 3 38 23 6 8 5 5 5 5 12 33 33 11 0 0 0 3 0 22 0 1 9 22 7 0 0 4 0 0 0 0 12 8 0 0 0 0 0 0 0 0 0 0 0
0 0 5 11 18 37 35 16 11 11 11 18 12 14 26 9 0 0 0 0 37 15 0 1 41 6 2 0 0 0 1 1 0 0 12 17 21 3 0 0 0 0 1 0 10 15 1
0 1 11 8 36 34 29 30 23 45 50 56 31 8 48 43 0 0 0 0 8 0 3 1 0 0 0 0 0 0 0 0 0 0 1 0 0 2 1 0 3 1 0 2 0 14 9